<?xml version="1.0" encoding="UTF-8" standalone="no" ?>
<gpx xmlns="http://www.topografix.com/GPX/1/1" xmlns:xsi="http://www.w3.org/2001/XMLSchema-instance" xsi:schemaLocation="http://www.topografix.com/GPX/1/1 http://www.topografix.com/GPX/1/1/gpx.xsd" version="1.1" creator="VisuGPX - https://www.visugpx.com">
  <metadata>
    <name>Trans-garrigues Cruzy 2011</name>
    <desc><![CDATA[Parcours assez physique de la première Trans-Garrigues de Grimpailloux de Cruzy.]]></desc>
  </metadata>
  <trk>
    <name><![CDATA[trace-120611]]></name>
    <trkseg>
      <trkpt lat="43.35626" lon="2.94212">
        <ele>124.14733886719</ele>
        <time>2011-06-12T05:42:35Z</time>
      </trkpt>
      <trkpt lat="43.35638" lon="2.94215">
        <ele>103.47900390625</ele>
        <time>2011-06-12T05:44:42Z</time>
      </trkpt>
      <trkpt lat="43.35637" lon="2.94209">
        <ele>93.385131835938</ele>
        <time>2011-06-12T05:45:26Z</time>
      </trkpt>
      <trkpt lat="43.3564" lon="2.94207">
        <ele>85.213989257812</ele>
        <time>2011-06-12T05:46:02Z</time>
      </trkpt>
      <trkpt lat="43.35641" lon="2.94204">
        <ele>77.042846679688</ele>
        <time>2011-06-12T05:46:31Z</time>
      </trkpt>
      <trkpt lat="43.35655" lon="2.94207">
        <ele>70.3134765625</ele>
        <time>2011-06-12T05:46:58Z</time>
      </trkpt>
      <trkpt lat="43.35655" lon="2.94209">
        <ele>65.987670898438</ele>
        <time>2011-06-12T05:47:20Z</time>
      </trkpt>
      <trkpt lat="43.3565" lon="2.9421">
        <ele>63.103637695312</ele>
        <time>2011-06-12T05:47:37Z</time>
      </trkpt>
      <trkpt lat="43.35649" lon="2.94211">
        <ele>58.777709960938</ele>
        <time>2011-06-12T05:47:59Z</time>
      </trkpt>
      <trkpt lat="43.35644" lon="2.94219">
        <ele>53.490478515625</ele>
        <time>2011-06-12T05:48:25Z</time>
      </trkpt>
      <trkpt lat="43.35654" lon="2.94222">
        <ele>53.490478515625</ele>
        <time>2011-06-12T05:48:56Z</time>
      </trkpt>
      <trkpt lat="43.35652" lon="2.94207">
        <ele>58.777709960938</ele>
        <time>2011-06-12T05:51:30Z</time>
      </trkpt>
      <trkpt lat="43.3565" lon="2.94211">
        <ele>60.2197265625</ele>
        <time>2011-06-12T05:51:43Z</time>
      </trkpt>
      <trkpt lat="43.35651" lon="2.94213">
        <ele>65.987670898438</ele>
        <time>2011-06-12T05:52:08Z</time>
      </trkpt>
      <trkpt lat="43.35647" lon="2.94215">
        <ele>72.236206054688</ele>
        <time>2011-06-12T05:52:28Z</time>
      </trkpt>
      <trkpt lat="43.35647" lon="2.94219">
        <ele>75.120239257812</ele>
        <time>2011-06-12T05:52:29Z</time>
      </trkpt>
      <trkpt lat="43.35613" lon="2.94276">
        <ele>83.291381835938</ele>
        <time>2011-06-12T05:52:45Z</time>
      </trkpt>
      <trkpt lat="43.35612" lon="2.94283">
        <ele>83.291381835938</ele>
        <time>2011-06-12T05:52:47Z</time>
      </trkpt>
      <trkpt lat="43.35644" lon="2.94318">
        <ele>86.17529296875</ele>
        <time>2011-06-12T05:52:59Z</time>
      </trkpt>
      <trkpt lat="43.35669" lon="2.94337">
        <ele>89.539916992188</ele>
        <time>2011-06-12T05:53:08Z</time>
      </trkpt>
      <trkpt lat="43.35678" lon="2.94321">
        <ele>90.501342773438</ele>
        <time>2011-06-12T05:53:14Z</time>
      </trkpt>
      <trkpt lat="43.35686" lon="2.9428">
        <ele>90.98193359375</ele>
        <time>2011-06-12T05:53:24Z</time>
      </trkpt>
      <trkpt lat="43.35699" lon="2.94274">
        <ele>91.943237304688</ele>
        <time>2011-06-12T05:53:30Z</time>
      </trkpt>
      <trkpt lat="43.35705" lon="2.94285">
        <ele>91.943237304688</ele>
        <time>2011-06-12T05:53:40Z</time>
      </trkpt>
      <trkpt lat="43.3571" lon="2.9428">
        <ele>93.865844726562</ele>
        <time>2011-06-12T05:53:55Z</time>
      </trkpt>
      <trkpt lat="43.3571" lon="2.94279">
        <ele>93.865844726562</ele>
        <time>2011-06-12T05:54:16Z</time>
      </trkpt>
      <trkpt lat="43.3571" lon="2.94277">
        <ele>93.865844726562</ele>
        <time>2011-06-12T05:55:28Z</time>
      </trkpt>
      <trkpt lat="43.35711" lon="2.94273">
        <ele>93.865844726562</ele>
        <time>2011-06-12T05:55:48Z</time>
      </trkpt>
      <trkpt lat="43.35711" lon="2.94272">
        <ele>93.385131835938</ele>
        <time>2011-06-12T05:56:04Z</time>
      </trkpt>
      <trkpt lat="43.35711" lon="2.94272">
        <ele>92.904541015625</ele>
        <time>2011-06-12T05:56:51Z</time>
      </trkpt>
      <trkpt lat="43.35712" lon="2.9427">
        <ele>92.904541015625</ele>
        <time>2011-06-12T05:57:26Z</time>
      </trkpt>
      <trkpt lat="43.35713" lon="2.9427">
        <ele>92.423950195312</ele>
        <time>2011-06-12T05:58:31Z</time>
      </trkpt>
      <trkpt lat="43.35714" lon="2.94269">
        <ele>92.423950195312</ele>
        <time>2011-06-12T05:59:32Z</time>
      </trkpt>
      <trkpt lat="43.35715" lon="2.94272">
        <ele>93.385131835938</ele>
        <time>2011-06-12T06:00:06Z</time>
      </trkpt>
      <trkpt lat="43.35717" lon="2.94271">
        <ele>94.8271484375</ele>
        <time>2011-06-12T06:00:42Z</time>
      </trkpt>
      <trkpt lat="43.35716" lon="2.9427">
        <ele>94.8271484375</ele>
        <time>2011-06-12T06:01:07Z</time>
      </trkpt>
      <trkpt lat="43.35715" lon="2.94268">
        <ele>94.8271484375</ele>
        <time>2011-06-12T06:01:37Z</time>
      </trkpt>
      <trkpt lat="43.35713" lon="2.94262">
        <ele>94.346557617188</ele>
        <time>2011-06-12T06:01:56Z</time>
      </trkpt>
      <trkpt lat="43.35713" lon="2.94262">
        <ele>92.423950195312</ele>
        <time>2011-06-12T06:02:11Z</time>
      </trkpt>
      <trkpt lat="43.35712" lon="2.94264">
        <ele>92.423950195312</ele>
        <time>2011-06-12T06:03:04Z</time>
      </trkpt>
      <trkpt lat="43.35711" lon="2.94264">
        <ele>92.904541015625</ele>
        <time>2011-06-12T06:07:46Z</time>
      </trkpt>
      <trkpt lat="43.35707" lon="2.94272">
        <ele>92.423950195312</ele>
        <time>2011-06-12T06:08:03Z</time>
      </trkpt>
      <trkpt lat="43.35707" lon="2.94273">
        <ele>92.904541015625</ele>
        <time>2011-06-12T06:08:06Z</time>
      </trkpt>
      <trkpt lat="43.35707" lon="2.94275">
        <ele>92.904541015625</ele>
        <time>2011-06-12T06:08:08Z</time>
      </trkpt>
      <trkpt lat="43.35704" lon="2.94284">
        <ele>92.904541015625</ele>
        <time>2011-06-12T06:08:20Z</time>
      </trkpt>
      <trkpt lat="43.35705" lon="2.94283">
        <ele>93.385131835938</ele>
        <time>2011-06-12T06:08:22Z</time>
      </trkpt>
      <trkpt lat="43.35701" lon="2.94276">
        <ele>93.865844726562</ele>
        <time>2011-06-12T06:08:28Z</time>
      </trkpt>
      <trkpt lat="43.35699" lon="2.94275">
        <ele>94.346557617188</ele>
        <time>2011-06-12T06:08:30Z</time>
      </trkpt>
      <trkpt lat="43.35702" lon="2.94262">
        <ele>92.423950195312</ele>
        <time>2011-06-12T06:08:41Z</time>
      </trkpt>
      <trkpt lat="43.35702" lon="2.9426">
        <ele>92.423950195312</ele>
        <time>2011-06-12T06:08:42Z</time>
      </trkpt>
      <trkpt lat="43.35699" lon="2.94264">
        <ele>91.462524414062</ele>
        <time>2011-06-12T06:08:48Z</time>
      </trkpt>
      <trkpt lat="43.357" lon="2.94267">
        <ele>90.020629882812</ele>
        <time>2011-06-12T06:09:02Z</time>
      </trkpt>
      <trkpt lat="43.35701" lon="2.94267">
        <ele>90.020629882812</ele>
        <time>2011-06-12T06:09:27Z</time>
      </trkpt>
      <trkpt lat="43.35701" lon="2.94269">
        <ele>89.539916992188</ele>
        <time>2011-06-12T06:09:53Z</time>
      </trkpt>
      <trkpt lat="43.35701" lon="2.94268">
        <ele>89.539916992188</ele>
        <time>2011-06-12T06:10:20Z</time>
      </trkpt>
      <trkpt lat="43.35703" lon="2.94269">
        <ele>89.059326171875</ele>
        <time>2011-06-12T06:10:34Z</time>
      </trkpt>
      <trkpt lat="43.35707" lon="2.94281">
        <ele>89.059326171875</ele>
        <time>2011-06-12T06:10:41Z</time>
      </trkpt>
      <trkpt lat="43.3571" lon="2.94295">
        <ele>88.098022460938</ele>
        <time>2011-06-12T06:10:47Z</time>
      </trkpt>
      <trkpt lat="43.35704" lon="2.94328">
        <ele>88.098022460938</ele>
        <time>2011-06-12T06:10:55Z</time>
      </trkpt>
      <trkpt lat="43.35699" lon="2.94338">
        <ele>88.098022460938</ele>
        <time>2011-06-12T06:10:58Z</time>
      </trkpt>
      <trkpt lat="43.35711" lon="2.9435">
        <ele>88.098022460938</ele>
        <time>2011-06-12T06:11:04Z</time>
      </trkpt>
      <trkpt lat="43.35741" lon="2.94331">
        <ele>89.539916992188</ele>
        <time>2011-06-12T06:11:17Z</time>
      </trkpt>
      <trkpt lat="43.3575" lon="2.94268">
        <ele>91.943237304688</ele>
        <time>2011-06-12T06:11:32Z</time>
      </trkpt>
      <trkpt lat="43.35751" lon="2.94265">
        <ele>92.423950195312</ele>
        <time>2011-06-12T06:11:45Z</time>
      </trkpt>
      <trkpt lat="43.35751" lon="2.94265">
        <ele>91.943237304688</ele>
        <time>2011-06-12T06:13:04Z</time>
      </trkpt>
      <trkpt lat="43.3575" lon="2.94268">
        <ele>91.943237304688</ele>
        <time>2011-06-12T06:13:35Z</time>
      </trkpt>
      <trkpt lat="43.35751" lon="2.94285">
        <ele>93.385131835938</ele>
        <time>2011-06-12T06:13:42Z</time>
      </trkpt>
      <trkpt lat="43.35742" lon="2.9434">
        <ele>93.385131835938</ele>
        <time>2011-06-12T06:13:55Z</time>
      </trkpt>
      <trkpt lat="43.35741" lon="2.94344">
        <ele>92.904541015625</ele>
        <time>2011-06-12T06:13:56Z</time>
      </trkpt>
      <trkpt lat="43.35722" lon="2.94348">
        <ele>92.423950195312</ele>
        <time>2011-06-12T06:14:01Z</time>
      </trkpt>
      <trkpt lat="43.35705" lon="2.94346">
        <ele>92.423950195312</ele>
        <time>2011-06-12T06:14:06Z</time>
      </trkpt>
      <trkpt lat="43.35664" lon="2.94349">
        <ele>92.904541015625</ele>
        <time>2011-06-12T06:14:11Z</time>
      </trkpt>
      <trkpt lat="43.35744" lon="2.94302">
        <ele>93.385131835938</ele>
        <time>2011-06-12T06:14:26Z</time>
      </trkpt>
      <trkpt lat="43.35744" lon="2.943">
        <ele>98.672485351562</ele>
        <time>2011-06-12T06:14:36Z</time>
      </trkpt>
      <trkpt lat="43.35744" lon="2.943">
        <ele>99.153076171875</ele>
        <time>2011-06-12T06:15:25Z</time>
      </trkpt>
      <trkpt lat="43.35744" lon="2.943">
        <ele>99.153076171875</ele>
        <time>2011-06-12T06:15:55Z</time>
      </trkpt>
      <trkpt lat="43.35744" lon="2.943">
        <ele>99.153076171875</ele>
        <time>2011-06-12T06:17:04Z</time>
      </trkpt>
      <trkpt lat="43.35744" lon="2.943">
        <ele>98.19189453125</ele>
        <time>2011-06-12T06:18:39Z</time>
      </trkpt>
      <trkpt lat="43.35744" lon="2.943">
        <ele>99.153076171875</ele>
        <time>2011-06-12T06:19:41Z</time>
      </trkpt>
      <trkpt lat="43.35744" lon="2.943">
        <ele>98.672485351562</ele>
        <time>2011-06-12T06:20:05Z</time>
      </trkpt>
      <trkpt lat="43.35744" lon="2.943">
        <ele>100.11450195312</ele>
        <time>2011-06-12T06:20:39Z</time>
      </trkpt>
      <trkpt lat="43.35744" lon="2.943">
        <ele>99.6337890625</ele>
        <time>2011-06-12T06:21:37Z</time>
      </trkpt>
      <trkpt lat="43.35744" lon="2.943">
        <ele>99.6337890625</ele>
        <time>2011-06-12T06:23:04Z</time>
      </trkpt>
      <trkpt lat="43.35744" lon="2.943">
        <ele>99.153076171875</ele>
        <time>2011-06-12T06:24:41Z</time>
      </trkpt>
      <trkpt lat="43.35744" lon="2.943">
        <ele>99.6337890625</ele>
        <time>2011-06-12T06:26:00Z</time>
      </trkpt>
      <trkpt lat="43.35744" lon="2.943">
        <ele>99.6337890625</ele>
        <time>2011-06-12T06:27:58Z</time>
      </trkpt>
      <trkpt lat="43.35746" lon="2.94289">
        <ele>100.59509277344</ele>
        <time>2011-06-12T06:28:02Z</time>
      </trkpt>
      <trkpt lat="43.35747" lon="2.94286">
        <ele>101.07568359375</ele>
        <time>2011-06-12T06:28:04Z</time>
      </trkpt>
      <trkpt lat="43.3575" lon="2.94269">
        <ele>102.51770019531</ele>
        <time>2011-06-12T06:28:12Z</time>
      </trkpt>
      <trkpt lat="43.3575" lon="2.94266">
        <ele>103.47900390625</ele>
        <time>2011-06-12T06:28:28Z</time>
      </trkpt>
      <trkpt lat="43.3575" lon="2.94266">
        <ele>103.95971679688</ele>
        <time>2011-06-12T06:29:16Z</time>
      </trkpt>
      <trkpt lat="43.35757" lon="2.94231">
        <ele>104.4404296875</ele>
        <time>2011-06-12T06:29:28Z</time>
      </trkpt>
      <trkpt lat="43.35759" lon="2.94221">
        <ele>104.4404296875</ele>
        <time>2011-06-12T06:29:41Z</time>
      </trkpt>
      <trkpt lat="43.35763" lon="2.94197">
        <ele>103.47900390625</ele>
        <time>2011-06-12T06:29:50Z</time>
      </trkpt>
      <trkpt lat="43.35726" lon="2.9415">
        <ele>103.47900390625</ele>
        <time>2011-06-12T06:30:02Z</time>
      </trkpt>
      <trkpt lat="43.35732" lon="2.94079">
        <ele>103.95971679688</ele>
        <time>2011-06-12T06:30:22Z</time>
      </trkpt>
      <trkpt lat="43.35723" lon="2.94018">
        <ele>104.92102050781</ele>
        <time>2011-06-12T06:30:39Z</time>
      </trkpt>
      <trkpt lat="43.35738" lon="2.94007">
        <ele>103.95971679688</ele>
        <time>2011-06-12T06:30:45Z</time>
      </trkpt>
      <trkpt lat="43.3579" lon="2.9401">
        <ele>101.55639648438</ele>
        <time>2011-06-12T06:31:06Z</time>
      </trkpt>
      <trkpt lat="43.35865" lon="2.94016">
        <ele>99.6337890625</ele>
        <time>2011-06-12T06:31:35Z</time>
      </trkpt>
      <trkpt lat="43.35916" lon="2.9403">
        <ele>101.55639648438</ele>
        <time>2011-06-12T06:31:56Z</time>
      </trkpt>
      <trkpt lat="43.35971" lon="2.94021">
        <ele>105.40173339844</ele>
        <time>2011-06-12T06:32:21Z</time>
      </trkpt>
      <trkpt lat="43.36025" lon="2.94004">
        <ele>110.68884277344</ele>
        <time>2011-06-12T06:32:45Z</time>
      </trkpt>
      <trkpt lat="43.3608" lon="2.93978">
        <ele>110.20825195312</ele>
        <time>2011-06-12T06:33:09Z</time>
      </trkpt>
      <trkpt lat="43.3614" lon="2.93948">
        <ele>108.28564453125</ele>
        <time>2011-06-12T06:33:28Z</time>
      </trkpt>
      <trkpt lat="43.36202" lon="2.93913">
        <ele>109.72766113281</ele>
        <time>2011-06-12T06:33:51Z</time>
      </trkpt>
      <trkpt lat="43.36255" lon="2.93891">
        <ele>111.65026855469</ele>
        <time>2011-06-12T06:34:13Z</time>
      </trkpt>
      <trkpt lat="43.36304" lon="2.93901">
        <ele>116.45678710938</ele>
        <time>2011-06-12T06:34:33Z</time>
      </trkpt>
      <trkpt lat="43.36348" lon="2.93882">
        <ele>118.37939453125</ele>
        <time>2011-06-12T06:34:52Z</time>
      </trkpt>
      <trkpt lat="43.36374" lon="2.9385">
        <ele>120.30212402344</ele>
        <time>2011-06-12T06:35:07Z</time>
      </trkpt>
      <trkpt lat="43.36407" lon="2.9381">
        <ele>129.43469238281</ele>
        <time>2011-06-12T06:35:32Z</time>
      </trkpt>
      <trkpt lat="43.36431" lon="2.93773">
        <ele>131.35729980469</ele>
        <time>2011-06-12T06:35:50Z</time>
      </trkpt>
      <trkpt lat="43.3646" lon="2.93741">
        <ele>134.72192382812</ele>
        <time>2011-06-12T06:36:10Z</time>
      </trkpt>
      <trkpt lat="43.36482" lon="2.9375">
        <ele>137.12524414062</ele>
        <time>2011-06-12T06:36:25Z</time>
      </trkpt>
      <trkpt lat="43.36494" lon="2.93784">
        <ele>139.0478515625</ele>
        <time>2011-06-12T06:36:38Z</time>
      </trkpt>
      <trkpt lat="43.36524" lon="2.93773">
        <ele>141.93176269531</ele>
        <time>2011-06-12T06:36:52Z</time>
      </trkpt>
      <trkpt lat="43.36565" lon="2.93767">
        <ele>144.33520507812</ele>
        <time>2011-06-12T06:37:11Z</time>
      </trkpt>
      <trkpt lat="43.36606" lon="2.93762">
        <ele>145.77709960938</ele>
        <time>2011-06-12T06:37:30Z</time>
      </trkpt>
      <trkpt lat="43.36617" lon="2.93757">
        <ele>148.66101074219</ele>
        <time>2011-06-12T06:37:37Z</time>
      </trkpt>
      <trkpt lat="43.36649" lon="2.9373">
        <ele>154.42895507812</ele>
        <time>2011-06-12T06:37:58Z</time>
      </trkpt>
      <trkpt lat="43.3668" lon="2.93704">
        <ele>157.31286621094</ele>
        <time>2011-06-12T06:38:18Z</time>
      </trkpt>
      <trkpt lat="43.36709" lon="2.93704">
        <ele>156.83215332031</ele>
        <time>2011-06-12T06:38:30Z</time>
      </trkpt>
      <trkpt lat="43.36728" lon="2.93757">
        <ele>154.90954589844</ele>
        <time>2011-06-12T06:38:39Z</time>
      </trkpt>
      <trkpt lat="43.36726" lon="2.93791">
        <ele>154.90954589844</ele>
        <time>2011-06-12T06:38:46Z</time>
      </trkpt>
      <trkpt lat="43.36715" lon="2.93826">
        <ele>155.39025878906</ele>
        <time>2011-06-12T06:38:53Z</time>
      </trkpt>
      <trkpt lat="43.36703" lon="2.93869">
        <ele>149.1416015625</ele>
        <time>2011-06-12T06:39:00Z</time>
      </trkpt>
      <trkpt lat="43.36716" lon="2.93873">
        <ele>150.58361816406</ele>
        <time>2011-06-12T06:39:07Z</time>
      </trkpt>
      <trkpt lat="43.36738" lon="2.93872">
        <ele>152.98693847656</ele>
        <time>2011-06-12T06:39:20Z</time>
      </trkpt>
      <trkpt lat="43.36785" lon="2.93881">
        <ele>156.83215332031</ele>
        <time>2011-06-12T06:39:45Z</time>
      </trkpt>
      <trkpt lat="43.36814" lon="2.93888">
        <ele>160.19689941406</ele>
        <time>2011-06-12T06:39:59Z</time>
      </trkpt>
      <trkpt lat="43.3683" lon="2.93882">
        <ele>165.00341796875</ele>
        <time>2011-06-12T06:40:07Z</time>
      </trkpt>
      <trkpt lat="43.36835" lon="2.93886">
        <ele>166.4453125</ele>
        <time>2011-06-12T06:40:11Z</time>
      </trkpt>
      <trkpt lat="43.3684" lon="2.93886">
        <ele>169.32946777344</ele>
        <time>2011-06-12T06:40:15Z</time>
      </trkpt>
      <trkpt lat="43.36846" lon="2.93885">
        <ele>170.77136230469</ele>
        <time>2011-06-12T06:40:19Z</time>
      </trkpt>
      <trkpt lat="43.36863" lon="2.93899">
        <ele>171.25207519531</ele>
        <time>2011-06-12T06:40:30Z</time>
      </trkpt>
      <trkpt lat="43.36875" lon="2.93904">
        <ele>174.13586425781</ele>
        <time>2011-06-12T06:40:38Z</time>
      </trkpt>
      <trkpt lat="43.36895" lon="2.93909">
        <ele>179.90380859375</ele>
        <time>2011-06-12T06:40:51Z</time>
      </trkpt>
      <trkpt lat="43.36903" lon="2.93911">
        <ele>180.865234375</ele>
        <time>2011-06-12T06:40:58Z</time>
      </trkpt>
      <trkpt lat="43.369" lon="2.93906">
        <ele>181.82641601562</ele>
        <time>2011-06-12T06:41:02Z</time>
      </trkpt>
      <trkpt lat="43.36896" lon="2.93897">
        <ele>183.7490234375</ele>
        <time>2011-06-12T06:41:08Z</time>
      </trkpt>
      <trkpt lat="43.36875" lon="2.93861">
        <ele>186.63317871094</ele>
        <time>2011-06-12T06:41:29Z</time>
      </trkpt>
      <trkpt lat="43.3686" lon="2.93823">
        <ele>189.03637695312</ele>
        <time>2011-06-12T06:41:46Z</time>
      </trkpt>
      <trkpt lat="43.36839" lon="2.93776">
        <ele>192.88171386719</ele>
        <time>2011-06-12T06:42:06Z</time>
      </trkpt>
      <trkpt lat="43.36827" lon="2.9372">
        <ele>197.68823242188</ele>
        <time>2011-06-12T06:42:27Z</time>
      </trkpt>
      <trkpt lat="43.36834" lon="2.93665">
        <ele>201.53356933594</ele>
        <time>2011-06-12T06:42:47Z</time>
      </trkpt>
      <trkpt lat="43.36869" lon="2.93647">
        <ele>205.37878417969</ele>
        <time>2011-06-12T06:43:03Z</time>
      </trkpt>
      <trkpt lat="43.36883" lon="2.93621">
        <ele>208.74340820312</ele>
        <time>2011-06-12T06:43:15Z</time>
      </trkpt>
      <trkpt lat="43.36884" lon="2.93561">
        <ele>213.55004882812</ele>
        <time>2011-06-12T06:43:34Z</time>
      </trkpt>
      <trkpt lat="43.3689" lon="2.93552">
        <ele>214.03063964844</ele>
        <time>2011-06-12T06:43:38Z</time>
      </trkpt>
      <trkpt lat="43.36918" lon="2.93529">
        <ele>216.91467285156</ele>
        <time>2011-06-12T06:43:56Z</time>
      </trkpt>
      <trkpt lat="43.36923" lon="2.93521">
        <ele>218.35656738281</ele>
        <time>2011-06-12T06:44:01Z</time>
      </trkpt>
      <trkpt lat="43.36931" lon="2.93524">
        <ele>218.83728027344</ele>
        <time>2011-06-12T06:44:17Z</time>
      </trkpt>
      <trkpt lat="43.36932" lon="2.93523">
        <ele>218.83728027344</ele>
        <time>2011-06-12T06:45:20Z</time>
      </trkpt>
      <trkpt lat="43.36945" lon="2.93527">
        <ele>219.79858398438</ele>
        <time>2011-06-12T06:45:30Z</time>
      </trkpt>
      <trkpt lat="43.36936" lon="2.93568">
        <ele>222.68249511719</ele>
        <time>2011-06-12T06:45:45Z</time>
      </trkpt>
      <trkpt lat="43.3695" lon="2.93611">
        <ele>223.64379882812</ele>
        <time>2011-06-12T06:45:59Z</time>
      </trkpt>
      <trkpt lat="43.36989" lon="2.93671">
        <ele>223.16320800781</ele>
        <time>2011-06-12T06:46:20Z</time>
      </trkpt>
      <trkpt lat="43.36999" lon="2.93718">
        <ele>223.64379882812</ele>
        <time>2011-06-12T06:46:32Z</time>
      </trkpt>
      <trkpt lat="43.37031" lon="2.93786">
        <ele>223.64379882812</ele>
        <time>2011-06-12T06:46:50Z</time>
      </trkpt>
      <trkpt lat="43.37073" lon="2.93847">
        <ele>219.79858398438</ele>
        <time>2011-06-12T06:47:04Z</time>
      </trkpt>
      <trkpt lat="43.37103" lon="2.93862">
        <ele>218.35656738281</ele>
        <time>2011-06-12T06:47:09Z</time>
      </trkpt>
      <trkpt lat="43.37215" lon="2.93878">
        <ele>211.62744140625</ele>
        <time>2011-06-12T06:47:27Z</time>
      </trkpt>
      <trkpt lat="43.37221" lon="2.93878">
        <ele>211.62744140625</ele>
        <time>2011-06-12T06:47:28Z</time>
      </trkpt>
      <trkpt lat="43.37248" lon="2.93856">
        <ele>209.70483398438</ele>
        <time>2011-06-12T06:47:34Z</time>
      </trkpt>
      <trkpt lat="43.3728" lon="2.93867">
        <ele>204.41748046875</ele>
        <time>2011-06-12T06:47:42Z</time>
      </trkpt>
      <trkpt lat="43.37329" lon="2.93948">
        <ele>194.32373046875</ele>
        <time>2011-06-12T06:47:53Z</time>
      </trkpt>
      <trkpt lat="43.37375" lon="2.93963">
        <ele>193.3623046875</ele>
        <time>2011-06-12T06:48:01Z</time>
      </trkpt>
      <trkpt lat="43.37385" lon="2.9396">
        <ele>194.32373046875</ele>
        <time>2011-06-12T06:48:03Z</time>
      </trkpt>
      <trkpt lat="43.37404" lon="2.93907">
        <ele>191.92028808594</ele>
        <time>2011-06-12T06:48:13Z</time>
      </trkpt>
      <trkpt lat="43.37398" lon="2.93884">
        <ele>190.958984375</ele>
        <time>2011-06-12T06:48:16Z</time>
      </trkpt>
      <trkpt lat="43.37363" lon="2.93809">
        <ele>186.15246582031</ele>
        <time>2011-06-12T06:48:25Z</time>
      </trkpt>
      <trkpt lat="43.37328" lon="2.93776">
        <ele>184.22985839844</ele>
        <time>2011-06-12T06:48:32Z</time>
      </trkpt>
      <trkpt lat="43.37339" lon="2.93774">
        <ele>183.26843261719</ele>
        <time>2011-06-12T06:48:37Z</time>
      </trkpt>
      <trkpt lat="43.37351" lon="2.93785">
        <ele>182.30712890625</ele>
        <time>2011-06-12T06:48:40Z</time>
      </trkpt>
      <trkpt lat="43.37415" lon="2.93854">
        <ele>175.09729003906</ele>
        <time>2011-06-12T06:48:52Z</time>
      </trkpt>
      <trkpt lat="43.37441" lon="2.93863">
        <ele>171.25207519531</ele>
        <time>2011-06-12T06:48:57Z</time>
      </trkpt>
      <trkpt lat="43.37454" lon="2.93861">
        <ele>170.77136230469</ele>
        <time>2011-06-12T06:48:59Z</time>
      </trkpt>
      <trkpt lat="43.37465" lon="2.93839">
        <ele>169.81005859375</ele>
        <time>2011-06-12T06:49:03Z</time>
      </trkpt>
      <trkpt lat="43.37485" lon="2.93827">
        <ele>166.92602539062</ele>
        <time>2011-06-12T06:49:10Z</time>
      </trkpt>
      <trkpt lat="43.37483" lon="2.93822">
        <ele>165.96472167969</ele>
        <time>2011-06-12T06:49:11Z</time>
      </trkpt>
      <trkpt lat="43.37448" lon="2.9379">
        <ele>161.63891601562</ele>
        <time>2011-06-12T06:49:17Z</time>
      </trkpt>
      <trkpt lat="43.37419" lon="2.93753">
        <ele>162.11950683594</ele>
        <time>2011-06-12T06:49:23Z</time>
      </trkpt>
      <trkpt lat="43.37383" lon="2.93681">
        <ele>165.48413085938</ele>
        <time>2011-06-12T06:49:37Z</time>
      </trkpt>
      <trkpt lat="43.37329" lon="2.93637">
        <ele>161.158203125</ele>
        <time>2011-06-12T06:49:50Z</time>
      </trkpt>
      <trkpt lat="43.37325" lon="2.93633">
        <ele>160.67749023438</ele>
        <time>2011-06-12T06:49:51Z</time>
      </trkpt>
      <trkpt lat="43.37306" lon="2.93604">
        <ele>161.158203125</ele>
        <time>2011-06-12T06:49:58Z</time>
      </trkpt>
      <trkpt lat="43.37297" lon="2.93595">
        <ele>160.67749023438</ele>
        <time>2011-06-12T06:50:02Z</time>
      </trkpt>
      <trkpt lat="43.373" lon="2.93569">
        <ele>154.90954589844</ele>
        <time>2011-06-12T06:50:09Z</time>
      </trkpt>
      <trkpt lat="43.37311" lon="2.93555">
        <ele>152.98693847656</ele>
        <time>2011-06-12T06:50:15Z</time>
      </trkpt>
      <trkpt lat="43.37319" lon="2.93542">
        <ele>152.02575683594</ele>
        <time>2011-06-12T06:50:20Z</time>
      </trkpt>
      <trkpt lat="43.37335" lon="2.93541">
        <ele>150.58361816406</ele>
        <time>2011-06-12T06:50:27Z</time>
      </trkpt>
      <trkpt lat="43.37339" lon="2.93548">
        <ele>151.06420898438</ele>
        <time>2011-06-12T06:50:29Z</time>
      </trkpt>
      <trkpt lat="43.37352" lon="2.93577">
        <ele>156.83215332031</ele>
        <time>2011-06-12T06:50:39Z</time>
      </trkpt>
      <trkpt lat="43.37364" lon="2.93583">
        <ele>155.87097167969</ele>
        <time>2011-06-12T06:50:44Z</time>
      </trkpt>
      <trkpt lat="43.3738" lon="2.93593">
        <ele>156.3515625</ele>
        <time>2011-06-12T06:50:52Z</time>
      </trkpt>
      <trkpt lat="43.37388" lon="2.93591">
        <ele>156.83215332031</ele>
        <time>2011-06-12T06:50:56Z</time>
      </trkpt>
      <trkpt lat="43.37398" lon="2.93604">
        <ele>156.3515625</ele>
        <time>2011-06-12T06:51:00Z</time>
      </trkpt>
      <trkpt lat="43.37424" lon="2.93638">
        <ele>150.58361816406</ele>
        <time>2011-06-12T06:51:08Z</time>
      </trkpt>
      <trkpt lat="43.37435" lon="2.93643">
        <ele>151.06420898438</ele>
        <time>2011-06-12T06:51:12Z</time>
      </trkpt>
      <trkpt lat="43.37442" lon="2.93647">
        <ele>151.544921875</ele>
        <time>2011-06-12T06:51:15Z</time>
      </trkpt>
      <trkpt lat="43.3745" lon="2.93666">
        <ele>153.46765136719</ele>
        <time>2011-06-12T06:51:23Z</time>
      </trkpt>
      <trkpt lat="43.37455" lon="2.93669">
        <ele>153.46765136719</ele>
        <time>2011-06-12T06:51:27Z</time>
      </trkpt>
      <trkpt lat="43.37465" lon="2.93675">
        <ele>152.98693847656</ele>
        <time>2011-06-12T06:51:32Z</time>
      </trkpt>
      <trkpt lat="43.37472" lon="2.93671">
        <ele>155.39025878906</ele>
        <time>2011-06-12T06:51:35Z</time>
      </trkpt>
      <trkpt lat="43.37473" lon="2.93663">
        <ele>154.42895507812</ele>
        <time>2011-06-12T06:51:38Z</time>
      </trkpt>
      <trkpt lat="43.37479" lon="2.93657">
        <ele>152.98693847656</ele>
        <time>2011-06-12T06:51:42Z</time>
      </trkpt>
      <trkpt lat="43.37481" lon="2.93646">
        <ele>153.94836425781</ele>
        <time>2011-06-12T06:51:46Z</time>
      </trkpt>
      <trkpt lat="43.37489" lon="2.93641">
        <ele>152.98693847656</ele>
        <time>2011-06-12T06:51:49Z</time>
      </trkpt>
      <trkpt lat="43.37491" lon="2.93634">
        <ele>153.46765136719</ele>
        <time>2011-06-12T06:51:53Z</time>
      </trkpt>
      <trkpt lat="43.37492" lon="2.9363">
        <ele>153.94836425781</ele>
        <time>2011-06-12T06:51:55Z</time>
      </trkpt>
      <trkpt lat="43.37498" lon="2.93625">
        <ele>153.94836425781</ele>
        <time>2011-06-12T06:51:58Z</time>
      </trkpt>
      <trkpt lat="43.37513" lon="2.93618">
        <ele>154.90954589844</ele>
        <time>2011-06-12T06:52:04Z</time>
      </trkpt>
      <trkpt lat="43.37526" lon="2.93621">
        <ele>155.39025878906</ele>
        <time>2011-06-12T06:52:09Z</time>
      </trkpt>
      <trkpt lat="43.37535" lon="2.93618">
        <ele>156.83215332031</ele>
        <time>2011-06-12T06:52:14Z</time>
      </trkpt>
      <trkpt lat="43.37545" lon="2.93619">
        <ele>157.31286621094</ele>
        <time>2011-06-12T06:52:18Z</time>
      </trkpt>
      <trkpt lat="43.3755" lon="2.93616">
        <ele>158.27416992188</ele>
        <time>2011-06-12T06:52:20Z</time>
      </trkpt>
      <trkpt lat="43.37566" lon="2.936">
        <ele>160.67749023438</ele>
        <time>2011-06-12T06:52:28Z</time>
      </trkpt>
      <trkpt lat="43.37572" lon="2.93597">
        <ele>161.158203125</ele>
        <time>2011-06-12T06:52:30Z</time>
      </trkpt>
      <trkpt lat="43.37581" lon="2.936">
        <ele>162.60009765625</ele>
        <time>2011-06-12T06:52:35Z</time>
      </trkpt>
      <trkpt lat="43.37584" lon="2.93599">
        <ele>160.19689941406</ele>
        <time>2011-06-12T06:52:38Z</time>
      </trkpt>
      <trkpt lat="43.37607" lon="2.93616">
        <ele>161.158203125</ele>
        <time>2011-06-12T06:52:49Z</time>
      </trkpt>
      <trkpt lat="43.3762" lon="2.93624">
        <ele>161.158203125</ele>
        <time>2011-06-12T06:52:55Z</time>
      </trkpt>
      <trkpt lat="43.37623" lon="2.93639">
        <ele>159.23547363281</ele>
        <time>2011-06-12T06:53:06Z</time>
      </trkpt>
      <trkpt lat="43.37623" lon="2.93639">
        <ele>159.23547363281</ele>
        <time>2011-06-12T06:53:37Z</time>
      </trkpt>
      <trkpt lat="43.3762" lon="2.9366">
        <ele>156.83215332031</ele>
        <time>2011-06-12T06:53:47Z</time>
      </trkpt>
      <trkpt lat="43.37614" lon="2.93683">
        <ele>155.39025878906</ele>
        <time>2011-06-12T06:54:23Z</time>
      </trkpt>
      <trkpt lat="43.37605" lon="2.9373">
        <ele>152.98693847656</ele>
        <time>2011-06-12T06:54:31Z</time>
      </trkpt>
      <trkpt lat="43.37616" lon="2.93766">
        <ele>152.02575683594</ele>
        <time>2011-06-12T06:54:38Z</time>
      </trkpt>
      <trkpt lat="43.3768" lon="2.93833">
        <ele>152.98693847656</ele>
        <time>2011-06-12T06:54:55Z</time>
      </trkpt>
      <trkpt lat="43.37679" lon="2.93858">
        <ele>151.544921875</ele>
        <time>2011-06-12T06:55:00Z</time>
      </trkpt>
      <trkpt lat="43.37674" lon="2.93871">
        <ele>151.06420898438</ele>
        <time>2011-06-12T06:55:02Z</time>
      </trkpt>
      <trkpt lat="43.37674" lon="2.93901">
        <ele>150.10302734375</ele>
        <time>2011-06-12T06:55:06Z</time>
      </trkpt>
      <trkpt lat="43.3768" lon="2.93927">
        <ele>150.58361816406</ele>
        <time>2011-06-12T06:55:11Z</time>
      </trkpt>
      <trkpt lat="43.37686" lon="2.93925">
        <ele>151.06420898438</ele>
        <time>2011-06-12T06:55:15Z</time>
      </trkpt>
      <trkpt lat="43.377" lon="2.93899">
        <ele>152.50634765625</ele>
        <time>2011-06-12T06:55:22Z</time>
      </trkpt>
      <trkpt lat="43.37715" lon="2.93892">
        <ele>153.46765136719</ele>
        <time>2011-06-12T06:55:26Z</time>
      </trkpt>
      <trkpt lat="43.37765" lon="2.93894">
        <ele>155.39025878906</ele>
        <time>2011-06-12T06:55:39Z</time>
      </trkpt>
      <trkpt lat="43.37773" lon="2.93895">
        <ele>155.39025878906</ele>
        <time>2011-06-12T06:55:41Z</time>
      </trkpt>
      <trkpt lat="43.37787" lon="2.93887">
        <ele>156.3515625</ele>
        <time>2011-06-12T06:55:45Z</time>
      </trkpt>
      <trkpt lat="43.37828" lon="2.93861">
        <ele>158.75476074219</ele>
        <time>2011-06-12T06:55:58Z</time>
      </trkpt>
      <trkpt lat="43.37889" lon="2.93858">
        <ele>161.158203125</ele>
        <time>2011-06-12T06:56:15Z</time>
      </trkpt>
      <trkpt lat="43.37918" lon="2.93877">
        <ele>161.63891601562</ele>
        <time>2011-06-12T06:56:24Z</time>
      </trkpt>
      <trkpt lat="43.37926" lon="2.93865">
        <ele>162.60009765625</ele>
        <time>2011-06-12T06:56:28Z</time>
      </trkpt>
      <trkpt lat="43.37953" lon="2.93757">
        <ele>167.40673828125</ele>
        <time>2011-06-12T06:56:54Z</time>
      </trkpt>
      <trkpt lat="43.37974" lon="2.93693">
        <ele>171.73266601562</ele>
        <time>2011-06-12T06:57:16Z</time>
      </trkpt>
      <trkpt lat="43.37989" lon="2.93664">
        <ele>175.09729003906</ele>
        <time>2011-06-12T06:57:31Z</time>
      </trkpt>
      <trkpt lat="43.38018" lon="2.93686">
        <ele>178.4619140625</ele>
        <time>2011-06-12T06:57:46Z</time>
      </trkpt>
      <trkpt lat="43.38053" lon="2.93699">
        <ele>177.98120117188</ele>
        <time>2011-06-12T06:58:00Z</time>
      </trkpt>
      <trkpt lat="43.38081" lon="2.93705">
        <ele>179.42321777344</ele>
        <time>2011-06-12T06:58:12Z</time>
      </trkpt>
      <trkpt lat="43.38117" lon="2.93715">
        <ele>181.34582519531</ele>
        <time>2011-06-12T06:58:23Z</time>
      </trkpt>
      <trkpt lat="43.38152" lon="2.93727">
        <ele>182.78784179688</ele>
        <time>2011-06-12T06:58:35Z</time>
      </trkpt>
      <trkpt lat="43.38158" lon="2.93811">
        <ele>175.09729003906</ele>
        <time>2011-06-12T06:58:45Z</time>
      </trkpt>
      <trkpt lat="43.38162" lon="2.93922">
        <ele>173.17468261719</ele>
        <time>2011-06-12T06:58:59Z</time>
      </trkpt>
      <trkpt lat="43.38182" lon="2.94059">
        <ele>170.77136230469</ele>
        <time>2011-06-12T06:59:19Z</time>
      </trkpt>
      <trkpt lat="43.38212" lon="2.94134">
        <ele>169.81005859375</ele>
        <time>2011-06-12T06:59:31Z</time>
      </trkpt>
      <trkpt lat="43.38224" lon="2.9413">
        <ele>170.29064941406</ele>
        <time>2011-06-12T06:59:35Z</time>
      </trkpt>
      <trkpt lat="43.38317" lon="2.94084">
        <ele>176.05859375</ele>
        <time>2011-06-12T07:00:02Z</time>
      </trkpt>
      <trkpt lat="43.38347" lon="2.94043">
        <ele>180.865234375</ele>
        <time>2011-06-12T07:00:18Z</time>
      </trkpt>
      <trkpt lat="43.38355" lon="2.93979">
        <ele>183.7490234375</ele>
        <time>2011-06-12T07:00:35Z</time>
      </trkpt>
      <trkpt lat="43.38381" lon="2.93942">
        <ele>187.59436035156</ele>
        <time>2011-06-12T07:00:51Z</time>
      </trkpt>
      <trkpt lat="43.38381" lon="2.93942">
        <ele>187.59436035156</ele>
        <time>2011-06-12T07:01:00Z</time>
      </trkpt>
      <trkpt lat="43.38415" lon="2.93969">
        <ele>188.55578613281</ele>
        <time>2011-06-12T07:01:14Z</time>
      </trkpt>
      <trkpt lat="43.38459" lon="2.93972">
        <ele>191.92028808594</ele>
        <time>2011-06-12T07:01:28Z</time>
      </trkpt>
      <trkpt lat="43.38494" lon="2.9396">
        <ele>195.765625</ele>
        <time>2011-06-12T07:01:42Z</time>
      </trkpt>
      <trkpt lat="43.38523" lon="2.93929">
        <ele>199.61083984375</ele>
        <time>2011-06-12T07:01:59Z</time>
      </trkpt>
      <trkpt lat="43.38556" lon="2.93893">
        <ele>202.49487304688</ele>
        <time>2011-06-12T07:02:18Z</time>
      </trkpt>
      <trkpt lat="43.38598" lon="2.93845">
        <ele>205.85949707031</ele>
        <time>2011-06-12T07:02:42Z</time>
      </trkpt>
      <trkpt lat="43.38646" lon="2.93827">
        <ele>210.18542480469</ele>
        <time>2011-06-12T07:03:03Z</time>
      </trkpt>
      <trkpt lat="43.38688" lon="2.93824">
        <ele>215.95324707031</ele>
        <time>2011-06-12T07:03:19Z</time>
      </trkpt>
      <trkpt lat="43.38725" lon="2.93826">
        <ele>218.83728027344</ele>
        <time>2011-06-12T07:03:35Z</time>
      </trkpt>
      <trkpt lat="43.38755" lon="2.9382">
        <ele>221.72119140625</ele>
        <time>2011-06-12T07:03:49Z</time>
      </trkpt>
      <trkpt lat="43.38798" lon="2.93817">
        <ele>226.52783203125</ele>
        <time>2011-06-12T07:04:07Z</time>
      </trkpt>
      <trkpt lat="43.38843" lon="2.93819">
        <ele>229.41174316406</ele>
        <time>2011-06-12T07:04:28Z</time>
      </trkpt>
      <trkpt lat="43.38883" lon="2.93827">
        <ele>234.21838378906</ele>
        <time>2011-06-12T07:04:48Z</time>
      </trkpt>
      <trkpt lat="43.38918" lon="2.93842">
        <ele>237.10229492188</ele>
        <time>2011-06-12T07:05:05Z</time>
      </trkpt>
      <trkpt lat="43.38945" lon="2.93878">
        <ele>239.02490234375</ele>
        <time>2011-06-12T07:05:20Z</time>
      </trkpt>
      <trkpt lat="43.38966" lon="2.93929">
        <ele>242.3896484375</ele>
        <time>2011-06-12T07:05:37Z</time>
      </trkpt>
      <trkpt lat="43.3898" lon="2.93975">
        <ele>244.79284667969</ele>
        <time>2011-06-12T07:05:52Z</time>
      </trkpt>
      <trkpt lat="43.38996" lon="2.94035">
        <ele>248.63818359375</ele>
        <time>2011-06-12T07:06:11Z</time>
      </trkpt>
      <trkpt lat="43.39004" lon="2.94082">
        <ele>252.96398925781</ele>
        <time>2011-06-12T07:06:26Z</time>
      </trkpt>
      <trkpt lat="43.39018" lon="2.94154">
        <ele>256.32873535156</ele>
        <time>2011-06-12T07:06:48Z</time>
      </trkpt>
      <trkpt lat="43.39031" lon="2.94202">
        <ele>257.2900390625</ele>
        <time>2011-06-12T07:06:59Z</time>
      </trkpt>
      <trkpt lat="43.39044" lon="2.94206">
        <ele>257.2900390625</ele>
        <time>2011-06-12T07:07:03Z</time>
      </trkpt>
      <trkpt lat="43.39085" lon="2.94179">
        <ele>261.61596679688</ele>
        <time>2011-06-12T07:07:17Z</time>
      </trkpt>
      <trkpt lat="43.39093" lon="2.94192">
        <ele>262.5771484375</ele>
        <time>2011-06-12T07:07:22Z</time>
      </trkpt>
      <trkpt lat="43.39124" lon="2.94262">
        <ele>262.5771484375</ele>
        <time>2011-06-12T07:07:39Z</time>
      </trkpt>
      <trkpt lat="43.39161" lon="2.94286">
        <ele>267.38391113281</ele>
        <time>2011-06-12T07:07:51Z</time>
      </trkpt>
      <trkpt lat="43.39202" lon="2.94307">
        <ele>270.74841308594</ele>
        <time>2011-06-12T07:08:05Z</time>
      </trkpt>
      <trkpt lat="43.39217" lon="2.94311">
        <ele>272.1904296875</ele>
        <time>2011-06-12T07:08:11Z</time>
      </trkpt>
      <trkpt lat="43.3922" lon="2.94295">
        <ele>273.15185546875</ele>
        <time>2011-06-12T07:08:18Z</time>
      </trkpt>
      <trkpt lat="43.39192" lon="2.94199">
        <ele>274.11303710938</ele>
        <time>2011-06-12T07:08:43Z</time>
      </trkpt>
      <trkpt lat="43.39164" lon="2.94123">
        <ele>277.47766113281</ele>
        <time>2011-06-12T07:09:06Z</time>
      </trkpt>
      <trkpt lat="43.39155" lon="2.94078">
        <ele>278.43896484375</ele>
        <time>2011-06-12T07:09:19Z</time>
      </trkpt>
      <trkpt lat="43.39136" lon="2.94007">
        <ele>278.43896484375</ele>
        <time>2011-06-12T07:09:36Z</time>
      </trkpt>
      <trkpt lat="43.39147" lon="2.93928">
        <ele>279.40026855469</ele>
        <time>2011-06-12T07:09:54Z</time>
      </trkpt>
      <trkpt lat="43.39153" lon="2.93861">
        <ele>280.36169433594</ele>
        <time>2011-06-12T07:10:03Z</time>
      </trkpt>
      <trkpt lat="43.39152" lon="2.93819">
        <ele>281.80358886719</ele>
        <time>2011-06-12T07:10:07Z</time>
      </trkpt>
      <trkpt lat="43.39116" lon="2.93706">
        <ele>280.36169433594</ele>
        <time>2011-06-12T07:10:19Z</time>
      </trkpt>
      <trkpt lat="43.39105" lon="2.93674">
        <ele>281.32299804688</ele>
        <time>2011-06-12T07:10:23Z</time>
      </trkpt>
      <trkpt lat="43.39054" lon="2.93587">
        <ele>279.880859375</ele>
        <time>2011-06-12T07:10:38Z</time>
      </trkpt>
      <trkpt lat="43.38994" lon="2.93497">
        <ele>275.55505371094</ele>
        <time>2011-06-12T07:10:55Z</time>
      </trkpt>
      <trkpt lat="43.38931" lon="2.93371">
        <ele>275.07446289062</ele>
        <time>2011-06-12T07:11:15Z</time>
      </trkpt>
      <trkpt lat="43.38925" lon="2.93358">
        <ele>274.59375</ele>
        <time>2011-06-12T07:11:18Z</time>
      </trkpt>
      <trkpt lat="43.38925" lon="2.93358">
        <ele>273.63244628906</ele>
        <time>2011-06-12T07:11:37Z</time>
      </trkpt>
      <trkpt lat="43.38925" lon="2.93358">
        <ele>273.63244628906</ele>
        <time>2011-06-12T07:12:28Z</time>
      </trkpt>
      <trkpt lat="43.38925" lon="2.93358">
        <ele>273.63244628906</ele>
        <time>2011-06-12T07:13:59Z</time>
      </trkpt>
      <trkpt lat="43.38925" lon="2.93358">
        <ele>273.63244628906</ele>
        <time>2011-06-12T07:14:29Z</time>
      </trkpt>
      <trkpt lat="43.38908" lon="2.93391">
        <ele>269.787109375</ele>
        <time>2011-06-12T07:14:39Z</time>
      </trkpt>
      <trkpt lat="43.38927" lon="2.93363">
        <ele>269.30651855469</ele>
        <time>2011-06-12T07:14:43Z</time>
      </trkpt>
      <trkpt lat="43.38923" lon="2.93355">
        <ele>268.82580566406</ele>
        <time>2011-06-12T07:14:45Z</time>
      </trkpt>
      <trkpt lat="43.38919" lon="2.93347">
        <ele>268.82580566406</ele>
        <time>2011-06-12T07:14:47Z</time>
      </trkpt>
      <trkpt lat="43.38906" lon="2.93325">
        <ele>267.86450195312</ele>
        <time>2011-06-12T07:14:51Z</time>
      </trkpt>
      <trkpt lat="43.38887" lon="2.93299">
        <ele>266.42248535156</ele>
        <time>2011-06-12T07:14:57Z</time>
      </trkpt>
      <trkpt lat="43.38837" lon="2.93362">
        <ele>263.53857421875</ele>
        <time>2011-06-12T07:15:02Z</time>
      </trkpt>
      <trkpt lat="43.38833" lon="2.93367">
        <ele>263.05786132812</ele>
        <time>2011-06-12T07:15:04Z</time>
      </trkpt>
      <trkpt lat="43.38827" lon="2.93375">
        <ele>262.5771484375</ele>
        <time>2011-06-12T07:15:08Z</time>
      </trkpt>
      <trkpt lat="43.38807" lon="2.9339">
        <ele>259.693359375</ele>
        <time>2011-06-12T07:15:14Z</time>
      </trkpt>
      <trkpt lat="43.38777" lon="2.93398">
        <ele>260.17395019531</ele>
        <time>2011-06-12T07:15:19Z</time>
      </trkpt>
      <trkpt lat="43.38763" lon="2.93389">
        <ele>260.65454101562</ele>
        <time>2011-06-12T07:15:22Z</time>
      </trkpt>
      <trkpt lat="43.38749" lon="2.93372">
        <ele>262.09655761719</ele>
        <time>2011-06-12T07:15:26Z</time>
      </trkpt>
      <trkpt lat="43.3873" lon="2.93348">
        <ele>264.98059082031</ele>
        <time>2011-06-12T07:15:33Z</time>
      </trkpt>
      <trkpt lat="43.38702" lon="2.93374">
        <ele>262.09655761719</ele>
        <time>2011-06-12T07:15:41Z</time>
      </trkpt>
      <trkpt lat="43.38672" lon="2.93403">
        <ele>259.693359375</ele>
        <time>2011-06-12T07:15:47Z</time>
      </trkpt>
      <trkpt lat="43.38641" lon="2.93439">
        <ele>257.2900390625</ele>
        <time>2011-06-12T07:15:54Z</time>
      </trkpt>
      <trkpt lat="43.38623" lon="2.93457">
        <ele>256.32873535156</ele>
        <time>2011-06-12T07:15:58Z</time>
      </trkpt>
      <trkpt lat="43.38614" lon="2.93449">
        <ele>256.80932617188</ele>
        <time>2011-06-12T07:16:02Z</time>
      </trkpt>
      <trkpt lat="43.38599" lon="2.93421">
        <ele>257.2900390625</ele>
        <time>2011-06-12T07:16:08Z</time>
      </trkpt>
      <trkpt lat="43.3859" lon="2.93403">
        <ele>257.2900390625</ele>
        <time>2011-06-12T07:16:12Z</time>
      </trkpt>
      <trkpt lat="43.38592" lon="2.93395">
        <ele>258.25134277344</ele>
        <time>2011-06-12T07:16:16Z</time>
      </trkpt>
      <trkpt lat="43.38613" lon="2.93357">
        <ele>260.65454101562</ele>
        <time>2011-06-12T07:16:31Z</time>
      </trkpt>
      <trkpt lat="43.38643" lon="2.93289">
        <ele>265.46130371094</ele>
        <time>2011-06-12T07:16:53Z</time>
      </trkpt>
      <trkpt lat="43.38666" lon="2.93243">
        <ele>268.82580566406</ele>
        <time>2011-06-12T07:17:11Z</time>
      </trkpt>
      <trkpt lat="43.38669" lon="2.93189">
        <ele>268.82580566406</ele>
        <time>2011-06-12T07:17:26Z</time>
      </trkpt>
      <trkpt lat="43.38668" lon="2.93143">
        <ele>268.82580566406</ele>
        <time>2011-06-12T07:17:36Z</time>
      </trkpt>
      <trkpt lat="43.38661" lon="2.93121">
        <ele>267.86450195312</ele>
        <time>2011-06-12T07:17:40Z</time>
      </trkpt>
      <trkpt lat="43.38604" lon="2.93031">
        <ele>266.42248535156</ele>
        <time>2011-06-12T07:17:59Z</time>
      </trkpt>
      <trkpt lat="43.38602" lon="2.93026">
        <ele>266.42248535156</ele>
        <time>2011-06-12T07:18:00Z</time>
      </trkpt>
      <trkpt lat="43.38593" lon="2.92997">
        <ele>264.98059082031</ele>
        <time>2011-06-12T07:18:05Z</time>
      </trkpt>
      <trkpt lat="43.38565" lon="2.92937">
        <ele>261.13525390625</ele>
        <time>2011-06-12T07:18:14Z</time>
      </trkpt>
      <trkpt lat="43.38552" lon="2.92942">
        <ele>259.21264648438</ele>
        <time>2011-06-12T07:18:18Z</time>
      </trkpt>
      <trkpt lat="43.38547" lon="2.92953">
        <ele>258.73193359375</ele>
        <time>2011-06-12T07:18:20Z</time>
      </trkpt>
      <trkpt lat="43.38532" lon="2.9297">
        <ele>257.2900390625</ele>
        <time>2011-06-12T07:18:24Z</time>
      </trkpt>
      <trkpt lat="43.38492" lon="2.93036">
        <ele>258.25134277344</ele>
        <time>2011-06-12T07:18:39Z</time>
      </trkpt>
      <trkpt lat="43.38488" lon="2.93069">
        <ele>257.77075195312</ele>
        <time>2011-06-12T07:18:45Z</time>
      </trkpt>
      <trkpt lat="43.38477" lon="2.93102">
        <ele>257.2900390625</ele>
        <time>2011-06-12T07:18:51Z</time>
      </trkpt>
      <trkpt lat="43.3847" lon="2.93112">
        <ele>256.80932617188</ele>
        <time>2011-06-12T07:18:55Z</time>
      </trkpt>
      <trkpt lat="43.38464" lon="2.93116">
        <ele>254.40600585938</ele>
        <time>2011-06-12T07:19:02Z</time>
      </trkpt>
      <trkpt lat="43.38434" lon="2.93072">
        <ele>251.04138183594</ele>
        <time>2011-06-12T07:19:08Z</time>
      </trkpt>
      <trkpt lat="43.38424" lon="2.93077">
        <ele>248.63818359375</ele>
        <time>2011-06-12T07:19:14Z</time>
      </trkpt>
      <trkpt lat="43.38415" lon="2.93101">
        <ele>248.15759277344</ele>
        <time>2011-06-12T07:19:20Z</time>
      </trkpt>
      <trkpt lat="43.38404" lon="2.93125">
        <ele>247.19604492188</ele>
        <time>2011-06-12T07:19:25Z</time>
      </trkpt>
      <trkpt lat="43.3838" lon="2.93158">
        <ele>243.83154296875</ele>
        <time>2011-06-12T07:19:32Z</time>
      </trkpt>
      <trkpt lat="43.38371" lon="2.93162">
        <ele>241.90893554688</ele>
        <time>2011-06-12T07:19:36Z</time>
      </trkpt>
      <trkpt lat="43.38362" lon="2.9316">
        <ele>238.54431152344</ele>
        <time>2011-06-12T07:19:42Z</time>
      </trkpt>
      <trkpt lat="43.38342" lon="2.93163">
        <ele>241.90893554688</ele>
        <time>2011-06-12T07:19:51Z</time>
      </trkpt>
      <trkpt lat="43.38332" lon="2.93161">
        <ele>243.83154296875</ele>
        <time>2011-06-12T07:19:56Z</time>
      </trkpt>
      <trkpt lat="43.38326" lon="2.93165">
        <ele>244.79284667969</ele>
        <time>2011-06-12T07:20:01Z</time>
      </trkpt>
      <trkpt lat="43.38317" lon="2.93175">
        <ele>244.31225585938</ele>
        <time>2011-06-12T07:20:06Z</time>
      </trkpt>
      <trkpt lat="43.38261" lon="2.93258">
        <ele>242.87023925781</ele>
        <time>2011-06-12T07:20:16Z</time>
      </trkpt>
      <trkpt lat="43.38255" lon="2.93248">
        <ele>242.3896484375</ele>
        <time>2011-06-12T07:20:24Z</time>
      </trkpt>
      <trkpt lat="43.38236" lon="2.93204">
        <ele>246.23486328125</ele>
        <time>2011-06-12T07:20:39Z</time>
      </trkpt>
      <trkpt lat="43.38236" lon="2.93204">
        <ele>247.19604492188</ele>
        <time>2011-06-12T07:20:43Z</time>
      </trkpt>
      <trkpt lat="43.3821" lon="2.93186">
        <ele>249.59948730469</ele>
        <time>2011-06-12T07:20:59Z</time>
      </trkpt>
      <trkpt lat="43.38185" lon="2.93127">
        <ele>251.04138183594</ele>
        <time>2011-06-12T07:21:16Z</time>
      </trkpt>
      <trkpt lat="43.38151" lon="2.93057">
        <ele>252.4833984375</ele>
        <time>2011-06-12T07:21:35Z</time>
      </trkpt>
      <trkpt lat="43.38131" lon="2.92997">
        <ele>251.04138183594</ele>
        <time>2011-06-12T07:21:50Z</time>
      </trkpt>
      <trkpt lat="43.38119" lon="2.92978">
        <ele>250.08020019531</ele>
        <time>2011-06-12T07:21:54Z</time>
      </trkpt>
      <trkpt lat="43.38107" lon="2.92968">
        <ele>250.08020019531</ele>
        <time>2011-06-12T07:21:57Z</time>
      </trkpt>
      <trkpt lat="43.38094" lon="2.92956">
        <ele>251.04138183594</ele>
        <time>2011-06-12T07:22:00Z</time>
      </trkpt>
      <trkpt lat="43.38076" lon="2.92937">
        <ele>252.96398925781</ele>
        <time>2011-06-12T07:22:05Z</time>
      </trkpt>
      <trkpt lat="43.38058" lon="2.92933">
        <ele>254.88659667969</ele>
        <time>2011-06-12T07:22:10Z</time>
      </trkpt>
      <trkpt lat="43.38051" lon="2.92938">
        <ele>255.36730957031</ele>
        <time>2011-06-12T07:22:12Z</time>
      </trkpt>
      <trkpt lat="43.38035" lon="2.92936">
        <ele>255.36730957031</ele>
        <time>2011-06-12T07:22:16Z</time>
      </trkpt>
      <trkpt lat="43.37972" lon="2.92907">
        <ele>252.96398925781</ele>
        <time>2011-06-12T07:22:32Z</time>
      </trkpt>
      <trkpt lat="43.37933" lon="2.9288">
        <ele>253.44470214844</ele>
        <time>2011-06-12T07:22:45Z</time>
      </trkpt>
      <trkpt lat="43.37933" lon="2.9288">
        <ele>252.96398925781</ele>
        <time>2011-06-12T07:23:12Z</time>
      </trkpt>
      <trkpt lat="43.37931" lon="2.92882">
        <ele>253.44470214844</ele>
        <time>2011-06-12T07:23:16Z</time>
      </trkpt>
      <trkpt lat="43.37908" lon="2.92913">
        <ele>253.92541503906</ele>
        <time>2011-06-12T07:23:27Z</time>
      </trkpt>
      <trkpt lat="43.37903" lon="2.92926">
        <ele>253.44470214844</ele>
        <time>2011-06-12T07:23:30Z</time>
      </trkpt>
      <trkpt lat="43.37908" lon="2.92933">
        <ele>253.44470214844</ele>
        <time>2011-06-12T07:23:34Z</time>
      </trkpt>
      <trkpt lat="43.37915" lon="2.92942">
        <ele>252.96398925781</ele>
        <time>2011-06-12T07:23:37Z</time>
      </trkpt>
      <trkpt lat="43.37925" lon="2.9295">
        <ele>252.4833984375</ele>
        <time>2011-06-12T07:23:41Z</time>
      </trkpt>
      <trkpt lat="43.37928" lon="2.92966">
        <ele>251.52209472656</ele>
        <time>2011-06-12T07:23:45Z</time>
      </trkpt>
      <trkpt lat="43.3793" lon="2.92975">
        <ele>250.08020019531</ele>
        <time>2011-06-12T07:23:47Z</time>
      </trkpt>
      <trkpt lat="43.37913" lon="2.92993">
        <ele>249.11877441406</ele>
        <time>2011-06-12T07:23:55Z</time>
      </trkpt>
      <trkpt lat="43.37908" lon="2.92993">
        <ele>250.08020019531</ele>
        <time>2011-06-12T07:23:59Z</time>
      </trkpt>
      <trkpt lat="43.37907" lon="2.92998">
        <ele>250.08020019531</ele>
        <time>2011-06-12T07:24:02Z</time>
      </trkpt>
      <trkpt lat="43.37899" lon="2.92998">
        <ele>249.59948730469</ele>
        <time>2011-06-12T07:24:06Z</time>
      </trkpt>
      <trkpt lat="43.37891" lon="2.93006">
        <ele>250.08020019531</ele>
        <time>2011-06-12T07:24:10Z</time>
      </trkpt>
      <trkpt lat="43.37879" lon="2.93024">
        <ele>250.56079101562</ele>
        <time>2011-06-12T07:24:17Z</time>
      </trkpt>
      <trkpt lat="43.37874" lon="2.93027">
        <ele>251.04138183594</ele>
        <time>2011-06-12T07:24:20Z</time>
      </trkpt>
      <trkpt lat="43.37866" lon="2.93045">
        <ele>251.04138183594</ele>
        <time>2011-06-12T07:24:26Z</time>
      </trkpt>
      <trkpt lat="43.37872" lon="2.93066">
        <ele>249.59948730469</ele>
        <time>2011-06-12T07:24:31Z</time>
      </trkpt>
      <trkpt lat="43.37872" lon="2.93083">
        <ele>249.11877441406</ele>
        <time>2011-06-12T07:24:35Z</time>
      </trkpt>
      <trkpt lat="43.37867" lon="2.93096">
        <ele>248.15759277344</ele>
        <time>2011-06-12T07:24:39Z</time>
      </trkpt>
      <trkpt lat="43.37872" lon="2.93112">
        <ele>248.63818359375</ele>
        <time>2011-06-12T07:24:47Z</time>
      </trkpt>
      <trkpt lat="43.37887" lon="2.93116">
        <ele>248.15759277344</ele>
        <time>2011-06-12T07:24:59Z</time>
      </trkpt>
      <trkpt lat="43.37895" lon="2.9312">
        <ele>247.19604492188</ele>
        <time>2011-06-12T07:25:08Z</time>
      </trkpt>
      <trkpt lat="43.37908" lon="2.93136">
        <ele>242.87023925781</ele>
        <time>2011-06-12T07:25:16Z</time>
      </trkpt>
      <trkpt lat="43.3792" lon="2.93144">
        <ele>239.98620605469</ele>
        <time>2011-06-12T07:25:24Z</time>
      </trkpt>
      <trkpt lat="43.37919" lon="2.93157">
        <ele>237.58288574219</ele>
        <time>2011-06-12T07:25:30Z</time>
      </trkpt>
      <trkpt lat="43.37908" lon="2.93169">
        <ele>237.10229492188</ele>
        <time>2011-06-12T07:25:41Z</time>
      </trkpt>
      <trkpt lat="43.37902" lon="2.93183">
        <ele>235.66027832031</ele>
        <time>2011-06-12T07:25:50Z</time>
      </trkpt>
      <trkpt lat="43.37898" lon="2.93205">
        <ele>234.69909667969</ele>
        <time>2011-06-12T07:26:07Z</time>
      </trkpt>
      <trkpt lat="43.37895" lon="2.93227">
        <ele>229.89233398438</ele>
        <time>2011-06-12T07:26:15Z</time>
      </trkpt>
      <trkpt lat="43.37895" lon="2.9323">
        <ele>228.93115234375</ele>
        <time>2011-06-12T07:26:25Z</time>
      </trkpt>
      <trkpt lat="43.37899" lon="2.93249">
        <ele>225.0859375</ele>
        <time>2011-06-12T07:26:31Z</time>
      </trkpt>
      <trkpt lat="43.37894" lon="2.93263">
        <ele>222.20178222656</ele>
        <time>2011-06-12T07:26:38Z</time>
      </trkpt>
      <trkpt lat="43.37893" lon="2.93276">
        <ele>220.27917480469</ele>
        <time>2011-06-12T07:26:42Z</time>
      </trkpt>
      <trkpt lat="43.37889" lon="2.93288">
        <ele>214.51123046875</ele>
        <time>2011-06-12T07:26:47Z</time>
      </trkpt>
      <trkpt lat="43.37886" lon="2.93295">
        <ele>212.58862304688</ele>
        <time>2011-06-12T07:26:51Z</time>
      </trkpt>
      <trkpt lat="43.37884" lon="2.93308">
        <ele>207.78210449219</ele>
        <time>2011-06-12T07:26:55Z</time>
      </trkpt>
      <trkpt lat="43.37885" lon="2.93317">
        <ele>205.85949707031</ele>
        <time>2011-06-12T07:26:58Z</time>
      </trkpt>
      <trkpt lat="43.3788" lon="2.93325">
        <ele>202.97546386719</ele>
        <time>2011-06-12T07:27:02Z</time>
      </trkpt>
      <trkpt lat="43.37874" lon="2.93327">
        <ele>201.53356933594</ele>
        <time>2011-06-12T07:27:04Z</time>
      </trkpt>
      <trkpt lat="43.37861" lon="2.93333">
        <ele>197.68823242188</ele>
        <time>2011-06-12T07:27:07Z</time>
      </trkpt>
      <trkpt lat="43.37843" lon="2.93327">
        <ele>195.765625</ele>
        <time>2011-06-12T07:27:11Z</time>
      </trkpt>
      <trkpt lat="43.37824" lon="2.93341">
        <ele>191.43957519531</ele>
        <time>2011-06-12T07:27:16Z</time>
      </trkpt>
      <trkpt lat="43.37795" lon="2.93347">
        <ele>184.22985839844</ele>
        <time>2011-06-12T07:27:22Z</time>
      </trkpt>
      <trkpt lat="43.37773" lon="2.93336">
        <ele>180.38452148438</ele>
        <time>2011-06-12T07:27:26Z</time>
      </trkpt>
      <trkpt lat="43.37763" lon="2.93358">
        <ele>178.94262695312</ele>
        <time>2011-06-12T07:27:33Z</time>
      </trkpt>
      <trkpt lat="43.37756" lon="2.93364">
        <ele>179.90380859375</ele>
        <time>2011-06-12T07:27:35Z</time>
      </trkpt>
      <trkpt lat="43.37688" lon="2.93395">
        <ele>178.4619140625</ele>
        <time>2011-06-12T07:27:40Z</time>
      </trkpt>
      <trkpt lat="43.37699" lon="2.93397">
        <ele>171.73266601562</ele>
        <time>2011-06-12T07:27:49Z</time>
      </trkpt>
      <trkpt lat="43.37699" lon="2.93397">
        <ele>170.77136230469</ele>
        <time>2011-06-12T07:27:53Z</time>
      </trkpt>
      <trkpt lat="43.37691" lon="2.93393">
        <ele>167.88732910156</ele>
        <time>2011-06-12T07:28:07Z</time>
      </trkpt>
      <trkpt lat="43.37689" lon="2.93391">
        <ele>166.4453125</ele>
        <time>2011-06-12T07:28:23Z</time>
      </trkpt>
      <trkpt lat="43.37688" lon="2.93385">
        <ele>166.92602539062</ele>
        <time>2011-06-12T07:28:42Z</time>
      </trkpt>
      <trkpt lat="43.37687" lon="2.93385">
        <ele>167.40673828125</ele>
        <time>2011-06-12T07:29:11Z</time>
      </trkpt>
      <trkpt lat="43.37663" lon="2.93348">
        <ele>168.36804199219</ele>
        <time>2011-06-12T07:29:27Z</time>
      </trkpt>
      <trkpt lat="43.37634" lon="2.93294">
        <ele>170.77136230469</ele>
        <time>2011-06-12T07:29:45Z</time>
      </trkpt>
      <trkpt lat="43.37641" lon="2.93251">
        <ele>175.09729003906</ele>
        <time>2011-06-12T07:29:59Z</time>
      </trkpt>
      <trkpt lat="43.37651" lon="2.93205">
        <ele>179.90380859375</ele>
        <time>2011-06-12T07:30:18Z</time>
      </trkpt>
      <trkpt lat="43.37629" lon="2.93182">
        <ele>181.82641601562</ele>
        <time>2011-06-12T07:30:31Z</time>
      </trkpt>
      <trkpt lat="43.37605" lon="2.93164">
        <ele>185.67175292969</ele>
        <time>2011-06-12T07:30:46Z</time>
      </trkpt>
      <trkpt lat="43.37581" lon="2.9315">
        <ele>186.63317871094</ele>
        <time>2011-06-12T07:30:58Z</time>
      </trkpt>
      <trkpt lat="43.37545" lon="2.93148">
        <ele>186.63317871094</ele>
        <time>2011-06-12T07:31:11Z</time>
      </trkpt>
      <trkpt lat="43.37543" lon="2.93149">
        <ele>186.63317871094</ele>
        <time>2011-06-12T07:31:12Z</time>
      </trkpt>
      <trkpt lat="43.37516" lon="2.93142">
        <ele>183.7490234375</ele>
        <time>2011-06-12T07:31:22Z</time>
      </trkpt>
      <trkpt lat="43.37504" lon="2.93146">
        <ele>181.82641601562</ele>
        <time>2011-06-12T07:31:27Z</time>
      </trkpt>
      <trkpt lat="43.37479" lon="2.93153">
        <ele>170.77136230469</ele>
        <time>2011-06-12T07:31:37Z</time>
      </trkpt>
      <trkpt lat="43.37476" lon="2.93157">
        <ele>168.36804199219</ele>
        <time>2011-06-12T07:31:40Z</time>
      </trkpt>
      <trkpt lat="43.37473" lon="2.9316">
        <ele>167.40673828125</ele>
        <time>2011-06-12T07:31:42Z</time>
      </trkpt>
      <trkpt lat="43.37469" lon="2.93185">
        <ele>166.4453125</ele>
        <time>2011-06-12T07:31:49Z</time>
      </trkpt>
      <trkpt lat="43.37471" lon="2.93201">
        <ele>165.96472167969</ele>
        <time>2011-06-12T07:31:52Z</time>
      </trkpt>
      <trkpt lat="43.37485" lon="2.93222">
        <ele>167.40673828125</ele>
        <time>2011-06-12T07:31:57Z</time>
      </trkpt>
      <trkpt lat="43.37521" lon="2.93259">
        <ele>169.81005859375</ele>
        <time>2011-06-12T07:32:10Z</time>
      </trkpt>
      <trkpt lat="43.37517" lon="2.93289">
        <ele>169.32946777344</ele>
        <time>2011-06-12T07:32:16Z</time>
      </trkpt>
      <trkpt lat="43.37513" lon="2.93336">
        <ele>167.88732910156</ele>
        <time>2011-06-12T07:32:24Z</time>
      </trkpt>
      <trkpt lat="43.37509" lon="2.93344">
        <ele>165.96472167969</ele>
        <time>2011-06-12T07:32:27Z</time>
      </trkpt>
      <trkpt lat="43.37512" lon="2.93354">
        <ele>164.04211425781</ele>
        <time>2011-06-12T07:32:31Z</time>
      </trkpt>
      <trkpt lat="43.37512" lon="2.9337">
        <ele>164.04211425781</ele>
        <time>2011-06-12T07:32:34Z</time>
      </trkpt>
      <trkpt lat="43.37503" lon="2.93382">
        <ele>161.63891601562</ele>
        <time>2011-06-12T07:32:38Z</time>
      </trkpt>
      <trkpt lat="43.37494" lon="2.93388">
        <ele>160.67749023438</ele>
        <time>2011-06-12T07:32:24Z</time>
      </trkpt>
      <trkpt lat="43.37487" lon="2.93395">
        <ele>160.19689941406</ele>
        <time>2011-06-12T07:32:28Z</time>
      </trkpt>
      <trkpt lat="43.37471" lon="2.93422">
        <ele>158.27416992188</ele>
        <time>2011-06-12T07:32:37Z</time>
      </trkpt>
      <trkpt lat="43.37458" lon="2.93442">
        <ele>155.87097167969</ele>
        <time>2011-06-12T07:32:41Z</time>
      </trkpt>
      <trkpt lat="43.37424" lon="2.93447">
        <ele>152.50634765625</ele>
        <time>2011-06-12T07:32:48Z</time>
      </trkpt>
      <trkpt lat="43.37412" lon="2.93441">
        <ele>152.02575683594</ele>
        <time>2011-06-12T07:32:50Z</time>
      </trkpt>
      <trkpt lat="43.37382" lon="2.93436">
        <ele>148.18041992188</ele>
        <time>2011-06-12T07:32:55Z</time>
      </trkpt>
      <trkpt lat="43.37372" lon="2.93429">
        <ele>148.18041992188</ele>
        <time>2011-06-12T07:32:57Z</time>
      </trkpt>
      <trkpt lat="43.37339" lon="2.93401">
        <ele>148.18041992188</ele>
        <time>2011-06-12T07:33:04Z</time>
      </trkpt>
      <trkpt lat="43.37326" lon="2.93383">
        <ele>147.21899414062</ele>
        <time>2011-06-12T07:33:07Z</time>
      </trkpt>
      <trkpt lat="43.373" lon="2.93357">
        <ele>145.29638671875</ele>
        <time>2011-06-12T07:33:12Z</time>
      </trkpt>
      <trkpt lat="43.37271" lon="2.93317">
        <ele>148.66101074219</ele>
        <time>2011-06-12T07:33:20Z</time>
      </trkpt>
      <trkpt lat="43.37257" lon="2.93306">
        <ele>148.66101074219</ele>
        <time>2011-06-12T07:33:23Z</time>
      </trkpt>
      <trkpt lat="43.37242" lon="2.93295">
        <ele>147.21899414062</ele>
        <time>2011-06-12T07:33:26Z</time>
      </trkpt>
      <trkpt lat="43.37221" lon="2.93258">
        <ele>147.21899414062</ele>
        <time>2011-06-12T07:33:32Z</time>
      </trkpt>
      <trkpt lat="43.37163" lon="2.93203">
        <ele>145.77709960938</ele>
        <time>2011-06-12T07:33:44Z</time>
      </trkpt>
      <trkpt lat="43.37104" lon="2.93164">
        <ele>141.93176269531</ele>
        <time>2011-06-12T07:33:54Z</time>
      </trkpt>
      <trkpt lat="43.37085" lon="2.9313">
        <ele>139.52844238281</ele>
        <time>2011-06-12T07:33:59Z</time>
      </trkpt>
      <trkpt lat="43.37084" lon="2.93101">
        <ele>137.60583496094</ele>
        <time>2011-06-12T07:34:02Z</time>
      </trkpt>
      <trkpt lat="43.37077" lon="2.93065">
        <ele>136.64465332031</ele>
        <time>2011-06-12T07:34:06Z</time>
      </trkpt>
      <trkpt lat="43.37071" lon="2.93041">
        <ele>137.60583496094</ele>
        <time>2011-06-12T07:34:09Z</time>
      </trkpt>
      <trkpt lat="43.37067" lon="2.93012">
        <ele>138.08654785156</ele>
        <time>2011-06-12T07:34:13Z</time>
      </trkpt>
      <trkpt lat="43.3704" lon="2.92992">
        <ele>138.08654785156</ele>
        <time>2011-06-12T07:34:19Z</time>
      </trkpt>
      <trkpt lat="43.36972" lon="2.92941">
        <ele>136.16394042969</ele>
        <time>2011-06-12T07:34:31Z</time>
      </trkpt>
      <trkpt lat="43.36968" lon="2.92937">
        <ele>136.16394042969</ele>
        <time>2011-06-12T07:34:32Z</time>
      </trkpt>
      <trkpt lat="43.36957" lon="2.92921">
        <ele>135.68310546875</ele>
        <time>2011-06-12T07:34:41Z</time>
      </trkpt>
      <trkpt lat="43.36957" lon="2.92921">
        <ele>135.20251464844</ele>
        <time>2011-06-12T07:35:02Z</time>
      </trkpt>
      <trkpt lat="43.36928" lon="2.92901">
        <ele>132.79931640625</ele>
        <time>2011-06-12T07:35:13Z</time>
      </trkpt>
      <trkpt lat="43.36918" lon="2.92891">
        <ele>132.79931640625</ele>
        <time>2011-06-12T07:35:16Z</time>
      </trkpt>
      <trkpt lat="43.3686" lon="2.92822">
        <ele>135.20251464844</ele>
        <time>2011-06-12T07:35:32Z</time>
      </trkpt>
      <trkpt lat="43.3685" lon="2.92808">
        <ele>136.64465332031</ele>
        <time>2011-06-12T07:35:36Z</time>
      </trkpt>
      <trkpt lat="43.36811" lon="2.9272">
        <ele>133.76049804688</ele>
        <time>2011-06-12T07:35:49Z</time>
      </trkpt>
      <trkpt lat="43.36796" lon="2.92694">
        <ele>133.76049804688</ele>
        <time>2011-06-12T07:35:53Z</time>
      </trkpt>
      <trkpt lat="43.36771" lon="2.9268">
        <ele>132.79931640625</ele>
        <time>2011-06-12T07:35:57Z</time>
      </trkpt>
      <trkpt lat="43.36751" lon="2.92662">
        <ele>133.27990722656</ele>
        <time>2011-06-12T07:36:01Z</time>
      </trkpt>
      <trkpt lat="43.36698" lon="2.92635">
        <ele>129.91528320312</ele>
        <time>2011-06-12T07:36:10Z</time>
      </trkpt>
      <trkpt lat="43.36673" lon="2.92635">
        <ele>128.9541015625</ele>
        <time>2011-06-12T07:36:14Z</time>
      </trkpt>
      <trkpt lat="43.36644" lon="2.9262">
        <ele>126.06994628906</ele>
        <time>2011-06-12T07:36:19Z</time>
      </trkpt>
      <trkpt lat="43.36621" lon="2.92601">
        <ele>124.62805175781</ele>
        <time>2011-06-12T07:36:24Z</time>
      </trkpt>
      <trkpt lat="43.36609" lon="2.92558">
        <ele>128.47338867188</ele>
        <time>2011-06-12T07:36:35Z</time>
      </trkpt>
      <trkpt lat="43.36624" lon="2.92548">
        <ele>129.43469238281</ele>
        <time>2011-06-12T07:36:40Z</time>
      </trkpt>
      <trkpt lat="43.36623" lon="2.92526">
        <ele>129.43469238281</ele>
        <time>2011-06-12T07:36:45Z</time>
      </trkpt>
      <trkpt lat="43.36589" lon="2.92489">
        <ele>135.20251464844</ele>
        <time>2011-06-12T07:37:02Z</time>
      </trkpt>
      <trkpt lat="43.3656" lon="2.92462">
        <ele>139.52844238281</ele>
        <time>2011-06-12T07:37:17Z</time>
      </trkpt>
      <trkpt lat="43.36521" lon="2.92437">
        <ele>144.33520507812</ele>
        <time>2011-06-12T07:37:35Z</time>
      </trkpt>
      <trkpt lat="43.36489" lon="2.92411">
        <ele>149.1416015625</ele>
        <time>2011-06-12T07:37:51Z</time>
      </trkpt>
      <trkpt lat="43.36499" lon="2.92384">
        <ele>151.544921875</ele>
        <time>2011-06-12T07:38:01Z</time>
      </trkpt>
      <trkpt lat="43.36529" lon="2.9235">
        <ele>153.46765136719</ele>
        <time>2011-06-12T07:38:15Z</time>
      </trkpt>
      <trkpt lat="43.3652" lon="2.92308">
        <ele>155.39025878906</ele>
        <time>2011-06-12T07:38:46Z</time>
      </trkpt>
      <trkpt lat="43.36502" lon="2.92262">
        <ele>159.71618652344</ele>
        <time>2011-06-12T07:39:03Z</time>
      </trkpt>
      <trkpt lat="43.36463" lon="2.92221">
        <ele>166.92602539062</ele>
        <time>2011-06-12T07:39:19Z</time>
      </trkpt>
      <trkpt lat="43.36448" lon="2.92177">
        <ele>169.32946777344</ele>
        <time>2011-06-12T07:39:33Z</time>
      </trkpt>
      <trkpt lat="43.36449" lon="2.9216">
        <ele>169.32946777344</ele>
        <time>2011-06-12T07:39:38Z</time>
      </trkpt>
      <trkpt lat="43.36446" lon="2.92127">
        <ele>173.6552734375</ele>
        <time>2011-06-12T07:39:48Z</time>
      </trkpt>
      <trkpt lat="43.36433" lon="2.92104">
        <ele>174.61657714844</ele>
        <time>2011-06-12T07:39:57Z</time>
      </trkpt>
      <trkpt lat="43.36407" lon="2.92069">
        <ele>185.67175292969</ele>
        <time>2011-06-12T07:40:15Z</time>
      </trkpt>
      <trkpt lat="43.36392" lon="2.92025">
        <ele>187.11376953125</ele>
        <time>2011-06-12T07:40:34Z</time>
      </trkpt>
      <trkpt lat="43.36387" lon="2.91982">
        <ele>191.92028808594</ele>
        <time>2011-06-12T07:40:47Z</time>
      </trkpt>
      <trkpt lat="43.36384" lon="2.91977">
        <ele>192.40112304688</ele>
        <time>2011-06-12T07:40:49Z</time>
      </trkpt>
      <trkpt lat="43.36352" lon="2.91957">
        <ele>195.765625</ele>
        <time>2011-06-12T07:41:05Z</time>
      </trkpt>
      <trkpt lat="43.36333" lon="2.91939">
        <ele>197.68823242188</ele>
        <time>2011-06-12T07:41:17Z</time>
      </trkpt>
      <trkpt lat="43.36309" lon="2.91897">
        <ele>203.93688964844</ele>
        <time>2011-06-12T07:41:36Z</time>
      </trkpt>
      <trkpt lat="43.36303" lon="2.91852">
        <ele>203.45617675781</ele>
        <time>2011-06-12T07:41:49Z</time>
      </trkpt>
      <trkpt lat="43.36322" lon="2.91809">
        <ele>206.82067871094</ele>
        <time>2011-06-12T07:42:05Z</time>
      </trkpt>
      <trkpt lat="43.36362" lon="2.91813">
        <ele>213.0693359375</ele>
        <time>2011-06-12T07:42:23Z</time>
      </trkpt>
      <trkpt lat="43.36411" lon="2.91831">
        <ele>214.51123046875</ele>
        <time>2011-06-12T07:42:39Z</time>
      </trkpt>
      <trkpt lat="43.36444" lon="2.91842">
        <ele>214.51123046875</ele>
        <time>2011-06-12T07:42:48Z</time>
      </trkpt>
      <trkpt lat="43.36489" lon="2.91878">
        <ele>217.39538574219</ele>
        <time>2011-06-12T07:43:02Z</time>
      </trkpt>
      <trkpt lat="43.36548" lon="2.91938">
        <ele>221.72119140625</ele>
        <time>2011-06-12T07:43:24Z</time>
      </trkpt>
      <trkpt lat="43.36614" lon="2.91989">
        <ele>223.16320800781</ele>
        <time>2011-06-12T07:43:46Z</time>
      </trkpt>
      <trkpt lat="43.36664" lon="2.92049">
        <ele>224.12451171875</ele>
        <time>2011-06-12T07:44:05Z</time>
      </trkpt>
      <trkpt lat="43.36705" lon="2.92063">
        <ele>227.48913574219</ele>
        <time>2011-06-12T07:44:20Z</time>
      </trkpt>
      <trkpt lat="43.36773" lon="2.92069">
        <ele>228.93115234375</ele>
        <time>2011-06-12T07:44:40Z</time>
      </trkpt>
      <trkpt lat="43.36829" lon="2.92114">
        <ele>232.29577636719</ele>
        <time>2011-06-12T07:44:57Z</time>
      </trkpt>
      <trkpt lat="43.36864" lon="2.92184">
        <ele>231.81494140625</ele>
        <time>2011-06-12T07:45:13Z</time>
      </trkpt>
      <trkpt lat="43.36895" lon="2.92244">
        <ele>231.33435058594</ele>
        <time>2011-06-12T07:45:29Z</time>
      </trkpt>
      <trkpt lat="43.36941" lon="2.9229">
        <ele>232.29577636719</ele>
        <time>2011-06-12T07:45:47Z</time>
      </trkpt>
      <trkpt lat="43.36989" lon="2.9231">
        <ele>235.66027832031</ele>
        <time>2011-06-12T07:46:05Z</time>
      </trkpt>
      <trkpt lat="43.3705" lon="2.92338">
        <ele>238.06359863281</ele>
        <time>2011-06-12T07:46:27Z</time>
      </trkpt>
      <trkpt lat="43.37106" lon="2.92388">
        <ele>238.54431152344</ele>
        <time>2011-06-12T07:46:43Z</time>
      </trkpt>
      <trkpt lat="43.37114" lon="2.92394">
        <ele>238.06359863281</ele>
        <time>2011-06-12T07:46:45Z</time>
      </trkpt>
      <trkpt lat="43.37133" lon="2.92403">
        <ele>238.06359863281</ele>
        <time>2011-06-12T07:46:54Z</time>
      </trkpt>
      <trkpt lat="43.37133" lon="2.92403">
        <ele>238.06359863281</ele>
        <time>2011-06-12T07:50:18Z</time>
      </trkpt>
      <trkpt lat="43.37166" lon="2.92394">
        <ele>236.14099121094</ele>
        <time>2011-06-12T07:50:30Z</time>
      </trkpt>
      <trkpt lat="43.37177" lon="2.92386">
        <ele>235.1796875</ele>
        <time>2011-06-12T07:50:33Z</time>
      </trkpt>
      <trkpt lat="43.37195" lon="2.92378">
        <ele>234.69909667969</ele>
        <time>2011-06-12T07:50:37Z</time>
      </trkpt>
      <trkpt lat="43.37236" lon="2.92403">
        <ele>232.29577636719</ele>
        <time>2011-06-12T07:50:47Z</time>
      </trkpt>
      <trkpt lat="43.37236" lon="2.92421">
        <ele>230.85375976562</ele>
        <time>2011-06-12T07:50:49Z</time>
      </trkpt>
      <trkpt lat="43.37235" lon="2.92437">
        <ele>229.41174316406</ele>
        <time>2011-06-12T07:50:51Z</time>
      </trkpt>
      <trkpt lat="43.37249" lon="2.9246">
        <ele>229.41174316406</ele>
        <time>2011-06-12T07:50:56Z</time>
      </trkpt>
      <trkpt lat="43.37284" lon="2.92487">
        <ele>231.33435058594</ele>
        <time>2011-06-12T07:51:04Z</time>
      </trkpt>
      <trkpt lat="43.37327" lon="2.9251">
        <ele>239.02490234375</ele>
        <time>2011-06-12T07:51:19Z</time>
      </trkpt>
      <trkpt lat="43.37371" lon="2.9255">
        <ele>243.83154296875</ele>
        <time>2011-06-12T07:51:40Z</time>
      </trkpt>
      <trkpt lat="43.37402" lon="2.92565">
        <ele>247.19604492188</ele>
        <time>2011-06-12T07:51:53Z</time>
      </trkpt>
      <trkpt lat="43.37469" lon="2.92594">
        <ele>249.11877441406</ele>
        <time>2011-06-12T07:52:17Z</time>
      </trkpt>
      <trkpt lat="43.37533" lon="2.92631">
        <ele>249.59948730469</ele>
        <time>2011-06-12T07:52:37Z</time>
      </trkpt>
      <trkpt lat="43.37588" lon="2.92658">
        <ele>251.52209472656</ele>
        <time>2011-06-12T07:52:52Z</time>
      </trkpt>
      <trkpt lat="43.37633" lon="2.92709">
        <ele>252.96398925781</ele>
        <time>2011-06-12T07:53:08Z</time>
      </trkpt>
      <trkpt lat="43.3768" lon="2.92773">
        <ele>250.56079101562</ele>
        <time>2011-06-12T07:53:19Z</time>
      </trkpt>
      <trkpt lat="43.37691" lon="2.92782">
        <ele>250.56079101562</ele>
        <time>2011-06-12T07:53:21Z</time>
      </trkpt>
      <trkpt lat="43.37744" lon="2.92779">
        <ele>249.11877441406</ele>
        <time>2011-06-12T07:53:30Z</time>
      </trkpt>
      <trkpt lat="43.37749" lon="2.92762">
        <ele>249.59948730469</ele>
        <time>2011-06-12T07:53:32Z</time>
      </trkpt>
      <trkpt lat="43.37785" lon="2.92688">
        <ele>250.08020019531</ele>
        <time>2011-06-12T07:53:45Z</time>
      </trkpt>
      <trkpt lat="43.37803" lon="2.9267">
        <ele>247.6767578125</ele>
        <time>2011-06-12T07:53:50Z</time>
      </trkpt>
      <trkpt lat="43.37822" lon="2.92663">
        <ele>248.15759277344</ele>
        <time>2011-06-12T07:53:55Z</time>
      </trkpt>
      <trkpt lat="43.3785" lon="2.92646">
        <ele>245.75415039062</ele>
        <time>2011-06-12T07:54:03Z</time>
      </trkpt>
      <trkpt lat="43.37871" lon="2.92622">
        <ele>242.87023925781</ele>
        <time>2011-06-12T07:54:08Z</time>
      </trkpt>
      <trkpt lat="43.37902" lon="2.92576">
        <ele>237.10229492188</ele>
        <time>2011-06-12T07:54:16Z</time>
      </trkpt>
      <trkpt lat="43.37889" lon="2.92568">
        <ele>235.1796875</ele>
        <time>2011-06-12T07:54:21Z</time>
      </trkpt>
      <trkpt lat="43.37841" lon="2.92527">
        <ele>230.373046875</ele>
        <time>2011-06-12T07:54:30Z</time>
      </trkpt>
      <trkpt lat="43.37818" lon="2.925">
        <ele>227.9697265625</ele>
        <time>2011-06-12T07:54:34Z</time>
      </trkpt>
      <trkpt lat="43.37732" lon="2.92429">
        <ele>221.24060058594</ele>
        <time>2011-06-12T07:54:47Z</time>
      </trkpt>
      <trkpt lat="43.37699" lon="2.92427">
        <ele>218.83728027344</ele>
        <time>2011-06-12T07:54:52Z</time>
      </trkpt>
      <trkpt lat="43.37673" lon="2.92456">
        <ele>215.47265625</ele>
        <time>2011-06-12T07:54:58Z</time>
      </trkpt>
      <trkpt lat="43.37666" lon="2.92471">
        <ele>214.99194335938</ele>
        <time>2011-06-12T07:55:00Z</time>
      </trkpt>
      <trkpt lat="43.37617" lon="2.92512">
        <ele>211.62744140625</ele>
        <time>2011-06-12T07:55:08Z</time>
      </trkpt>
      <trkpt lat="43.37604" lon="2.92504">
        <ele>211.14672851562</ele>
        <time>2011-06-12T07:55:10Z</time>
      </trkpt>
      <trkpt lat="43.37509" lon="2.9247">
        <ele>203.93688964844</ele>
        <time>2011-06-12T07:55:23Z</time>
      </trkpt>
      <trkpt lat="43.37501" lon="2.9247">
        <ele>203.45617675781</ele>
        <time>2011-06-12T07:55:24Z</time>
      </trkpt>
      <trkpt lat="43.37469" lon="2.92425">
        <ele>200.572265625</ele>
        <time>2011-06-12T07:55:31Z</time>
      </trkpt>
      <trkpt lat="43.37464" lon="2.92368">
        <ele>197.68823242188</ele>
        <time>2011-06-12T07:55:36Z</time>
      </trkpt>
      <trkpt lat="43.37455" lon="2.92336">
        <ele>196.24633789062</ele>
        <time>2011-06-12T07:55:39Z</time>
      </trkpt>
      <trkpt lat="43.3745" lon="2.923">
        <ele>194.80432128906</ele>
        <time>2011-06-12T07:55:42Z</time>
      </trkpt>
      <trkpt lat="43.3741" lon="2.92236">
        <ele>188.55578613281</ele>
        <time>2011-06-12T07:55:51Z</time>
      </trkpt>
      <trkpt lat="43.37402" lon="2.92234">
        <ele>187.59436035156</ele>
        <time>2011-06-12T07:55:52Z</time>
      </trkpt>
      <trkpt lat="43.37317" lon="2.92196">
        <ele>186.63317871094</ele>
        <time>2011-06-12T07:56:05Z</time>
      </trkpt>
      <trkpt lat="43.37305" lon="2.92187">
        <ele>183.7490234375</ele>
        <time>2011-06-12T07:56:07Z</time>
      </trkpt>
      <trkpt lat="43.37291" lon="2.92177">
        <ele>181.34582519531</ele>
        <time>2011-06-12T07:56:11Z</time>
      </trkpt>
      <trkpt lat="43.37302" lon="2.92167">
        <ele>179.42321777344</ele>
        <time>2011-06-12T07:56:15Z</time>
      </trkpt>
      <trkpt lat="43.37334" lon="2.92159">
        <ele>178.94262695312</ele>
        <time>2011-06-12T07:56:21Z</time>
      </trkpt>
      <trkpt lat="43.3735" lon="2.92161">
        <ele>177.02001953125</ele>
        <time>2011-06-12T07:56:24Z</time>
      </trkpt>
      <trkpt lat="43.3735" lon="2.9213">
        <ele>174.13586425781</ele>
        <time>2011-06-12T07:56:31Z</time>
      </trkpt>
      <trkpt lat="43.37312" lon="2.92108">
        <ele>172.21325683594</ele>
        <time>2011-06-12T07:56:38Z</time>
      </trkpt>
      <trkpt lat="43.37287" lon="2.92113">
        <ele>169.32946777344</ele>
        <time>2011-06-12T07:56:42Z</time>
      </trkpt>
      <trkpt lat="43.3726" lon="2.92112">
        <ele>167.40673828125</ele>
        <time>2011-06-12T07:56:46Z</time>
      </trkpt>
      <trkpt lat="43.37248" lon="2.92089">
        <ele>165.00341796875</ele>
        <time>2011-06-12T07:56:53Z</time>
      </trkpt>
      <trkpt lat="43.37257" lon="2.92087">
        <ele>164.04211425781</ele>
        <time>2011-06-12T07:56:55Z</time>
      </trkpt>
      <trkpt lat="43.37266" lon="2.9208">
        <ele>163.5615234375</ele>
        <time>2011-06-12T07:56:57Z</time>
      </trkpt>
      <trkpt lat="43.37281" lon="2.92072">
        <ele>164.04211425781</ele>
        <time>2011-06-12T07:57:00Z</time>
      </trkpt>
      <trkpt lat="43.37292" lon="2.92051">
        <ele>165.00341796875</ele>
        <time>2011-06-12T07:57:04Z</time>
      </trkpt>
      <trkpt lat="43.37295" lon="2.92015">
        <ele>165.00341796875</ele>
        <time>2011-06-12T07:57:09Z</time>
      </trkpt>
      <trkpt lat="43.37301" lon="2.91969">
        <ele>166.92602539062</ele>
        <time>2011-06-12T07:57:18Z</time>
      </trkpt>
      <trkpt lat="43.37311" lon="2.91956">
        <ele>168.36804199219</ele>
        <time>2011-06-12T07:57:23Z</time>
      </trkpt>
      <trkpt lat="43.37338" lon="2.91944">
        <ele>171.73266601562</ele>
        <time>2011-06-12T07:57:36Z</time>
      </trkpt>
      <trkpt lat="43.3733" lon="2.91919">
        <ele>172.69396972656</ele>
        <time>2011-06-12T07:57:44Z</time>
      </trkpt>
      <trkpt lat="43.3731" lon="2.9187">
        <ele>175.57788085938</ele>
        <time>2011-06-12T07:57:57Z</time>
      </trkpt>
      <trkpt lat="43.37305" lon="2.91818">
        <ele>178.94262695312</ele>
        <time>2011-06-12T07:58:11Z</time>
      </trkpt>
      <trkpt lat="43.3728" lon="2.91771">
        <ele>182.78784179688</ele>
        <time>2011-06-12T07:58:28Z</time>
      </trkpt>
      <trkpt lat="43.37282" lon="2.91736">
        <ele>182.30712890625</ele>
        <time>2011-06-12T07:58:38Z</time>
      </trkpt>
      <trkpt lat="43.37254" lon="2.91698">
        <ele>182.78784179688</ele>
        <time>2011-06-12T07:58:52Z</time>
      </trkpt>
      <trkpt lat="43.37229" lon="2.91662">
        <ele>186.63317871094</ele>
        <time>2011-06-12T07:59:05Z</time>
      </trkpt>
      <trkpt lat="43.372" lon="2.91629">
        <ele>189.99768066406</ele>
        <time>2011-06-12T07:59:20Z</time>
      </trkpt>
      <trkpt lat="43.37209" lon="2.9159">
        <ele>192.40112304688</ele>
        <time>2011-06-12T07:59:34Z</time>
      </trkpt>
      <trkpt lat="43.37218" lon="2.91598">
        <ele>194.32373046875</ele>
        <time>2011-06-12T07:59:40Z</time>
      </trkpt>
      <trkpt lat="43.37246" lon="2.91625">
        <ele>197.68823242188</ele>
        <time>2011-06-12T07:59:56Z</time>
      </trkpt>
      <trkpt lat="43.37286" lon="2.91648">
        <ele>199.61083984375</ele>
        <time>2011-06-12T08:00:16Z</time>
      </trkpt>
      <trkpt lat="43.37321" lon="2.91683">
        <ele>203.93688964844</ele>
        <time>2011-06-12T08:00:36Z</time>
      </trkpt>
      <trkpt lat="43.37357" lon="2.91728">
        <ele>209.22412109375</ele>
        <time>2011-06-12T08:00:58Z</time>
      </trkpt>
      <trkpt lat="43.37392" lon="2.91759">
        <ele>211.14672851562</ele>
        <time>2011-06-12T08:01:14Z</time>
      </trkpt>
      <trkpt lat="43.37438" lon="2.91811">
        <ele>215.95324707031</ele>
        <time>2011-06-12T08:01:35Z</time>
      </trkpt>
      <trkpt lat="43.37461" lon="2.91846">
        <ele>216.43395996094</ele>
        <time>2011-06-12T08:01:44Z</time>
      </trkpt>
      <trkpt lat="43.37497" lon="2.91843">
        <ele>216.43395996094</ele>
        <time>2011-06-12T08:01:54Z</time>
      </trkpt>
      <trkpt lat="43.37531" lon="2.91794">
        <ele>220.75988769531</ele>
        <time>2011-06-12T08:02:11Z</time>
      </trkpt>
      <trkpt lat="43.37565" lon="2.91758">
        <ele>222.20178222656</ele>
        <time>2011-06-12T08:02:28Z</time>
      </trkpt>
      <trkpt lat="43.37601" lon="2.91726">
        <ele>225.0859375</ele>
        <time>2011-06-12T08:02:40Z</time>
      </trkpt>
      <trkpt lat="43.37651" lon="2.9167">
        <ele>228.45043945312</ele>
        <time>2011-06-12T08:03:02Z</time>
      </trkpt>
      <trkpt lat="43.37716" lon="2.91587">
        <ele>230.373046875</ele>
        <time>2011-06-12T08:03:29Z</time>
      </trkpt>
      <trkpt lat="43.37727" lon="2.91594">
        <ele>232.29577636719</ele>
        <time>2011-06-12T08:03:34Z</time>
      </trkpt>
      <trkpt lat="43.37782" lon="2.91657">
        <ele>235.1796875</ele>
        <time>2011-06-12T08:03:55Z</time>
      </trkpt>
      <trkpt lat="43.37832" lon="2.91701">
        <ele>237.10229492188</ele>
        <time>2011-06-12T08:04:11Z</time>
      </trkpt>
      <trkpt lat="43.37869" lon="2.91741">
        <ele>238.06359863281</ele>
        <time>2011-06-12T08:04:22Z</time>
      </trkpt>
      <trkpt lat="43.3788" lon="2.91753">
        <ele>238.06359863281</ele>
        <time>2011-06-12T08:04:25Z</time>
      </trkpt>
      <trkpt lat="43.37914" lon="2.91843">
        <ele>236.62170410156</ele>
        <time>2011-06-12T08:04:35Z</time>
      </trkpt>
      <trkpt lat="43.3792" lon="2.91846">
        <ele>236.14099121094</ele>
        <time>2011-06-12T08:04:39Z</time>
      </trkpt>
      <trkpt lat="43.37948" lon="2.91815">
        <ele>236.62170410156</ele>
        <time>2011-06-12T08:04:44Z</time>
      </trkpt>
      <trkpt lat="43.37998" lon="2.91735">
        <ele>239.98620605469</ele>
        <time>2011-06-12T08:05:06Z</time>
      </trkpt>
      <trkpt lat="43.38039" lon="2.91686">
        <ele>247.19604492188</ele>
        <time>2011-06-12T08:05:29Z</time>
      </trkpt>
      <trkpt lat="43.3805" lon="2.91672">
        <ele>251.52209472656</ele>
        <time>2011-06-12T08:05:35Z</time>
      </trkpt>
      <trkpt lat="43.38062" lon="2.91663">
        <ele>252.96398925781</ele>
        <time>2011-06-12T08:05:41Z</time>
      </trkpt>
      <trkpt lat="43.38076" lon="2.9167">
        <ele>252.96398925781</ele>
        <time>2011-06-12T08:05:46Z</time>
      </trkpt>
      <trkpt lat="43.38098" lon="2.91673">
        <ele>258.25134277344</ele>
        <time>2011-06-12T08:05:51Z</time>
      </trkpt>
      <trkpt lat="43.38134" lon="2.91645">
        <ele>257.2900390625</ele>
        <time>2011-06-12T08:06:03Z</time>
      </trkpt>
      <trkpt lat="43.38154" lon="2.91633">
        <ele>253.92541503906</ele>
        <time>2011-06-12T08:06:09Z</time>
      </trkpt>
      <trkpt lat="43.38154" lon="2.91633">
        <ele>253.92541503906</ele>
        <time>2011-06-12T08:06:21Z</time>
      </trkpt>
      <trkpt lat="43.38154" lon="2.91633">
        <ele>254.88659667969</ele>
        <time>2011-06-12T08:06:39Z</time>
      </trkpt>
      <trkpt lat="43.38154" lon="2.91633">
        <ele>254.40600585938</ele>
        <time>2011-06-12T08:07:19Z</time>
      </trkpt>
      <trkpt lat="43.38154" lon="2.91633">
        <ele>255.36730957031</ele>
        <time>2011-06-12T08:07:39Z</time>
      </trkpt>
      <trkpt lat="43.38154" lon="2.91633">
        <ele>255.84802246094</ele>
        <time>2011-06-12T08:08:06Z</time>
      </trkpt>
      <trkpt lat="43.38154" lon="2.91633">
        <ele>255.36730957031</ele>
        <time>2011-06-12T08:08:43Z</time>
      </trkpt>
      <trkpt lat="43.38154" lon="2.91633">
        <ele>255.84802246094</ele>
        <time>2011-06-12T08:09:00Z</time>
      </trkpt>
      <trkpt lat="43.38154" lon="2.91633">
        <ele>255.36730957031</ele>
        <time>2011-06-12T08:10:37Z</time>
      </trkpt>
      <trkpt lat="43.38154" lon="2.91633">
        <ele>253.44470214844</ele>
        <time>2011-06-12T08:11:00Z</time>
      </trkpt>
      <trkpt lat="43.38154" lon="2.91633">
        <ele>253.92541503906</ele>
        <time>2011-06-12T08:11:22Z</time>
      </trkpt>
      <trkpt lat="43.38154" lon="2.91633">
        <ele>254.40600585938</ele>
        <time>2011-06-12T08:11:45Z</time>
      </trkpt>
      <trkpt lat="43.38154" lon="2.91633">
        <ele>251.52209472656</ele>
        <time>2011-06-12T08:11:59Z</time>
      </trkpt>
      <trkpt lat="43.38154" lon="2.91633">
        <ele>251.04138183594</ele>
        <time>2011-06-12T08:12:16Z</time>
      </trkpt>
      <trkpt lat="43.38154" lon="2.91633">
        <ele>250.08020019531</ele>
        <time>2011-06-12T08:12:59Z</time>
      </trkpt>
      <trkpt lat="43.38154" lon="2.91633">
        <ele>250.08020019531</ele>
        <time>2011-06-12T08:13:28Z</time>
      </trkpt>
      <trkpt lat="43.38154" lon="2.91633">
        <ele>249.59948730469</ele>
        <time>2011-06-12T08:13:55Z</time>
      </trkpt>
      <trkpt lat="43.38154" lon="2.91633">
        <ele>249.11877441406</ele>
        <time>2011-06-12T08:14:18Z</time>
      </trkpt>
      <trkpt lat="43.38154" lon="2.91633">
        <ele>248.15759277344</ele>
        <time>2011-06-12T08:14:38Z</time>
      </trkpt>
      <trkpt lat="43.38154" lon="2.91633">
        <ele>248.15759277344</ele>
        <time>2011-06-12T08:14:59Z</time>
      </trkpt>
      <trkpt lat="43.38154" lon="2.91633">
        <ele>246.23486328125</ele>
        <time>2011-06-12T08:16:03Z</time>
      </trkpt>
      <trkpt lat="43.38154" lon="2.91633">
        <ele>247.6767578125</ele>
        <time>2011-06-12T08:16:19Z</time>
      </trkpt>
      <trkpt lat="43.38154" lon="2.91633">
        <ele>246.23486328125</ele>
        <time>2011-06-12T08:16:30Z</time>
      </trkpt>
      <trkpt lat="43.38154" lon="2.91633">
        <ele>246.23486328125</ele>
        <time>2011-06-12T08:17:15Z</time>
      </trkpt>
      <trkpt lat="43.38154" lon="2.91633">
        <ele>246.71545410156</ele>
        <time>2011-06-12T08:17:31Z</time>
      </trkpt>
      <trkpt lat="43.38154" lon="2.91633">
        <ele>246.71545410156</ele>
        <time>2011-06-12T08:17:42Z</time>
      </trkpt>
      <trkpt lat="43.38154" lon="2.91633">
        <ele>247.19604492188</ele>
        <time>2011-06-12T08:18:00Z</time>
      </trkpt>
      <trkpt lat="43.38154" lon="2.91633">
        <ele>247.19604492188</ele>
        <time>2011-06-12T08:18:42Z</time>
      </trkpt>
      <trkpt lat="43.38167" lon="2.91629">
        <ele>247.19604492188</ele>
        <time>2011-06-12T08:19:02Z</time>
      </trkpt>
      <trkpt lat="43.38202" lon="2.91595">
        <ele>247.19604492188</ele>
        <time>2011-06-12T08:19:19Z</time>
      </trkpt>
      <trkpt lat="43.38228" lon="2.91556">
        <ele>250.08020019531</ele>
        <time>2011-06-12T08:19:39Z</time>
      </trkpt>
      <trkpt lat="43.38214" lon="2.91511">
        <ele>250.56079101562</ele>
        <time>2011-06-12T08:19:53Z</time>
      </trkpt>
      <trkpt lat="43.38186" lon="2.91474">
        <ele>251.04138183594</ele>
        <time>2011-06-12T08:20:08Z</time>
      </trkpt>
      <trkpt lat="43.38126" lon="2.91455">
        <ele>253.92541503906</ele>
        <time>2011-06-12T08:20:32Z</time>
      </trkpt>
      <trkpt lat="43.38108" lon="2.91444">
        <ele>255.36730957031</ele>
        <time>2011-06-12T08:20:41Z</time>
      </trkpt>
      <trkpt lat="43.38078" lon="2.91454">
        <ele>253.92541503906</ele>
        <time>2011-06-12T08:20:51Z</time>
      </trkpt>
      <trkpt lat="43.3806" lon="2.91492">
        <ele>252.96398925781</ele>
        <time>2011-06-12T08:20:58Z</time>
      </trkpt>
      <trkpt lat="43.38021" lon="2.91536">
        <ele>253.92541503906</ele>
        <time>2011-06-12T08:21:11Z</time>
      </trkpt>
      <trkpt lat="43.38011" lon="2.91543">
        <ele>252.4833984375</ele>
        <time>2011-06-12T08:21:14Z</time>
      </trkpt>
      <trkpt lat="43.38" lon="2.91536">
        <ele>252.96398925781</ele>
        <time>2011-06-12T08:21:19Z</time>
      </trkpt>
      <trkpt lat="43.37986" lon="2.9147">
        <ele>253.92541503906</ele>
        <time>2011-06-12T08:21:34Z</time>
      </trkpt>
      <trkpt lat="43.37982" lon="2.91404">
        <ele>251.52209472656</ele>
        <time>2011-06-12T08:21:49Z</time>
      </trkpt>
      <trkpt lat="43.37977" lon="2.91388">
        <ele>250.56079101562</ele>
        <time>2011-06-12T08:21:52Z</time>
      </trkpt>
      <trkpt lat="43.37956" lon="2.91346">
        <ele>247.6767578125</ele>
        <time>2011-06-12T08:21:59Z</time>
      </trkpt>
      <trkpt lat="43.37893" lon="2.91257">
        <ele>236.14099121094</ele>
        <time>2011-06-12T08:22:14Z</time>
      </trkpt>
      <trkpt lat="43.37888" lon="2.91251">
        <ele>235.1796875</ele>
        <time>2011-06-12T08:22:15Z</time>
      </trkpt>
      <trkpt lat="43.37869" lon="2.91224">
        <ele>232.77648925781</ele>
        <time>2011-06-12T08:22:19Z</time>
      </trkpt>
      <trkpt lat="43.37848" lon="2.912">
        <ele>230.373046875</ele>
        <time>2011-06-12T08:22:23Z</time>
      </trkpt>
      <trkpt lat="43.37831" lon="2.91182">
        <ele>228.93115234375</ele>
        <time>2011-06-12T08:22:26Z</time>
      </trkpt>
      <trkpt lat="43.37734" lon="2.91093">
        <ele>218.35656738281</ele>
        <time>2011-06-12T08:22:41Z</time>
      </trkpt>
      <trkpt lat="43.37695" lon="2.91071">
        <ele>216.91467285156</ele>
        <time>2011-06-12T08:22:47Z</time>
      </trkpt>
      <trkpt lat="43.37673" lon="2.91046">
        <ele>214.51123046875</ele>
        <time>2011-06-12T08:22:51Z</time>
      </trkpt>
      <trkpt lat="43.37645" lon="2.91007">
        <ele>209.70483398438</ele>
        <time>2011-06-12T08:22:56Z</time>
      </trkpt>
      <trkpt lat="43.37587" lon="2.90949">
        <ele>205.37878417969</ele>
        <time>2011-06-12T08:23:05Z</time>
      </trkpt>
      <trkpt lat="43.37588" lon="2.9093">
        <ele>204.41748046875</ele>
        <time>2011-06-12T08:23:09Z</time>
      </trkpt>
      <trkpt lat="43.37591" lon="2.90917">
        <ele>204.41748046875</ele>
        <time>2011-06-12T08:23:14Z</time>
      </trkpt>
      <trkpt lat="43.37519" lon="2.90849">
        <ele>202.49487304688</ele>
        <time>2011-06-12T08:23:30Z</time>
      </trkpt>
      <trkpt lat="43.37448" lon="2.90809">
        <ele>199.61083984375</ele>
        <time>2011-06-12T08:23:43Z</time>
      </trkpt>
      <trkpt lat="43.37426" lon="2.90786">
        <ele>199.61083984375</ele>
        <time>2011-06-12T08:23:48Z</time>
      </trkpt>
      <trkpt lat="43.37395" lon="2.9073">
        <ele>202.01428222656</ele>
        <time>2011-06-12T08:24:01Z</time>
      </trkpt>
      <trkpt lat="43.37342" lon="2.90658">
        <ele>202.01428222656</ele>
        <time>2011-06-12T08:24:18Z</time>
      </trkpt>
      <trkpt lat="43.37329" lon="2.90607">
        <ele>204.89807128906</ele>
        <time>2011-06-12T08:24:30Z</time>
      </trkpt>
      <trkpt lat="43.37317" lon="2.90553">
        <ele>207.30139160156</ele>
        <time>2011-06-12T08:24:46Z</time>
      </trkpt>
      <trkpt lat="43.37308" lon="2.9053">
        <ele>205.85949707031</ele>
        <time>2011-06-12T08:24:50Z</time>
      </trkpt>
      <trkpt lat="43.37284" lon="2.90482">
        <ele>208.26281738281</ele>
        <time>2011-06-12T08:25:01Z</time>
      </trkpt>
      <trkpt lat="43.37257" lon="2.90441">
        <ele>213.55004882812</ele>
        <time>2011-06-12T08:25:19Z</time>
      </trkpt>
      <trkpt lat="43.37226" lon="2.90386">
        <ele>216.91467285156</ele>
        <time>2011-06-12T08:25:38Z</time>
      </trkpt>
      <trkpt lat="43.37193" lon="2.90357">
        <ele>217.8759765625</ele>
        <time>2011-06-12T08:25:53Z</time>
      </trkpt>
      <trkpt lat="43.37178" lon="2.9035">
        <ele>217.8759765625</ele>
        <time>2011-06-12T08:25:57Z</time>
      </trkpt>
      <trkpt lat="43.37141" lon="2.90302">
        <ele>221.72119140625</ele>
        <time>2011-06-12T08:26:11Z</time>
      </trkpt>
      <trkpt lat="43.37111" lon="2.90254">
        <ele>223.64379882812</ele>
        <time>2011-06-12T08:26:23Z</time>
      </trkpt>
      <trkpt lat="43.37078" lon="2.90218">
        <ele>223.64379882812</ele>
        <time>2011-06-12T08:26:35Z</time>
      </trkpt>
      <trkpt lat="43.37072" lon="2.90211">
        <ele>223.64379882812</ele>
        <time>2011-06-12T08:26:37Z</time>
      </trkpt>
      <trkpt lat="43.37051" lon="2.90198">
        <ele>222.68249511719</ele>
        <time>2011-06-12T08:26:42Z</time>
      </trkpt>
      <trkpt lat="43.36983" lon="2.9013">
        <ele>223.16320800781</ele>
        <time>2011-06-12T08:27:01Z</time>
      </trkpt>
      <trkpt lat="43.36955" lon="2.90101">
        <ele>223.64379882812</ele>
        <time>2011-06-12T08:27:10Z</time>
      </trkpt>
      <trkpt lat="43.36931" lon="2.9006">
        <ele>224.60522460938</ele>
        <time>2011-06-12T08:27:21Z</time>
      </trkpt>
      <trkpt lat="43.36951" lon="2.90023">
        <ele>228.45043945312</ele>
        <time>2011-06-12T08:27:33Z</time>
      </trkpt>
      <trkpt lat="43.36986" lon="2.89959">
        <ele>234.21838378906</ele>
        <time>2011-06-12T08:27:53Z</time>
      </trkpt>
      <trkpt lat="43.37021" lon="2.89921">
        <ele>239.50549316406</ele>
        <time>2011-06-12T08:28:12Z</time>
      </trkpt>
      <trkpt lat="43.37049" lon="2.89946">
        <ele>241.90893554688</ele>
        <time>2011-06-12T08:28:24Z</time>
      </trkpt>
      <trkpt lat="43.37086" lon="2.89939">
        <ele>244.31225585938</ele>
        <time>2011-06-12T08:28:37Z</time>
      </trkpt>
      <trkpt lat="43.37119" lon="2.8997">
        <ele>245.2734375</ele>
        <time>2011-06-12T08:28:49Z</time>
      </trkpt>
      <trkpt lat="43.37177" lon="2.90014">
        <ele>247.19604492188</ele>
        <time>2011-06-12T08:29:05Z</time>
      </trkpt>
      <trkpt lat="43.37219" lon="2.90032">
        <ele>248.63818359375</ele>
        <time>2011-06-12T08:29:16Z</time>
      </trkpt>
      <trkpt lat="43.37223" lon="2.90029">
        <ele>248.63818359375</ele>
        <time>2011-06-12T08:29:17Z</time>
      </trkpt>
      <trkpt lat="43.37237" lon="2.90033">
        <ele>248.15759277344</ele>
        <time>2011-06-12T08:29:21Z</time>
      </trkpt>
      <trkpt lat="43.37315" lon="2.90112">
        <ele>245.75415039062</ele>
        <time>2011-06-12T08:29:39Z</time>
      </trkpt>
      <trkpt lat="43.37328" lon="2.90126">
        <ele>244.79284667969</ele>
        <time>2011-06-12T08:29:42Z</time>
      </trkpt>
      <trkpt lat="43.37345" lon="2.90119">
        <ele>244.79284667969</ele>
        <time>2011-06-12T08:29:47Z</time>
      </trkpt>
      <trkpt lat="43.37358" lon="2.90084">
        <ele>243.35083007812</ele>
        <time>2011-06-12T08:29:53Z</time>
      </trkpt>
      <trkpt lat="43.3737" lon="2.90066">
        <ele>241.42822265625</ele>
        <time>2011-06-12T08:29:57Z</time>
      </trkpt>
      <trkpt lat="43.37373" lon="2.9005">
        <ele>241.42822265625</ele>
        <time>2011-06-12T08:30:02Z</time>
      </trkpt>
      <trkpt lat="43.37364" lon="2.90017">
        <ele>242.87023925781</ele>
        <time>2011-06-12T08:30:11Z</time>
      </trkpt>
      <trkpt lat="43.3734" lon="2.89998">
        <ele>242.87023925781</ele>
        <time>2011-06-12T08:30:18Z</time>
      </trkpt>
      <trkpt lat="43.37306" lon="2.89958">
        <ele>246.23486328125</ele>
        <time>2011-06-12T08:30:33Z</time>
      </trkpt>
      <trkpt lat="43.37281" lon="2.89938">
        <ele>245.2734375</ele>
        <time>2011-06-12T08:30:44Z</time>
      </trkpt>
      <trkpt lat="43.37272" lon="2.89929">
        <ele>245.2734375</ele>
        <time>2011-06-12T08:30:48Z</time>
      </trkpt>
      <trkpt lat="43.37247" lon="2.89884">
        <ele>246.23486328125</ele>
        <time>2011-06-12T08:31:02Z</time>
      </trkpt>
      <trkpt lat="43.37237" lon="2.89869">
        <ele>247.19604492188</ele>
        <time>2011-06-12T08:31:06Z</time>
      </trkpt>
      <trkpt lat="43.3721" lon="2.89843">
        <ele>247.19604492188</ele>
        <time>2011-06-12T08:31:15Z</time>
      </trkpt>
      <trkpt lat="43.37218" lon="2.89867">
        <ele>247.19604492188</ele>
        <time>2011-06-12T08:31:20Z</time>
      </trkpt>
      <trkpt lat="43.37175" lon="2.89813">
        <ele>246.23486328125</ele>
        <time>2011-06-12T08:31:24Z</time>
      </trkpt>
      <trkpt lat="43.37157" lon="2.89793">
        <ele>248.15759277344</ele>
        <time>2011-06-12T08:31:29Z</time>
      </trkpt>
      <trkpt lat="43.37156" lon="2.89781">
        <ele>248.15759277344</ele>
        <time>2011-06-12T08:31:33Z</time>
      </trkpt>
      <trkpt lat="43.37155" lon="2.89781">
        <ele>248.63818359375</ele>
        <time>2011-06-12T08:31:44Z</time>
      </trkpt>
      <trkpt lat="43.37157" lon="2.8978">
        <ele>248.63818359375</ele>
        <time>2011-06-12T08:31:52Z</time>
      </trkpt>
      <trkpt lat="43.37158" lon="2.89777">
        <ele>248.63818359375</ele>
        <time>2011-06-12T08:31:54Z</time>
      </trkpt>
      <trkpt lat="43.3716" lon="2.89771">
        <ele>247.19604492188</ele>
        <time>2011-06-12T08:31:58Z</time>
      </trkpt>
      <trkpt lat="43.37171" lon="2.89763">
        <ele>244.79284667969</ele>
        <time>2011-06-12T08:32:02Z</time>
      </trkpt>
      <trkpt lat="43.37172" lon="2.89738">
        <ele>243.83154296875</ele>
        <time>2011-06-12T08:32:07Z</time>
      </trkpt>
      <trkpt lat="43.37171" lon="2.89713">
        <ele>244.79284667969</ele>
        <time>2011-06-12T08:32:12Z</time>
      </trkpt>
      <trkpt lat="43.37193" lon="2.8966">
        <ele>239.50549316406</ele>
        <time>2011-06-12T08:32:26Z</time>
      </trkpt>
      <trkpt lat="43.372" lon="2.8965">
        <ele>235.66027832031</ele>
        <time>2011-06-12T08:32:30Z</time>
      </trkpt>
      <trkpt lat="43.37183" lon="2.89632">
        <ele>232.77648925781</ele>
        <time>2011-06-12T08:32:38Z</time>
      </trkpt>
      <trkpt lat="43.37158" lon="2.89623">
        <ele>231.33435058594</ele>
        <time>2011-06-12T08:32:44Z</time>
      </trkpt>
      <trkpt lat="43.37143" lon="2.8961">
        <ele>226.04711914062</ele>
        <time>2011-06-12T08:32:48Z</time>
      </trkpt>
      <trkpt lat="43.37127" lon="2.89603">
        <ele>221.24060058594</ele>
        <time>2011-06-12T08:32:52Z</time>
      </trkpt>
      <trkpt lat="43.37121" lon="2.89602">
        <ele>219.31799316406</ele>
        <time>2011-06-12T08:33:03Z</time>
      </trkpt>
      <trkpt lat="43.37122" lon="2.89601">
        <ele>220.27917480469</ele>
        <time>2011-06-12T08:33:27Z</time>
      </trkpt>
      <trkpt lat="43.37122" lon="2.89602">
        <ele>220.27917480469</ele>
        <time>2011-06-12T08:34:02Z</time>
      </trkpt>
      <trkpt lat="43.37119" lon="2.89602">
        <ele>219.79858398438</ele>
        <time>2011-06-12T08:34:16Z</time>
      </trkpt>
      <trkpt lat="43.37117" lon="2.89601">
        <ele>219.79858398438</ele>
        <time>2011-06-12T08:34:38Z</time>
      </trkpt>
      <trkpt lat="43.37118" lon="2.89601">
        <ele>219.79858398438</ele>
        <time>2011-06-12T08:34:56Z</time>
      </trkpt>
      <trkpt lat="43.37122" lon="2.89601">
        <ele>219.31799316406</ele>
        <time>2011-06-12T08:35:11Z</time>
      </trkpt>
      <trkpt lat="43.37122" lon="2.89602">
        <ele>219.31799316406</ele>
        <time>2011-06-12T08:35:31Z</time>
      </trkpt>
      <trkpt lat="43.37122" lon="2.89603">
        <ele>218.83728027344</ele>
        <time>2011-06-12T08:35:44Z</time>
      </trkpt>
      <trkpt lat="43.37121" lon="2.89603">
        <ele>218.83728027344</ele>
        <time>2011-06-12T08:36:18Z</time>
      </trkpt>
      <trkpt lat="43.37104" lon="2.89601">
        <ele>211.62744140625</ele>
        <time>2011-06-12T08:36:27Z</time>
      </trkpt>
      <trkpt lat="43.37099" lon="2.89604">
        <ele>209.22412109375</ele>
        <time>2011-06-12T08:36:30Z</time>
      </trkpt>
      <trkpt lat="43.37073" lon="2.89584">
        <ele>202.97546386719</ele>
        <time>2011-06-12T08:36:40Z</time>
      </trkpt>
      <trkpt lat="43.3707" lon="2.89582">
        <ele>202.01428222656</ele>
        <time>2011-06-12T08:36:41Z</time>
      </trkpt>
      <trkpt lat="43.37064" lon="2.89577">
        <ele>200.572265625</ele>
        <time>2011-06-12T08:36:43Z</time>
      </trkpt>
      <trkpt lat="43.37069" lon="2.89561">
        <ele>198.64953613281</ele>
        <time>2011-06-12T08:36:48Z</time>
      </trkpt>
      <trkpt lat="43.37074" lon="2.89522">
        <ele>200.572265625</ele>
        <time>2011-06-12T08:36:57Z</time>
      </trkpt>
      <trkpt lat="43.37074" lon="2.89524">
        <ele>201.53356933594</ele>
        <time>2011-06-12T08:37:21Z</time>
      </trkpt>
      <trkpt lat="43.37075" lon="2.89523">
        <ele>201.05285644531</ele>
        <time>2011-06-12T08:38:33Z</time>
      </trkpt>
      <trkpt lat="43.37076" lon="2.89523">
        <ele>201.05285644531</ele>
        <time>2011-06-12T08:39:01Z</time>
      </trkpt>
      <trkpt lat="43.37102" lon="2.89493">
        <ele>201.53356933594</ele>
        <time>2011-06-12T08:39:14Z</time>
      </trkpt>
      <trkpt lat="43.3711" lon="2.89445">
        <ele>202.49487304688</ele>
        <time>2011-06-12T08:39:25Z</time>
      </trkpt>
      <trkpt lat="43.37097" lon="2.89385">
        <ele>204.41748046875</ele>
        <time>2011-06-12T08:39:45Z</time>
      </trkpt>
      <trkpt lat="43.37061" lon="2.89368">
        <ele>206.82067871094</ele>
        <time>2011-06-12T08:40:00Z</time>
      </trkpt>
      <trkpt lat="43.37033" lon="2.89374">
        <ele>206.82067871094</ele>
        <time>2011-06-12T08:40:10Z</time>
      </trkpt>
      <trkpt lat="43.37025" lon="2.89392">
        <ele>206.82067871094</ele>
        <time>2011-06-12T08:40:14Z</time>
      </trkpt>
      <trkpt lat="43.36994" lon="2.89448">
        <ele>208.74340820312</ele>
        <time>2011-06-12T08:40:30Z</time>
      </trkpt>
      <trkpt lat="43.36964" lon="2.89446">
        <ele>209.70483398438</ele>
        <time>2011-06-12T08:40:41Z</time>
      </trkpt>
      <trkpt lat="43.36948" lon="2.89378">
        <ele>213.55004882812</ele>
        <time>2011-06-12T08:41:01Z</time>
      </trkpt>
      <trkpt lat="43.36925" lon="2.89328">
        <ele>219.31799316406</ele>
        <time>2011-06-12T08:41:23Z</time>
      </trkpt>
      <trkpt lat="43.36891" lon="2.89298">
        <ele>225.0859375</ele>
        <time>2011-06-12T08:41:45Z</time>
      </trkpt>
      <trkpt lat="43.36849" lon="2.89289">
        <ele>231.81494140625</ele>
        <time>2011-06-12T08:42:08Z</time>
      </trkpt>
      <trkpt lat="43.3681" lon="2.8927">
        <ele>239.50549316406</ele>
        <time>2011-06-12T08:42:33Z</time>
      </trkpt>
      <trkpt lat="43.36783" lon="2.89266">
        <ele>243.35083007812</ele>
        <time>2011-06-12T08:42:49Z</time>
      </trkpt>
      <trkpt lat="43.36765" lon="2.89285">
        <ele>244.79284667969</ele>
        <time>2011-06-12T08:43:02Z</time>
      </trkpt>
      <trkpt lat="43.36723" lon="2.89261">
        <ele>244.79284667969</ele>
        <time>2011-06-12T08:43:18Z</time>
      </trkpt>
      <trkpt lat="43.36665" lon="2.89215">
        <ele>245.75415039062</ele>
        <time>2011-06-12T08:43:38Z</time>
      </trkpt>
      <trkpt lat="43.36599" lon="2.89169">
        <ele>246.23486328125</ele>
        <time>2011-06-12T08:43:57Z</time>
      </trkpt>
      <trkpt lat="43.36532" lon="2.89148">
        <ele>243.35083007812</ele>
        <time>2011-06-12T08:44:12Z</time>
      </trkpt>
      <trkpt lat="43.36518" lon="2.89146">
        <ele>242.3896484375</ele>
        <time>2011-06-12T08:44:16Z</time>
      </trkpt>
      <trkpt lat="43.36523" lon="2.89146">
        <ele>241.90893554688</ele>
        <time>2011-06-12T08:44:22Z</time>
      </trkpt>
      <trkpt lat="43.36535" lon="2.89082">
        <ele>240.94763183594</ele>
        <time>2011-06-12T08:44:30Z</time>
      </trkpt>
      <trkpt lat="43.36539" lon="2.89056">
        <ele>240.46704101562</ele>
        <time>2011-06-12T08:44:34Z</time>
      </trkpt>
      <trkpt lat="43.36521" lon="2.89045">
        <ele>240.94763183594</ele>
        <time>2011-06-12T08:44:39Z</time>
      </trkpt>
      <trkpt lat="43.36503" lon="2.89042">
        <ele>240.94763183594</ele>
        <time>2011-06-12T08:44:44Z</time>
      </trkpt>
      <trkpt lat="43.36487" lon="2.89049">
        <ele>242.87023925781</ele>
        <time>2011-06-12T08:44:49Z</time>
      </trkpt>
      <trkpt lat="43.36474" lon="2.89047">
        <ele>245.75415039062</ele>
        <time>2011-06-12T08:44:53Z</time>
      </trkpt>
      <trkpt lat="43.36461" lon="2.89049">
        <ele>247.6767578125</ele>
        <time>2011-06-12T08:44:58Z</time>
      </trkpt>
      <trkpt lat="43.36435" lon="2.89034">
        <ele>251.04138183594</ele>
        <time>2011-06-12T08:45:04Z</time>
      </trkpt>
      <trkpt lat="43.36403" lon="2.89032">
        <ele>252.4833984375</ele>
        <time>2011-06-12T08:45:13Z</time>
      </trkpt>
      <trkpt lat="43.36392" lon="2.89031">
        <ele>251.52209472656</ele>
        <time>2011-06-12T08:45:15Z</time>
      </trkpt>
      <trkpt lat="43.3633" lon="2.89006">
        <ele>246.71545410156</ele>
        <time>2011-06-12T08:45:27Z</time>
      </trkpt>
      <trkpt lat="43.36319" lon="2.89">
        <ele>245.2734375</ele>
        <time>2011-06-12T08:45:29Z</time>
      </trkpt>
      <trkpt lat="43.36312" lon="2.88993">
        <ele>244.79284667969</ele>
        <time>2011-06-12T08:45:31Z</time>
      </trkpt>
      <trkpt lat="43.36293" lon="2.88996">
        <ele>243.83154296875</ele>
        <time>2011-06-12T08:45:35Z</time>
      </trkpt>
      <trkpt lat="43.36259" lon="2.88994">
        <ele>244.79284667969</ele>
        <time>2011-06-12T08:45:42Z</time>
      </trkpt>
      <trkpt lat="43.36215" lon="2.88968">
        <ele>243.83154296875</ele>
        <time>2011-06-12T08:45:52Z</time>
      </trkpt>
      <trkpt lat="43.3619" lon="2.88941">
        <ele>245.75415039062</ele>
        <time>2011-06-12T08:46:00Z</time>
      </trkpt>
      <trkpt lat="43.36164" lon="2.88938">
        <ele>247.19604492188</ele>
        <time>2011-06-12T08:46:06Z</time>
      </trkpt>
      <trkpt lat="43.36149" lon="2.88935">
        <ele>246.23486328125</ele>
        <time>2011-06-12T08:46:09Z</time>
      </trkpt>
      <trkpt lat="43.36138" lon="2.88926">
        <ele>245.2734375</ele>
        <time>2011-06-12T08:46:12Z</time>
      </trkpt>
      <trkpt lat="43.36122" lon="2.88912">
        <ele>243.83154296875</ele>
        <time>2011-06-12T08:46:16Z</time>
      </trkpt>
      <trkpt lat="43.36099" lon="2.889">
        <ele>242.87023925781</ele>
        <time>2011-06-12T08:46:21Z</time>
      </trkpt>
      <trkpt lat="43.36089" lon="2.88897">
        <ele>241.42822265625</ele>
        <time>2011-06-12T08:46:23Z</time>
      </trkpt>
      <trkpt lat="43.3608" lon="2.88885">
        <ele>241.42822265625</ele>
        <time>2011-06-12T08:46:26Z</time>
      </trkpt>
      <trkpt lat="43.36059" lon="2.8887">
        <ele>240.94763183594</ele>
        <time>2011-06-12T08:46:34Z</time>
      </trkpt>
      <trkpt lat="43.36047" lon="2.88862">
        <ele>241.90893554688</ele>
        <time>2011-06-12T08:46:38Z</time>
      </trkpt>
      <trkpt lat="43.36032" lon="2.88864">
        <ele>242.3896484375</ele>
        <time>2011-06-12T08:46:42Z</time>
      </trkpt>
      <trkpt lat="43.36016" lon="2.88856">
        <ele>246.23486328125</ele>
        <time>2011-06-12T08:46:49Z</time>
      </trkpt>
      <trkpt lat="43.35998" lon="2.88841">
        <ele>246.23486328125</ele>
        <time>2011-06-12T08:46:56Z</time>
      </trkpt>
      <trkpt lat="43.35978" lon="2.88844">
        <ele>244.31225585938</ele>
        <time>2011-06-12T08:47:03Z</time>
      </trkpt>
      <trkpt lat="43.35933" lon="2.88827">
        <ele>246.23486328125</ele>
        <time>2011-06-12T08:47:16Z</time>
      </trkpt>
      <trkpt lat="43.35913" lon="2.88821">
        <ele>247.19604492188</ele>
        <time>2011-06-12T08:47:21Z</time>
      </trkpt>
      <trkpt lat="43.35897" lon="2.88819">
        <ele>247.6767578125</ele>
        <time>2011-06-12T08:47:24Z</time>
      </trkpt>
      <trkpt lat="43.3588" lon="2.88815">
        <ele>244.79284667969</ele>
        <time>2011-06-12T08:47:28Z</time>
      </trkpt>
      <trkpt lat="43.35866" lon="2.88832">
        <ele>244.31225585938</ele>
        <time>2011-06-12T08:47:32Z</time>
      </trkpt>
      <trkpt lat="43.35859" lon="2.88842">
        <ele>242.87023925781</ele>
        <time>2011-06-12T08:47:35Z</time>
      </trkpt>
      <trkpt lat="43.35849" lon="2.88849">
        <ele>243.35083007812</ele>
        <time>2011-06-12T08:47:40Z</time>
      </trkpt>
      <trkpt lat="43.35842" lon="2.88844">
        <ele>242.3896484375</ele>
        <time>2011-06-12T08:47:42Z</time>
      </trkpt>
      <trkpt lat="43.35819" lon="2.88834">
        <ele>234.69909667969</ele>
        <time>2011-06-12T08:47:47Z</time>
      </trkpt>
      <trkpt lat="43.35798" lon="2.88834">
        <ele>229.41174316406</ele>
        <time>2011-06-12T08:47:53Z</time>
      </trkpt>
      <trkpt lat="43.35776" lon="2.88827">
        <ele>219.31799316406</ele>
        <time>2011-06-12T08:48:01Z</time>
      </trkpt>
      <trkpt lat="43.35762" lon="2.88791">
        <ele>223.16320800781</ele>
        <time>2011-06-12T08:48:14Z</time>
      </trkpt>
      <trkpt lat="43.3575" lon="2.88769">
        <ele>226.04711914062</ele>
        <time>2011-06-12T08:48:22Z</time>
      </trkpt>
      <trkpt lat="43.35742" lon="2.88771">
        <ele>228.45043945312</ele>
        <time>2011-06-12T08:48:33Z</time>
      </trkpt>
      <trkpt lat="43.35731" lon="2.88778">
        <ele>232.77648925781</ele>
        <time>2011-06-12T08:48:49Z</time>
      </trkpt>
      <trkpt lat="43.35716" lon="2.88779">
        <ele>234.69909667969</ele>
        <time>2011-06-12T08:49:07Z</time>
      </trkpt>
      <trkpt lat="43.35682" lon="2.88776">
        <ele>235.66027832031</ele>
        <time>2011-06-12T08:49:23Z</time>
      </trkpt>
      <trkpt lat="43.35677" lon="2.88778">
        <ele>236.62170410156</ele>
        <time>2011-06-12T08:49:25Z</time>
      </trkpt>
      <trkpt lat="43.3566" lon="2.88771">
        <ele>239.02490234375</ele>
        <time>2011-06-12T08:49:34Z</time>
      </trkpt>
      <trkpt lat="43.3565" lon="2.88774">
        <ele>239.98620605469</ele>
        <time>2011-06-12T08:49:39Z</time>
      </trkpt>
      <trkpt lat="43.35637" lon="2.88786">
        <ele>240.46704101562</ele>
        <time>2011-06-12T08:49:45Z</time>
      </trkpt>
      <trkpt lat="43.35627" lon="2.88782">
        <ele>240.94763183594</ele>
        <time>2011-06-12T08:49:49Z</time>
      </trkpt>
      <trkpt lat="43.35618" lon="2.88782">
        <ele>240.94763183594</ele>
        <time>2011-06-12T08:49:53Z</time>
      </trkpt>
      <trkpt lat="43.35613" lon="2.88784">
        <ele>240.94763183594</ele>
        <time>2011-06-12T08:49:55Z</time>
      </trkpt>
      <trkpt lat="43.356" lon="2.88775">
        <ele>240.46704101562</ele>
        <time>2011-06-12T08:50:02Z</time>
      </trkpt>
      <trkpt lat="43.35595" lon="2.88765">
        <ele>239.02490234375</ele>
        <time>2011-06-12T08:50:05Z</time>
      </trkpt>
      <trkpt lat="43.3559" lon="2.88757">
        <ele>239.50549316406</ele>
        <time>2011-06-12T08:50:08Z</time>
      </trkpt>
      <trkpt lat="43.35587" lon="2.88752">
        <ele>239.02490234375</ele>
        <time>2011-06-12T08:50:11Z</time>
      </trkpt>
      <trkpt lat="43.35576" lon="2.8876">
        <ele>239.50549316406</ele>
        <time>2011-06-12T08:50:19Z</time>
      </trkpt>
      <trkpt lat="43.35568" lon="2.88765">
        <ele>239.50549316406</ele>
        <time>2011-06-12T08:50:24Z</time>
      </trkpt>
      <trkpt lat="43.35558" lon="2.88766">
        <ele>238.54431152344</ele>
        <time>2011-06-12T08:50:28Z</time>
      </trkpt>
      <trkpt lat="43.3553" lon="2.88766">
        <ele>233.25708007812</ele>
        <time>2011-06-12T08:50:40Z</time>
      </trkpt>
      <trkpt lat="43.35513" lon="2.88771">
        <ele>230.373046875</ele>
        <time>2011-06-12T08:50:47Z</time>
      </trkpt>
      <trkpt lat="43.35507" lon="2.88762">
        <ele>228.93115234375</ele>
        <time>2011-06-12T08:50:52Z</time>
      </trkpt>
      <trkpt lat="43.35501" lon="2.88768">
        <ele>228.45043945312</ele>
        <time>2011-06-12T08:50:58Z</time>
      </trkpt>
      <trkpt lat="43.35501" lon="2.88777">
        <ele>228.93115234375</ele>
        <time>2011-06-12T08:51:01Z</time>
      </trkpt>
      <trkpt lat="43.35491" lon="2.88791">
        <ele>226.52783203125</ele>
        <time>2011-06-12T08:51:07Z</time>
      </trkpt>
      <trkpt lat="43.35482" lon="2.88801">
        <ele>224.60522460938</ele>
        <time>2011-06-12T08:51:12Z</time>
      </trkpt>
      <trkpt lat="43.35475" lon="2.888">
        <ele>224.12451171875</ele>
        <time>2011-06-12T08:51:14Z</time>
      </trkpt>
      <trkpt lat="43.35476" lon="2.88811">
        <ele>223.16320800781</ele>
        <time>2011-06-12T08:51:19Z</time>
      </trkpt>
      <trkpt lat="43.35473" lon="2.88828">
        <ele>220.75988769531</ele>
        <time>2011-06-12T08:51:24Z</time>
      </trkpt>
      <trkpt lat="43.35466" lon="2.88857">
        <ele>215.95324707031</ele>
        <time>2011-06-12T08:51:31Z</time>
      </trkpt>
      <trkpt lat="43.3547" lon="2.88862">
        <ele>216.43395996094</ele>
        <time>2011-06-12T08:51:34Z</time>
      </trkpt>
      <trkpt lat="43.35456" lon="2.88886">
        <ele>214.99194335938</ele>
        <time>2011-06-12T08:51:41Z</time>
      </trkpt>
      <trkpt lat="43.35454" lon="2.88886">
        <ele>215.47265625</ele>
        <time>2011-06-12T08:51:42Z</time>
      </trkpt>
      <trkpt lat="43.35444" lon="2.88899">
        <ele>217.8759765625</ele>
        <time>2011-06-12T08:51:48Z</time>
      </trkpt>
      <trkpt lat="43.35443" lon="2.88917">
        <ele>221.24060058594</ele>
        <time>2011-06-12T08:51:54Z</time>
      </trkpt>
      <trkpt lat="43.35435" lon="2.88924">
        <ele>222.20178222656</ele>
        <time>2011-06-12T08:51:59Z</time>
      </trkpt>
      <trkpt lat="43.35428" lon="2.88926">
        <ele>222.68249511719</ele>
        <time>2011-06-12T08:52:02Z</time>
      </trkpt>
      <trkpt lat="43.35424" lon="2.88932">
        <ele>223.64379882812</ele>
        <time>2011-06-12T08:52:05Z</time>
      </trkpt>
      <trkpt lat="43.35417" lon="2.88936">
        <ele>224.60522460938</ele>
        <time>2011-06-12T08:52:09Z</time>
      </trkpt>
      <trkpt lat="43.35409" lon="2.8894">
        <ele>224.60522460938</ele>
        <time>2011-06-12T08:52:13Z</time>
      </trkpt>
      <trkpt lat="43.35385" lon="2.88939">
        <ele>223.16320800781</ele>
        <time>2011-06-12T08:52:23Z</time>
      </trkpt>
      <trkpt lat="43.35371" lon="2.88943">
        <ele>223.16320800781</ele>
        <time>2011-06-12T08:52:30Z</time>
      </trkpt>
      <trkpt lat="43.35364" lon="2.88944">
        <ele>223.64379882812</ele>
        <time>2011-06-12T08:52:33Z</time>
      </trkpt>
      <trkpt lat="43.35334" lon="2.88961">
        <ele>224.12451171875</ele>
        <time>2011-06-12T08:52:45Z</time>
      </trkpt>
      <trkpt lat="43.35332" lon="2.88964">
        <ele>224.12451171875</ele>
        <time>2011-06-12T08:52:46Z</time>
      </trkpt>
      <trkpt lat="43.35321" lon="2.88966">
        <ele>223.64379882812</ele>
        <time>2011-06-12T08:52:49Z</time>
      </trkpt>
      <trkpt lat="43.35311" lon="2.8898">
        <ele>223.64379882812</ele>
        <time>2011-06-12T08:52:54Z</time>
      </trkpt>
      <trkpt lat="43.3529" lon="2.88992">
        <ele>222.68249511719</ele>
        <time>2011-06-12T08:53:01Z</time>
      </trkpt>
      <trkpt lat="43.35254" lon="2.88999">
        <ele>214.51123046875</ele>
        <time>2011-06-12T08:53:10Z</time>
      </trkpt>
      <trkpt lat="43.35238" lon="2.89015">
        <ele>210.18542480469</ele>
        <time>2011-06-12T08:53:16Z</time>
      </trkpt>
      <trkpt lat="43.35228" lon="2.89017">
        <ele>208.26281738281</ele>
        <time>2011-06-12T08:53:19Z</time>
      </trkpt>
      <trkpt lat="43.35205" lon="2.89023">
        <ele>211.62744140625</ele>
        <time>2011-06-12T08:53:28Z</time>
      </trkpt>
      <trkpt lat="43.35194" lon="2.89031">
        <ele>213.55004882812</ele>
        <time>2011-06-12T08:53:33Z</time>
      </trkpt>
      <trkpt lat="43.35192" lon="2.89042">
        <ele>214.51123046875</ele>
        <time>2011-06-12T08:53:36Z</time>
      </trkpt>
      <trkpt lat="43.35173" lon="2.89054">
        <ele>214.03063964844</ele>
        <time>2011-06-12T08:53:43Z</time>
      </trkpt>
      <trkpt lat="43.35165" lon="2.8905">
        <ele>213.0693359375</ele>
        <time>2011-06-12T08:53:46Z</time>
      </trkpt>
      <trkpt lat="43.35145" lon="2.89058">
        <ele>209.22412109375</ele>
        <time>2011-06-12T08:53:51Z</time>
      </trkpt>
      <trkpt lat="43.35134" lon="2.89074">
        <ele>207.78210449219</ele>
        <time>2011-06-12T08:53:55Z</time>
      </trkpt>
      <trkpt lat="43.35117" lon="2.89078">
        <ele>203.45617675781</ele>
        <time>2011-06-12T08:54:00Z</time>
      </trkpt>
      <trkpt lat="43.35112" lon="2.89073">
        <ele>202.01428222656</ele>
        <time>2011-06-12T08:54:02Z</time>
      </trkpt>
      <trkpt lat="43.35092" lon="2.89073">
        <ele>198.1689453125</ele>
        <time>2011-06-12T08:54:08Z</time>
      </trkpt>
      <trkpt lat="43.35074" lon="2.89079">
        <ele>193.3623046875</ele>
        <time>2011-06-12T08:54:14Z</time>
      </trkpt>
      <trkpt lat="43.35061" lon="2.89081">
        <ele>191.92028808594</ele>
        <time>2011-06-12T08:54:20Z</time>
      </trkpt>
      <trkpt lat="43.3505" lon="2.89075">
        <ele>192.40112304688</ele>
        <time>2011-06-12T08:54:24Z</time>
      </trkpt>
      <trkpt lat="43.3504" lon="2.89088">
        <ele>196.24633789062</ele>
        <time>2011-06-12T08:54:29Z</time>
      </trkpt>
      <trkpt lat="43.35017" lon="2.89104">
        <ele>199.61083984375</ele>
        <time>2011-06-12T08:54:40Z</time>
      </trkpt>
      <trkpt lat="43.35011" lon="2.89111">
        <ele>200.572265625</ele>
        <time>2011-06-12T08:54:44Z</time>
      </trkpt>
      <trkpt lat="43.34999" lon="2.8913">
        <ele>202.49487304688</ele>
        <time>2011-06-12T08:54:55Z</time>
      </trkpt>
      <trkpt lat="43.34981" lon="2.89119">
        <ele>202.49487304688</ele>
        <time>2011-06-12T08:55:02Z</time>
      </trkpt>
      <trkpt lat="43.34968" lon="2.89109">
        <ele>202.97546386719</ele>
        <time>2011-06-12T08:55:07Z</time>
      </trkpt>
      <trkpt lat="43.34957" lon="2.89092">
        <ele>199.61083984375</ele>
        <time>2011-06-12T08:55:12Z</time>
      </trkpt>
      <trkpt lat="43.34945" lon="2.89101">
        <ele>200.09167480469</ele>
        <time>2011-06-12T08:55:18Z</time>
      </trkpt>
      <trkpt lat="43.3492" lon="2.8911">
        <ele>202.97546386719</ele>
        <time>2011-06-12T08:55:28Z</time>
      </trkpt>
      <trkpt lat="43.34884" lon="2.89129">
        <ele>197.68823242188</ele>
        <time>2011-06-12T08:55:39Z</time>
      </trkpt>
      <trkpt lat="43.34871" lon="2.89141">
        <ele>195.765625</ele>
        <time>2011-06-12T08:55:49Z</time>
      </trkpt>
      <trkpt lat="43.34871" lon="2.89142">
        <ele>196.24633789062</ele>
        <time>2011-06-12T08:56:14Z</time>
      </trkpt>
      <trkpt lat="43.34861" lon="2.8914">
        <ele>194.80432128906</ele>
        <time>2011-06-12T08:56:18Z</time>
      </trkpt>
      <trkpt lat="43.34832" lon="2.89138">
        <ele>192.40112304688</ele>
        <time>2011-06-12T08:56:34Z</time>
      </trkpt>
      <trkpt lat="43.34825" lon="2.89135">
        <ele>196.72692871094</ele>
        <time>2011-06-12T08:56:45Z</time>
      </trkpt>
      <trkpt lat="43.34816" lon="2.89127">
        <ele>200.572265625</ele>
        <time>2011-06-12T08:56:58Z</time>
      </trkpt>
      <trkpt lat="43.3481" lon="2.89119">
        <ele>202.49487304688</ele>
        <time>2011-06-12T08:57:07Z</time>
      </trkpt>
      <trkpt lat="43.34807" lon="2.89114">
        <ele>203.93688964844</ele>
        <time>2011-06-12T08:57:11Z</time>
      </trkpt>
      <trkpt lat="43.34803" lon="2.89113">
        <ele>204.41748046875</ele>
        <time>2011-06-12T08:57:17Z</time>
      </trkpt>
      <trkpt lat="43.34779" lon="2.89102">
        <ele>207.30139160156</ele>
        <time>2011-06-12T08:57:33Z</time>
      </trkpt>
      <trkpt lat="43.34777" lon="2.89101">
        <ele>207.78210449219</ele>
        <time>2011-06-12T08:57:34Z</time>
      </trkpt>
      <trkpt lat="43.34767" lon="2.89098">
        <ele>207.30139160156</ele>
        <time>2011-06-12T08:57:38Z</time>
      </trkpt>
      <trkpt lat="43.34756" lon="2.89107">
        <ele>208.26281738281</ele>
        <time>2011-06-12T08:57:45Z</time>
      </trkpt>
      <trkpt lat="43.34741" lon="2.89112">
        <ele>206.82067871094</ele>
        <time>2011-06-12T08:57:54Z</time>
      </trkpt>
      <trkpt lat="43.34735" lon="2.89139">
        <ele>205.85949707031</ele>
        <time>2011-06-12T08:58:07Z</time>
      </trkpt>
      <trkpt lat="43.34737" lon="2.89139">
        <ele>206.82067871094</ele>
        <time>2011-06-12T08:58:18Z</time>
      </trkpt>
      <trkpt lat="43.34739" lon="2.89137">
        <ele>206.34008789062</ele>
        <time>2011-06-12T08:58:34Z</time>
      </trkpt>
      <trkpt lat="43.34737" lon="2.89136">
        <ele>206.34008789062</ele>
        <time>2011-06-12T08:58:53Z</time>
      </trkpt>
      <trkpt lat="43.34736" lon="2.89134">
        <ele>206.34008789062</ele>
        <time>2011-06-12T08:59:12Z</time>
      </trkpt>
      <trkpt lat="43.34736" lon="2.89135">
        <ele>206.34008789062</ele>
        <time>2011-06-12T08:59:54Z</time>
      </trkpt>
      <trkpt lat="43.34736" lon="2.89134">
        <ele>206.82067871094</ele>
        <time>2011-06-12T09:00:30Z</time>
      </trkpt>
      <trkpt lat="43.34736" lon="2.89135">
        <ele>206.82067871094</ele>
        <time>2011-06-12T09:01:18Z</time>
      </trkpt>
      <trkpt lat="43.34736" lon="2.89134">
        <ele>206.82067871094</ele>
        <time>2011-06-12T09:02:20Z</time>
      </trkpt>
      <trkpt lat="43.34736" lon="2.89134">
        <ele>206.82067871094</ele>
        <time>2011-06-12T09:02:45Z</time>
      </trkpt>
      <trkpt lat="43.34736" lon="2.89133">
        <ele>206.82067871094</ele>
        <time>2011-06-12T09:03:15Z</time>
      </trkpt>
      <trkpt lat="43.34736" lon="2.89133">
        <ele>206.82067871094</ele>
        <time>2011-06-12T09:04:00Z</time>
      </trkpt>
      <trkpt lat="43.34736" lon="2.89132">
        <ele>206.82067871094</ele>
        <time>2011-06-12T09:04:22Z</time>
      </trkpt>
      <trkpt lat="43.34737" lon="2.89132">
        <ele>206.82067871094</ele>
        <time>2011-06-12T09:04:46Z</time>
      </trkpt>
      <trkpt lat="43.34736" lon="2.89132">
        <ele>209.22412109375</ele>
        <time>2011-06-12T09:05:35Z</time>
      </trkpt>
      <trkpt lat="43.34736" lon="2.89134">
        <ele>208.74340820312</ele>
        <time>2011-06-12T09:06:37Z</time>
      </trkpt>
      <trkpt lat="43.34737" lon="2.89137">
        <ele>207.30139160156</ele>
        <time>2011-06-12T09:06:54Z</time>
      </trkpt>
      <trkpt lat="43.34735" lon="2.89135">
        <ele>207.30139160156</ele>
        <time>2011-06-12T09:07:13Z</time>
      </trkpt>
      <trkpt lat="43.34737" lon="2.89138">
        <ele>207.78210449219</ele>
        <time>2011-06-12T09:07:24Z</time>
      </trkpt>
      <trkpt lat="43.34736" lon="2.89139">
        <ele>206.34008789062</ele>
        <time>2011-06-12T09:07:45Z</time>
      </trkpt>
      <trkpt lat="43.34737" lon="2.89139">
        <ele>206.34008789062</ele>
        <time>2011-06-12T09:08:42Z</time>
      </trkpt>
      <trkpt lat="43.34735" lon="2.89138">
        <ele>206.34008789062</ele>
        <time>2011-06-12T09:09:00Z</time>
      </trkpt>
      <trkpt lat="43.34732" lon="2.89139">
        <ele>205.85949707031</ele>
        <time>2011-06-12T09:09:18Z</time>
      </trkpt>
      <trkpt lat="43.34732" lon="2.89139">
        <ele>205.37878417969</ele>
        <time>2011-06-12T09:10:18Z</time>
      </trkpt>
      <trkpt lat="43.34732" lon="2.8914">
        <ele>205.37878417969</ele>
        <time>2011-06-12T09:10:27Z</time>
      </trkpt>
      <trkpt lat="43.34717" lon="2.89141">
        <ele>203.93688964844</ele>
        <time>2011-06-12T09:10:33Z</time>
      </trkpt>
      <trkpt lat="43.34698" lon="2.89148">
        <ele>202.97546386719</ele>
        <time>2011-06-12T09:10:37Z</time>
      </trkpt>
      <trkpt lat="43.34669" lon="2.8917">
        <ele>199.13012695312</ele>
        <time>2011-06-12T09:10:42Z</time>
      </trkpt>
      <trkpt lat="43.34656" lon="2.89174">
        <ele>199.13012695312</ele>
        <time>2011-06-12T09:10:49Z</time>
      </trkpt>
      <trkpt lat="43.34656" lon="2.89174">
        <ele>199.61083984375</ele>
        <time>2011-06-12T09:10:52Z</time>
      </trkpt>
      <trkpt lat="43.34612" lon="2.89198">
        <ele>200.09167480469</ele>
        <time>2011-06-12T09:10:56Z</time>
      </trkpt>
      <trkpt lat="43.34608" lon="2.89189">
        <ele>200.09167480469</ele>
        <time>2011-06-12T09:10:58Z</time>
      </trkpt>
      <trkpt lat="43.34596" lon="2.89182">
        <ele>201.53356933594</ele>
        <time>2011-06-12T09:11:02Z</time>
      </trkpt>
      <trkpt lat="43.34586" lon="2.89172">
        <ele>202.01428222656</ele>
        <time>2011-06-12T09:11:06Z</time>
      </trkpt>
      <trkpt lat="43.34579" lon="2.89171">
        <ele>202.97546386719</ele>
        <time>2011-06-12T09:11:08Z</time>
      </trkpt>
      <trkpt lat="43.34561" lon="2.89155">
        <ele>202.49487304688</ele>
        <time>2011-06-12T09:11:12Z</time>
      </trkpt>
      <trkpt lat="43.34519" lon="2.89137">
        <ele>203.45617675781</ele>
        <time>2011-06-12T09:11:22Z</time>
      </trkpt>
      <trkpt lat="43.34515" lon="2.89132">
        <ele>203.45617675781</ele>
        <time>2011-06-12T09:11:24Z</time>
      </trkpt>
      <trkpt lat="43.34494" lon="2.89129">
        <ele>205.85949707031</ele>
        <time>2011-06-12T09:11:32Z</time>
      </trkpt>
      <trkpt lat="43.34484" lon="2.89128">
        <ele>209.22412109375</ele>
        <time>2011-06-12T09:11:35Z</time>
      </trkpt>
      <trkpt lat="43.34479" lon="2.89124">
        <ele>210.18542480469</ele>
        <time>2011-06-12T09:11:37Z</time>
      </trkpt>
      <trkpt lat="43.34467" lon="2.89135">
        <ele>210.18542480469</ele>
        <time>2011-06-12T09:11:42Z</time>
      </trkpt>
      <trkpt lat="43.34464" lon="2.89142">
        <ele>211.14672851562</ele>
        <time>2011-06-12T09:11:45Z</time>
      </trkpt>
      <trkpt lat="43.34461" lon="2.89148">
        <ele>210.666015625</ele>
        <time>2011-06-12T09:11:54Z</time>
      </trkpt>
      <trkpt lat="43.34447" lon="2.89154">
        <ele>210.666015625</ele>
        <time>2011-06-12T09:12:08Z</time>
      </trkpt>
      <trkpt lat="43.34443" lon="2.89155">
        <ele>210.666015625</ele>
        <time>2011-06-12T09:12:13Z</time>
      </trkpt>
      <trkpt lat="43.34441" lon="2.89158">
        <ele>210.18542480469</ele>
        <time>2011-06-12T09:12:15Z</time>
      </trkpt>
      <trkpt lat="43.34435" lon="2.89161">
        <ele>210.18542480469</ele>
        <time>2011-06-12T09:12:18Z</time>
      </trkpt>
      <trkpt lat="43.34418" lon="2.89183">
        <ele>207.78210449219</ele>
        <time>2011-06-12T09:12:24Z</time>
      </trkpt>
      <trkpt lat="43.34398" lon="2.89203">
        <ele>204.89807128906</ele>
        <time>2011-06-12T09:12:29Z</time>
      </trkpt>
      <trkpt lat="43.34393" lon="2.89226">
        <ele>200.572265625</ele>
        <time>2011-06-12T09:12:35Z</time>
      </trkpt>
      <trkpt lat="43.34395" lon="2.89243">
        <ele>197.20751953125</ele>
        <time>2011-06-12T09:12:40Z</time>
      </trkpt>
      <trkpt lat="43.34386" lon="2.89247">
        <ele>193.84301757812</ele>
        <time>2011-06-12T09:12:47Z</time>
      </trkpt>
      <trkpt lat="43.34381" lon="2.89272">
        <ele>186.63317871094</ele>
        <time>2011-06-12T09:12:55Z</time>
      </trkpt>
      <trkpt lat="43.34375" lon="2.893">
        <ele>184.71057128906</ele>
        <time>2011-06-12T09:13:00Z</time>
      </trkpt>
      <trkpt lat="43.34357" lon="2.89297">
        <ele>188.55578613281</ele>
        <time>2011-06-12T09:13:07Z</time>
      </trkpt>
      <trkpt lat="43.34323" lon="2.89308">
        <ele>196.72692871094</ele>
        <time>2011-06-12T09:13:22Z</time>
      </trkpt>
      <trkpt lat="43.34311" lon="2.89313">
        <ele>198.1689453125</ele>
        <time>2011-06-12T09:13:27Z</time>
      </trkpt>
      <trkpt lat="43.34303" lon="2.89311">
        <ele>199.13012695312</ele>
        <time>2011-06-12T09:13:31Z</time>
      </trkpt>
      <trkpt lat="43.343" lon="2.89308">
        <ele>199.61083984375</ele>
        <time>2011-06-12T09:13:33Z</time>
      </trkpt>
      <trkpt lat="43.34291" lon="2.89305">
        <ele>202.01428222656</ele>
        <time>2011-06-12T09:13:39Z</time>
      </trkpt>
      <trkpt lat="43.34274" lon="2.89298">
        <ele>205.37878417969</ele>
        <time>2011-06-12T09:13:51Z</time>
      </trkpt>
      <trkpt lat="43.34259" lon="2.89291">
        <ele>205.85949707031</ele>
        <time>2011-06-12T09:14:00Z</time>
      </trkpt>
      <trkpt lat="43.34244" lon="2.89287">
        <ele>208.74340820312</ele>
        <time>2011-06-12T09:14:12Z</time>
      </trkpt>
      <trkpt lat="43.34237" lon="2.89284">
        <ele>208.74340820312</ele>
        <time>2011-06-12T09:14:16Z</time>
      </trkpt>
      <trkpt lat="43.34231" lon="2.89278">
        <ele>209.22412109375</ele>
        <time>2011-06-12T09:14:20Z</time>
      </trkpt>
      <trkpt lat="43.34225" lon="2.89277">
        <ele>209.70483398438</ele>
        <time>2011-06-12T09:14:24Z</time>
      </trkpt>
      <trkpt lat="43.34191" lon="2.89256">
        <ele>212.10803222656</ele>
        <time>2011-06-12T09:14:43Z</time>
      </trkpt>
      <trkpt lat="43.34166" lon="2.89239">
        <ele>213.55004882812</ele>
        <time>2011-06-12T09:14:55Z</time>
      </trkpt>
      <trkpt lat="43.34137" lon="2.8922">
        <ele>218.35656738281</ele>
        <time>2011-06-12T09:15:10Z</time>
      </trkpt>
      <trkpt lat="43.34102" lon="2.89201">
        <ele>218.35656738281</ele>
        <time>2011-06-12T09:15:24Z</time>
      </trkpt>
      <trkpt lat="43.34067" lon="2.89172">
        <ele>215.95324707031</ele>
        <time>2011-06-12T09:15:35Z</time>
      </trkpt>
      <trkpt lat="43.34057" lon="2.89156">
        <ele>214.99194335938</ele>
        <time>2011-06-12T09:15:38Z</time>
      </trkpt>
      <trkpt lat="43.3403" lon="2.89098">
        <ele>211.62744140625</ele>
        <time>2011-06-12T09:15:47Z</time>
      </trkpt>
      <trkpt lat="43.34008" lon="2.89052">
        <ele>211.14672851562</ele>
        <time>2011-06-12T09:15:49Z</time>
      </trkpt>
      <trkpt lat="43.34003" lon="2.89057">
        <ele>210.666015625</ele>
        <time>2011-06-12T09:15:54Z</time>
      </trkpt>
      <trkpt lat="43.33978" lon="2.89071">
        <ele>209.22412109375</ele>
        <time>2011-06-12T09:15:59Z</time>
      </trkpt>
      <trkpt lat="43.3394" lon="2.89063">
        <ele>207.78210449219</ele>
        <time>2011-06-12T09:16:07Z</time>
      </trkpt>
      <trkpt lat="43.33913" lon="2.89076">
        <ele>204.41748046875</ele>
        <time>2011-06-12T09:16:11Z</time>
      </trkpt>
      <trkpt lat="43.33901" lon="2.89113">
        <ele>197.68823242188</ele>
        <time>2011-06-12T09:16:18Z</time>
      </trkpt>
      <trkpt lat="43.33912" lon="2.89119">
        <ele>196.24633789062</ele>
        <time>2011-06-12T09:16:20Z</time>
      </trkpt>
      <trkpt lat="43.33935" lon="2.89125">
        <ele>193.84301757812</ele>
        <time>2011-06-12T09:16:23Z</time>
      </trkpt>
      <trkpt lat="43.33944" lon="2.89155">
        <ele>192.88171386719</ele>
        <time>2011-06-12T09:16:27Z</time>
      </trkpt>
      <trkpt lat="43.33944" lon="2.89175">
        <ele>192.40112304688</ele>
        <time>2011-06-12T09:16:29Z</time>
      </trkpt>
      <trkpt lat="43.33971" lon="2.89219">
        <ele>193.3623046875</ele>
        <time>2011-06-12T09:16:36Z</time>
      </trkpt>
      <trkpt lat="43.33986" lon="2.89234">
        <ele>191.92028808594</ele>
        <time>2011-06-12T09:16:39Z</time>
      </trkpt>
      <trkpt lat="43.33986" lon="2.89273">
        <ele>188.07507324219</ele>
        <time>2011-06-12T09:16:46Z</time>
      </trkpt>
      <trkpt lat="43.33976" lon="2.89263">
        <ele>187.59436035156</ele>
        <time>2011-06-12T09:16:49Z</time>
      </trkpt>
      <trkpt lat="43.33968" lon="2.89255">
        <ele>187.11376953125</ele>
        <time>2011-06-12T09:16:51Z</time>
      </trkpt>
      <trkpt lat="43.33952" lon="2.89267">
        <ele>183.7490234375</ele>
        <time>2011-06-12T09:16:56Z</time>
      </trkpt>
      <trkpt lat="43.33946" lon="2.89291">
        <ele>182.78784179688</ele>
        <time>2011-06-12T09:16:59Z</time>
      </trkpt>
      <trkpt lat="43.33922" lon="2.89299">
        <ele>180.865234375</ele>
        <time>2011-06-12T09:17:03Z</time>
      </trkpt>
      <trkpt lat="43.33902" lon="2.89303">
        <ele>178.94262695312</ele>
        <time>2011-06-12T09:17:06Z</time>
      </trkpt>
      <trkpt lat="43.33858" lon="2.89303">
        <ele>177.02001953125</ele>
        <time>2011-06-12T09:17:12Z</time>
      </trkpt>
      <trkpt lat="43.33822" lon="2.893">
        <ele>175.09729003906</ele>
        <time>2011-06-12T09:17:17Z</time>
      </trkpt>
      <trkpt lat="43.33801" lon="2.89296">
        <ele>174.13586425781</ele>
        <time>2011-06-12T09:17:20Z</time>
      </trkpt>
      <trkpt lat="43.33793" lon="2.8928">
        <ele>172.69396972656</ele>
        <time>2011-06-12T09:17:24Z</time>
      </trkpt>
      <trkpt lat="43.33779" lon="2.89225">
        <ele>171.25207519531</ele>
        <time>2011-06-12T09:17:34Z</time>
      </trkpt>
      <trkpt lat="43.33778" lon="2.89222">
        <ele>171.25207519531</ele>
        <time>2011-06-12T09:17:43Z</time>
      </trkpt>
      <trkpt lat="43.33797" lon="2.89266">
        <ele>172.69396972656</ele>
        <time>2011-06-12T09:17:55Z</time>
      </trkpt>
      <trkpt lat="43.33792" lon="2.89285">
        <ele>173.6552734375</ele>
        <time>2011-06-12T09:17:59Z</time>
      </trkpt>
      <trkpt lat="43.33812" lon="2.89298">
        <ele>174.13586425781</ele>
        <time>2011-06-12T09:18:05Z</time>
      </trkpt>
      <trkpt lat="43.33867" lon="2.89304">
        <ele>176.53930664062</ele>
        <time>2011-06-12T09:18:21Z</time>
      </trkpt>
      <trkpt lat="43.33917" lon="2.893">
        <ele>178.94262695312</ele>
        <time>2011-06-12T09:18:38Z</time>
      </trkpt>
      <trkpt lat="43.33918" lon="2.89299">
        <ele>178.94262695312</ele>
        <time>2011-06-12T09:18:39Z</time>
      </trkpt>
      <trkpt lat="43.33919" lon="2.89299">
        <ele>178.94262695312</ele>
        <time>2011-06-12T09:18:42Z</time>
      </trkpt>
      <trkpt lat="43.33909" lon="2.89302">
        <ele>178.94262695312</ele>
        <time>2011-06-12T09:18:48Z</time>
      </trkpt>
      <trkpt lat="43.33899" lon="2.89304">
        <ele>179.90380859375</ele>
        <time>2011-06-12T09:18:52Z</time>
      </trkpt>
      <trkpt lat="43.33895" lon="2.89305">
        <ele>179.90380859375</ele>
        <time>2011-06-12T09:18:54Z</time>
      </trkpt>
      <trkpt lat="43.33846" lon="2.89356">
        <ele>183.7490234375</ele>
        <time>2011-06-12T09:19:19Z</time>
      </trkpt>
      <trkpt lat="43.33848" lon="2.89369">
        <ele>184.22985839844</ele>
        <time>2011-06-12T09:19:23Z</time>
      </trkpt>
      <trkpt lat="43.33866" lon="2.89438">
        <ele>182.78784179688</ele>
        <time>2011-06-12T09:19:38Z</time>
      </trkpt>
      <trkpt lat="43.3387" lon="2.8945">
        <ele>182.30712890625</ele>
        <time>2011-06-12T09:19:40Z</time>
      </trkpt>
      <trkpt lat="43.33911" lon="2.89516">
        <ele>181.34582519531</ele>
        <time>2011-06-12T09:19:53Z</time>
      </trkpt>
      <trkpt lat="43.33951" lon="2.89604">
        <ele>175.09729003906</ele>
        <time>2011-06-12T09:20:04Z</time>
      </trkpt>
      <trkpt lat="43.33978" lon="2.89664">
        <ele>170.77136230469</ele>
        <time>2011-06-12T09:20:11Z</time>
      </trkpt>
      <trkpt lat="43.33992" lon="2.89692">
        <ele>169.32946777344</ele>
        <time>2011-06-12T09:20:15Z</time>
      </trkpt>
      <trkpt lat="43.34016" lon="2.89739">
        <ele>166.4453125</ele>
        <time>2011-06-12T09:20:21Z</time>
      </trkpt>
      <trkpt lat="43.34032" lon="2.89786">
        <ele>163.5615234375</ele>
        <time>2011-06-12T09:20:27Z</time>
      </trkpt>
      <trkpt lat="43.34091" lon="2.89869">
        <ele>152.98693847656</ele>
        <time>2011-06-12T09:20:39Z</time>
      </trkpt>
      <trkpt lat="43.34118" lon="2.89888">
        <ele>147.69970703125</ele>
        <time>2011-06-12T09:20:43Z</time>
      </trkpt>
      <trkpt lat="43.34138" lon="2.89918">
        <ele>145.77709960938</ele>
        <time>2011-06-12T09:20:47Z</time>
      </trkpt>
      <trkpt lat="43.34139" lon="2.89949">
        <ele>142.41247558594</ele>
        <time>2011-06-12T09:20:51Z</time>
      </trkpt>
      <trkpt lat="43.34128" lon="2.89999">
        <ele>136.16394042969</ele>
        <time>2011-06-12T09:20:57Z</time>
      </trkpt>
      <trkpt lat="43.34111" lon="2.90035">
        <ele>129.91528320312</ele>
        <time>2011-06-12T09:21:02Z</time>
      </trkpt>
      <trkpt lat="43.34094" lon="2.9004">
        <ele>126.06994628906</ele>
        <time>2011-06-12T09:21:06Z</time>
      </trkpt>
      <trkpt lat="43.34074" lon="2.90037">
        <ele>122.70544433594</ele>
        <time>2011-06-12T09:21:14Z</time>
      </trkpt>
      <trkpt lat="43.34074" lon="2.90037">
        <ele>123.18615722656</ele>
        <time>2011-06-12T09:22:01Z</time>
      </trkpt>
      <trkpt lat="43.34093" lon="2.9004">
        <ele>125.58935546875</ele>
        <time>2011-06-12T09:22:15Z</time>
      </trkpt>
      <trkpt lat="43.34093" lon="2.9004">
        <ele>125.58935546875</ele>
        <time>2011-06-12T09:22:34Z</time>
      </trkpt>
      <trkpt lat="43.34084" lon="2.90039">
        <ele>125.10876464844</ele>
        <time>2011-06-12T09:22:44Z</time>
      </trkpt>
      <trkpt lat="43.34082" lon="2.90042">
        <ele>124.62805175781</ele>
        <time>2011-06-12T09:22:49Z</time>
      </trkpt>
      <trkpt lat="43.34111" lon="2.90033">
        <ele>130.39599609375</ele>
        <time>2011-06-12T09:23:04Z</time>
      </trkpt>
      <trkpt lat="43.34127" lon="2.9">
        <ele>135.20251464844</ele>
        <time>2011-06-12T09:23:22Z</time>
      </trkpt>
      <trkpt lat="43.34137" lon="2.89963">
        <ele>140.97045898438</ele>
        <time>2011-06-12T09:23:43Z</time>
      </trkpt>
      <trkpt lat="43.34138" lon="2.89953">
        <ele>142.89306640625</ele>
        <time>2011-06-12T09:23:56Z</time>
      </trkpt>
      <trkpt lat="43.34138" lon="2.89953">
        <ele>143.85437011719</ele>
        <time>2011-06-12T09:24:17Z</time>
      </trkpt>
      <trkpt lat="43.34138" lon="2.89953">
        <ele>145.77709960938</ele>
        <time>2011-06-12T09:24:35Z</time>
      </trkpt>
      <trkpt lat="43.34138" lon="2.89953">
        <ele>145.77709960938</ele>
        <time>2011-06-12T09:24:36Z</time>
      </trkpt>
      <trkpt lat="43.34138" lon="2.89953">
        <ele>148.18041992188</ele>
        <time>2011-06-12T09:24:51Z</time>
      </trkpt>
      <trkpt lat="43.34138" lon="2.89953">
        <ele>149.62231445312</ele>
        <time>2011-06-12T09:24:54Z</time>
      </trkpt>
      <trkpt lat="43.34138" lon="2.89953">
        <ele>150.10302734375</ele>
        <time>2011-06-12T09:25:01Z</time>
      </trkpt>
      <trkpt lat="43.34138" lon="2.89953">
        <ele>153.46765136719</ele>
        <time>2011-06-12T09:25:20Z</time>
      </trkpt>
      <trkpt lat="43.34138" lon="2.89953">
        <ele>156.3515625</ele>
        <time>2011-06-12T09:25:40Z</time>
      </trkpt>
      <trkpt lat="43.34138" lon="2.89953">
        <ele>157.79357910156</ele>
        <time>2011-06-12T09:25:52Z</time>
      </trkpt>
      <trkpt lat="43.34136" lon="2.89859">
        <ele>161.63891601562</ele>
        <time>2011-06-12T09:26:07Z</time>
      </trkpt>
      <trkpt lat="43.34135" lon="2.89848">
        <ele>163.5615234375</ele>
        <time>2011-06-12T09:26:12Z</time>
      </trkpt>
      <trkpt lat="43.34134" lon="2.89838">
        <ele>165.48413085938</ele>
        <time>2011-06-12T09:26:22Z</time>
      </trkpt>
      <trkpt lat="43.34134" lon="2.89838">
        <ele>167.88732910156</ele>
        <time>2011-06-12T09:26:41Z</time>
      </trkpt>
      <trkpt lat="43.34134" lon="2.89838">
        <ele>172.21325683594</ele>
        <time>2011-06-12T09:27:07Z</time>
      </trkpt>
      <trkpt lat="43.34134" lon="2.89838">
        <ele>173.6552734375</ele>
        <time>2011-06-12T09:27:19Z</time>
      </trkpt>
      <trkpt lat="43.34134" lon="2.89838">
        <ele>174.61657714844</ele>
        <time>2011-06-12T09:27:31Z</time>
      </trkpt>
      <trkpt lat="43.34134" lon="2.89838">
        <ele>176.05859375</ele>
        <time>2011-06-12T09:27:45Z</time>
      </trkpt>
      <trkpt lat="43.34152" lon="2.89751">
        <ele>176.05859375</ele>
        <time>2011-06-12T09:27:55Z</time>
      </trkpt>
      <trkpt lat="43.34152" lon="2.89751">
        <ele>176.05859375</ele>
        <time>2011-06-12T09:28:34Z</time>
      </trkpt>
      <trkpt lat="43.34161" lon="2.89729">
        <ele>175.09729003906</ele>
        <time>2011-06-12T09:28:40Z</time>
      </trkpt>
      <trkpt lat="43.34158" lon="2.89689">
        <ele>174.61657714844</ele>
        <time>2011-06-12T09:28:47Z</time>
      </trkpt>
      <trkpt lat="43.34168" lon="2.89657">
        <ele>173.17468261719</ele>
        <time>2011-06-12T09:28:52Z</time>
      </trkpt>
      <trkpt lat="43.34174" lon="2.89632">
        <ele>174.13586425781</ele>
        <time>2011-06-12T09:28:56Z</time>
      </trkpt>
      <trkpt lat="43.34199" lon="2.8961">
        <ele>172.69396972656</ele>
        <time>2011-06-12T09:29:02Z</time>
      </trkpt>
      <trkpt lat="43.34214" lon="2.89601">
        <ele>171.73266601562</ele>
        <time>2011-06-12T09:29:05Z</time>
      </trkpt>
      <trkpt lat="43.34231" lon="2.89579">
        <ele>170.29064941406</ele>
        <time>2011-06-12T09:29:10Z</time>
      </trkpt>
      <trkpt lat="43.34247" lon="2.89549">
        <ele>169.81005859375</ele>
        <time>2011-06-12T09:29:16Z</time>
      </trkpt>
      <trkpt lat="43.34246" lon="2.89541">
        <ele>168.84875488281</ele>
        <time>2011-06-12T09:29:27Z</time>
      </trkpt>
      <trkpt lat="43.34246" lon="2.89541">
        <ele>168.84875488281</ele>
        <time>2011-06-12T09:31:13Z</time>
      </trkpt>
      <trkpt lat="43.34258" lon="2.89526">
        <ele>167.88732910156</ele>
        <time>2011-06-12T09:31:25Z</time>
      </trkpt>
      <trkpt lat="43.34275" lon="2.89477">
        <ele>168.36804199219</ele>
        <time>2011-06-12T09:31:41Z</time>
      </trkpt>
      <trkpt lat="43.34303" lon="2.89456">
        <ele>170.77136230469</ele>
        <time>2011-06-12T09:31:55Z</time>
      </trkpt>
      <trkpt lat="43.34339" lon="2.89453">
        <ele>174.13586425781</ele>
        <time>2011-06-12T09:32:13Z</time>
      </trkpt>
      <trkpt lat="43.34378" lon="2.89449">
        <ele>178.4619140625</ele>
        <time>2011-06-12T09:32:34Z</time>
      </trkpt>
      <trkpt lat="43.34429" lon="2.89445">
        <ele>178.4619140625</ele>
        <time>2011-06-12T09:32:52Z</time>
      </trkpt>
      <trkpt lat="43.34463" lon="2.8947">
        <ele>178.94262695312</ele>
        <time>2011-06-12T09:33:06Z</time>
      </trkpt>
      <trkpt lat="43.3447" lon="2.89467">
        <ele>179.42321777344</ele>
        <time>2011-06-12T09:33:10Z</time>
      </trkpt>
      <trkpt lat="43.34473" lon="2.89461">
        <ele>179.90380859375</ele>
        <time>2011-06-12T09:33:13Z</time>
      </trkpt>
      <trkpt lat="43.34487" lon="2.89489">
        <ele>180.865234375</ele>
        <time>2011-06-12T09:33:23Z</time>
      </trkpt>
      <trkpt lat="43.34466" lon="2.8947">
        <ele>180.865234375</ele>
        <time>2011-06-12T09:33:34Z</time>
      </trkpt>
      <trkpt lat="43.34449" lon="2.89591">
        <ele>179.42321777344</ele>
        <time>2011-06-12T09:33:45Z</time>
      </trkpt>
      <trkpt lat="43.34446" lon="2.8961">
        <ele>178.94262695312</ele>
        <time>2011-06-12T09:33:49Z</time>
      </trkpt>
      <trkpt lat="43.34446" lon="2.89621">
        <ele>178.94262695312</ele>
        <time>2011-06-12T09:33:51Z</time>
      </trkpt>
      <trkpt lat="43.3443" lon="2.89639">
        <ele>178.4619140625</ele>
        <time>2011-06-12T09:33:56Z</time>
      </trkpt>
      <trkpt lat="43.34406" lon="2.89669">
        <ele>174.13586425781</ele>
        <time>2011-06-12T09:34:02Z</time>
      </trkpt>
      <trkpt lat="43.34392" lon="2.89703">
        <ele>169.81005859375</ele>
        <time>2011-06-12T09:34:08Z</time>
      </trkpt>
      <trkpt lat="43.34398" lon="2.89741">
        <ele>168.36804199219</ele>
        <time>2011-06-12T09:34:14Z</time>
      </trkpt>
      <trkpt lat="43.34414" lon="2.89799">
        <ele>165.48413085938</ele>
        <time>2011-06-12T09:34:20Z</time>
      </trkpt>
      <trkpt lat="43.34417" lon="2.89796">
        <ele>163.08081054688</ele>
        <time>2011-06-12T09:34:25Z</time>
      </trkpt>
      <trkpt lat="43.34427" lon="2.89787">
        <ele>162.11950683594</ele>
        <time>2011-06-12T09:34:28Z</time>
      </trkpt>
      <trkpt lat="43.3444" lon="2.898">
        <ele>159.23547363281</ele>
        <time>2011-06-12T09:34:35Z</time>
      </trkpt>
      <trkpt lat="43.34436" lon="2.89808">
        <ele>159.71618652344</ele>
        <time>2011-06-12T09:34:37Z</time>
      </trkpt>
      <trkpt lat="43.34417" lon="2.89862">
        <ele>163.5615234375</ele>
        <time>2011-06-12T09:34:52Z</time>
      </trkpt>
      <trkpt lat="43.34385" lon="2.89918">
        <ele>166.92602539062</ele>
        <time>2011-06-12T09:35:12Z</time>
      </trkpt>
      <trkpt lat="43.34383" lon="2.89921">
        <ele>166.92602539062</ele>
        <time>2011-06-12T09:35:17Z</time>
      </trkpt>
      <trkpt lat="43.34334" lon="2.89941">
        <ele>164.04211425781</ele>
        <time>2011-06-12T09:35:24Z</time>
      </trkpt>
      <trkpt lat="43.34315" lon="2.89965">
        <ele>161.158203125</ele>
        <time>2011-06-12T09:35:28Z</time>
      </trkpt>
      <trkpt lat="43.34301" lon="2.89988">
        <ele>159.71618652344</ele>
        <time>2011-06-12T09:35:31Z</time>
      </trkpt>
      <trkpt lat="43.34293" lon="2.90036">
        <ele>157.79357910156</ele>
        <time>2011-06-12T09:35:36Z</time>
      </trkpt>
      <trkpt lat="43.34281" lon="2.90064">
        <ele>153.94836425781</ele>
        <time>2011-06-12T09:35:43Z</time>
      </trkpt>
      <trkpt lat="43.34247" lon="2.9009">
        <ele>148.18041992188</ele>
        <time>2011-06-12T09:35:53Z</time>
      </trkpt>
      <trkpt lat="43.34221" lon="2.90134">
        <ele>141.45104980469</ele>
        <time>2011-06-12T09:36:00Z</time>
      </trkpt>
      <trkpt lat="43.3421" lon="2.90149">
        <ele>138.56726074219</ele>
        <time>2011-06-12T09:36:03Z</time>
      </trkpt>
      <trkpt lat="43.34202" lon="2.9016">
        <ele>133.76049804688</ele>
        <time>2011-06-12T09:36:09Z</time>
      </trkpt>
      <trkpt lat="43.34194" lon="2.90168">
        <ele>132.79931640625</ele>
        <time>2011-06-12T09:36:12Z</time>
      </trkpt>
      <trkpt lat="43.34188" lon="2.90174">
        <ele>129.91528320312</ele>
        <time>2011-06-12T09:36:15Z</time>
      </trkpt>
      <trkpt lat="43.34218" lon="2.9026">
        <ele>127.51196289062</ele>
        <time>2011-06-12T09:36:21Z</time>
      </trkpt>
      <trkpt lat="43.34184" lon="2.9028">
        <ele>127.51196289062</ele>
        <time>2011-06-12T09:36:30Z</time>
      </trkpt>
      <trkpt lat="43.34176" lon="2.90291">
        <ele>127.51196289062</ele>
        <time>2011-06-12T09:36:34Z</time>
      </trkpt>
      <trkpt lat="43.34157" lon="2.90324">
        <ele>129.43469238281</ele>
        <time>2011-06-12T09:36:43Z</time>
      </trkpt>
      <trkpt lat="43.34156" lon="2.90329">
        <ele>129.43469238281</ele>
        <time>2011-06-12T09:36:44Z</time>
      </trkpt>
      <trkpt lat="43.34146" lon="2.90331">
        <ele>130.87670898438</ele>
        <time>2011-06-12T09:36:48Z</time>
      </trkpt>
      <trkpt lat="43.34115" lon="2.9034">
        <ele>138.08654785156</ele>
        <time>2011-06-12T09:37:03Z</time>
      </trkpt>
      <trkpt lat="43.34095" lon="2.90346">
        <ele>141.45104980469</ele>
        <time>2011-06-12T09:37:15Z</time>
      </trkpt>
      <trkpt lat="43.34061" lon="2.90383">
        <ele>142.41247558594</ele>
        <time>2011-06-12T09:37:30Z</time>
      </trkpt>
      <trkpt lat="43.34039" lon="2.9042">
        <ele>140.97045898438</ele>
        <time>2011-06-12T09:37:41Z</time>
      </trkpt>
      <trkpt lat="43.3403" lon="2.90438">
        <ele>139.52844238281</ele>
        <time>2011-06-12T09:37:46Z</time>
      </trkpt>
      <trkpt lat="43.34017" lon="2.90443">
        <ele>138.56726074219</ele>
        <time>2011-06-12T09:37:51Z</time>
      </trkpt>
      <trkpt lat="43.34005" lon="2.90471">
        <ele>134.72192382812</ele>
        <time>2011-06-12T09:38:02Z</time>
      </trkpt>
      <trkpt lat="43.34037" lon="2.90475">
        <ele>139.0478515625</ele>
        <time>2011-06-12T09:38:21Z</time>
      </trkpt>
      <trkpt lat="43.34073" lon="2.90467">
        <ele>142.41247558594</ele>
        <time>2011-06-12T09:38:41Z</time>
      </trkpt>
      <trkpt lat="43.3411" lon="2.90459">
        <ele>144.81579589844</ele>
        <time>2011-06-12T09:39:04Z</time>
      </trkpt>
      <trkpt lat="43.34111" lon="2.90459">
        <ele>144.33520507812</ele>
        <time>2011-06-12T09:40:50Z</time>
      </trkpt>
      <trkpt lat="43.34132" lon="2.90466">
        <ele>143.85437011719</ele>
        <time>2011-06-12T09:41:15Z</time>
      </trkpt>
      <trkpt lat="43.34188" lon="2.90479">
        <ele>144.33520507812</ele>
        <time>2011-06-12T09:41:34Z</time>
      </trkpt>
      <trkpt lat="43.34241" lon="2.90487">
        <ele>148.66101074219</ele>
        <time>2011-06-12T09:41:55Z</time>
      </trkpt>
      <trkpt lat="43.34278" lon="2.90487">
        <ele>147.21899414062</ele>
        <time>2011-06-12T09:42:09Z</time>
      </trkpt>
      <trkpt lat="43.34284" lon="2.90507">
        <ele>147.21899414062</ele>
        <time>2011-06-12T09:42:15Z</time>
      </trkpt>
      <trkpt lat="43.34282" lon="2.90511">
        <ele>147.69970703125</ele>
        <time>2011-06-12T09:42:16Z</time>
      </trkpt>
      <trkpt lat="43.3428" lon="2.90555">
        <ele>148.66101074219</ele>
        <time>2011-06-12T09:42:27Z</time>
      </trkpt>
      <trkpt lat="43.34274" lon="2.90589">
        <ele>153.46765136719</ele>
        <time>2011-06-12T09:42:39Z</time>
      </trkpt>
      <trkpt lat="43.34274" lon="2.90597">
        <ele>155.39025878906</ele>
        <time>2011-06-12T09:42:42Z</time>
      </trkpt>
      <trkpt lat="43.34274" lon="2.90624">
        <ele>155.87097167969</ele>
        <time>2011-06-12T09:42:52Z</time>
      </trkpt>
      <trkpt lat="43.34276" lon="2.90642">
        <ele>157.79357910156</ele>
        <time>2011-06-12T09:42:59Z</time>
      </trkpt>
      <trkpt lat="43.34277" lon="2.90646">
        <ele>158.27416992188</ele>
        <time>2011-06-12T09:43:01Z</time>
      </trkpt>
      <trkpt lat="43.34288" lon="2.90659">
        <ele>160.67749023438</ele>
        <time>2011-06-12T09:43:08Z</time>
      </trkpt>
      <trkpt lat="43.34293" lon="2.90701">
        <ele>165.00341796875</ele>
        <time>2011-06-12T09:43:26Z</time>
      </trkpt>
      <trkpt lat="43.34296" lon="2.90706">
        <ele>165.48413085938</ele>
        <time>2011-06-12T09:43:29Z</time>
      </trkpt>
      <trkpt lat="43.34304" lon="2.90714">
        <ele>167.40673828125</ele>
        <time>2011-06-12T09:43:35Z</time>
      </trkpt>
      <trkpt lat="43.34316" lon="2.90715">
        <ele>170.29064941406</ele>
        <time>2011-06-12T09:43:42Z</time>
      </trkpt>
      <trkpt lat="43.34358" lon="2.9069">
        <ele>167.88732910156</ele>
        <time>2011-06-12T09:44:01Z</time>
      </trkpt>
      <trkpt lat="43.34379" lon="2.90677">
        <ele>167.88732910156</ele>
        <time>2011-06-12T09:44:11Z</time>
      </trkpt>
      <trkpt lat="43.3439" lon="2.90691">
        <ele>165.96472167969</ele>
        <time>2011-06-12T09:44:16Z</time>
      </trkpt>
      <trkpt lat="43.34415" lon="2.90698">
        <ele>165.48413085938</ele>
        <time>2011-06-12T09:44:24Z</time>
      </trkpt>
      <trkpt lat="43.34429" lon="2.90694">
        <ele>163.5615234375</ele>
        <time>2011-06-12T09:44:29Z</time>
      </trkpt>
      <trkpt lat="43.34426" lon="2.90713">
        <ele>164.04211425781</ele>
        <time>2011-06-12T09:44:35Z</time>
      </trkpt>
      <trkpt lat="43.34419" lon="2.90736">
        <ele>164.52270507812</ele>
        <time>2011-06-12T09:44:40Z</time>
      </trkpt>
      <trkpt lat="43.34403" lon="2.90749">
        <ele>159.71618652344</ele>
        <time>2011-06-12T09:44:46Z</time>
      </trkpt>
      <trkpt lat="43.34392" lon="2.90757">
        <ele>157.79357910156</ele>
        <time>2011-06-12T09:44:51Z</time>
      </trkpt>
      <trkpt lat="43.34396" lon="2.90711">
        <ele>157.31286621094</ele>
        <time>2011-06-12T09:44:53Z</time>
      </trkpt>
      <trkpt lat="43.34376" lon="2.90786">
        <ele>152.50634765625</ele>
        <time>2011-06-12T09:44:58Z</time>
      </trkpt>
      <trkpt lat="43.34363" lon="2.90794">
        <ele>152.02575683594</ele>
        <time>2011-06-12T09:45:02Z</time>
      </trkpt>
      <trkpt lat="43.34358" lon="2.90803">
        <ele>151.06420898438</ele>
        <time>2011-06-12T09:45:04Z</time>
      </trkpt>
      <trkpt lat="43.34343" lon="2.90818">
        <ele>150.10302734375</ele>
        <time>2011-06-12T09:45:08Z</time>
      </trkpt>
      <trkpt lat="43.34337" lon="2.90825">
        <ele>150.58361816406</ele>
        <time>2011-06-12T09:45:10Z</time>
      </trkpt>
      <trkpt lat="43.34334" lon="2.90829">
        <ele>150.58361816406</ele>
        <time>2011-06-12T09:45:13Z</time>
      </trkpt>
      <trkpt lat="43.34326" lon="2.90838">
        <ele>150.58361816406</ele>
        <time>2011-06-12T09:45:17Z</time>
      </trkpt>
      <trkpt lat="43.34312" lon="2.90846">
        <ele>149.62231445312</ele>
        <time>2011-06-12T09:45:21Z</time>
      </trkpt>
      <trkpt lat="43.34306" lon="2.90845">
        <ele>147.21899414062</ele>
        <time>2011-06-12T09:45:23Z</time>
      </trkpt>
      <trkpt lat="43.3429" lon="2.90855">
        <ele>145.29638671875</ele>
        <time>2011-06-12T09:45:31Z</time>
      </trkpt>
      <trkpt lat="43.3429" lon="2.90854">
        <ele>144.81579589844</ele>
        <time>2011-06-12T09:45:34Z</time>
      </trkpt>
      <trkpt lat="43.34291" lon="2.90841">
        <ele>141.93176269531</ele>
        <time>2011-06-12T09:45:39Z</time>
      </trkpt>
      <trkpt lat="43.34274" lon="2.90837">
        <ele>134.72192382812</ele>
        <time>2011-06-12T09:45:47Z</time>
      </trkpt>
      <trkpt lat="43.34265" lon="2.90839">
        <ele>129.43469238281</ele>
        <time>2011-06-12T09:45:56Z</time>
      </trkpt>
      <trkpt lat="43.34241" lon="2.90838">
        <ele>128.9541015625</ele>
        <time>2011-06-12T09:46:06Z</time>
      </trkpt>
      <trkpt lat="43.34227" lon="2.90839">
        <ele>126.55065917969</ele>
        <time>2011-06-12T09:46:11Z</time>
      </trkpt>
      <trkpt lat="43.34213" lon="2.90839">
        <ele>128.47338867188</ele>
        <time>2011-06-12T09:46:17Z</time>
      </trkpt>
      <trkpt lat="43.34204" lon="2.90833">
        <ele>126.55065917969</ele>
        <time>2011-06-12T09:46:28Z</time>
      </trkpt>
      <trkpt lat="43.34204" lon="2.90832">
        <ele>127.03137207031</ele>
        <time>2011-06-12T09:46:30Z</time>
      </trkpt>
      <trkpt lat="43.34198" lon="2.90824">
        <ele>127.03137207031</ele>
        <time>2011-06-12T09:46:34Z</time>
      </trkpt>
      <trkpt lat="43.34189" lon="2.90784">
        <ele>129.43469238281</ele>
        <time>2011-06-12T09:46:45Z</time>
      </trkpt>
      <trkpt lat="43.34185" lon="2.90782">
        <ele>126.55065917969</ele>
        <time>2011-06-12T09:46:49Z</time>
      </trkpt>
      <trkpt lat="43.3418" lon="2.90792">
        <ele>125.58935546875</ele>
        <time>2011-06-12T09:46:52Z</time>
      </trkpt>
      <trkpt lat="43.34168" lon="2.90814">
        <ele>123.66674804688</ele>
        <time>2011-06-12T09:46:58Z</time>
      </trkpt>
      <trkpt lat="43.34157" lon="2.90813">
        <ele>122.22473144531</ele>
        <time>2011-06-12T09:47:01Z</time>
      </trkpt>
      <trkpt lat="43.34131" lon="2.90812">
        <ele>117.41821289062</ele>
        <time>2011-06-12T09:47:06Z</time>
      </trkpt>
      <trkpt lat="43.34094" lon="2.90798">
        <ele>111.16955566406</ele>
        <time>2011-06-12T09:47:13Z</time>
      </trkpt>
      <trkpt lat="43.34089" lon="2.9081">
        <ele>110.68884277344</ele>
        <time>2011-06-12T09:47:26Z</time>
      </trkpt>
      <trkpt lat="43.34089" lon="2.90809">
        <ele>110.68884277344</ele>
        <time>2011-06-12T09:47:31Z</time>
      </trkpt>
      <trkpt lat="43.34094" lon="2.9081">
        <ele>111.16955566406</ele>
        <time>2011-06-12T09:47:47Z</time>
      </trkpt>
      <trkpt lat="43.34095" lon="2.90811">
        <ele>111.65026855469</ele>
        <time>2011-06-12T09:48:31Z</time>
      </trkpt>
      <trkpt lat="43.34095" lon="2.90812">
        <ele>111.16955566406</ele>
        <time>2011-06-12T09:49:26Z</time>
      </trkpt>
      <trkpt lat="43.34094" lon="2.90813">
        <ele>111.16955566406</ele>
        <time>2011-06-12T09:49:37Z</time>
      </trkpt>
      <trkpt lat="43.34101" lon="2.90851">
        <ele>110.68884277344</ele>
        <time>2011-06-12T09:49:49Z</time>
      </trkpt>
      <trkpt lat="43.341" lon="2.908">
        <ele>108.28564453125</ele>
        <time>2011-06-12T09:49:53Z</time>
      </trkpt>
      <trkpt lat="43.34029" lon="2.909">
        <ele>100.59509277344</ele>
        <time>2011-06-12T09:50:02Z</time>
      </trkpt>
      <trkpt lat="43.34025" lon="2.909">
        <ele>99.6337890625</ele>
        <time>2011-06-12T09:50:04Z</time>
      </trkpt>
      <trkpt lat="43.34036" lon="2.90907">
        <ele>100.11450195312</ele>
        <time>2011-06-12T09:50:10Z</time>
      </trkpt>
      <trkpt lat="43.34064" lon="2.9095">
        <ele>104.4404296875</ele>
        <time>2011-06-12T09:50:29Z</time>
      </trkpt>
      <trkpt lat="43.34098" lon="2.9098">
        <ele>113.09228515625</ele>
        <time>2011-06-12T09:50:53Z</time>
      </trkpt>
      <trkpt lat="43.34114" lon="2.9102">
        <ele>121.26354980469</ele>
        <time>2011-06-12T09:51:17Z</time>
      </trkpt>
      <trkpt lat="43.3413" lon="2.91057">
        <ele>126.06994628906</ele>
        <time>2011-06-12T09:51:41Z</time>
      </trkpt>
      <trkpt lat="43.34147" lon="2.91104">
        <ele>132.79931640625</ele>
        <time>2011-06-12T09:52:07Z</time>
      </trkpt>
      <trkpt lat="43.34174" lon="2.91136">
        <ele>134.2412109375</ele>
        <time>2011-06-12T09:52:24Z</time>
      </trkpt>
      <trkpt lat="43.34207" lon="2.91171">
        <ele>135.20251464844</ele>
        <time>2011-06-12T09:52:38Z</time>
      </trkpt>
      <trkpt lat="43.3423" lon="2.91198">
        <ele>136.16394042969</ele>
        <time>2011-06-12T09:52:51Z</time>
      </trkpt>
      <trkpt lat="43.34233" lon="2.91225">
        <ele>135.20251464844</ele>
        <time>2011-06-12T09:52:56Z</time>
      </trkpt>
      <trkpt lat="43.34236" lon="2.9128">
        <ele>140.48986816406</ele>
        <time>2011-06-12T09:53:11Z</time>
      </trkpt>
      <trkpt lat="43.34246" lon="2.91329">
        <ele>145.29638671875</ele>
        <time>2011-06-12T09:53:31Z</time>
      </trkpt>
      <trkpt lat="43.34257" lon="2.91372">
        <ele>150.58361816406</ele>
        <time>2011-06-12T09:53:52Z</time>
      </trkpt>
      <trkpt lat="43.34269" lon="2.91404">
        <ele>153.46765136719</ele>
        <time>2011-06-12T09:54:10Z</time>
      </trkpt>
      <trkpt lat="43.34273" lon="2.91413">
        <ele>155.87097167969</ele>
        <time>2011-06-12T09:54:16Z</time>
      </trkpt>
      <trkpt lat="43.34282" lon="2.9145">
        <ele>160.67749023438</ele>
        <time>2011-06-12T09:54:34Z</time>
      </trkpt>
      <trkpt lat="43.3428" lon="2.9148">
        <ele>164.04211425781</ele>
        <time>2011-06-12T09:54:47Z</time>
      </trkpt>
      <trkpt lat="43.34271" lon="2.91526">
        <ele>168.36804199219</ele>
        <time>2011-06-12T09:55:11Z</time>
      </trkpt>
      <trkpt lat="43.3426" lon="2.91574">
        <ele>174.13586425781</ele>
        <time>2011-06-12T09:55:37Z</time>
      </trkpt>
      <trkpt lat="43.34251" lon="2.91609">
        <ele>178.4619140625</ele>
        <time>2011-06-12T09:55:59Z</time>
      </trkpt>
      <trkpt lat="43.34246" lon="2.91638">
        <ele>184.71057128906</ele>
        <time>2011-06-12T09:56:21Z</time>
      </trkpt>
      <trkpt lat="43.34253" lon="2.91675">
        <ele>188.07507324219</ele>
        <time>2011-06-12T09:56:42Z</time>
      </trkpt>
      <trkpt lat="43.34275" lon="2.91699">
        <ele>191.43957519531</ele>
        <time>2011-06-12T09:56:59Z</time>
      </trkpt>
      <trkpt lat="43.3428" lon="2.91706">
        <ele>191.43957519531</ele>
        <time>2011-06-12T09:57:14Z</time>
      </trkpt>
      <trkpt lat="43.3429" lon="2.91719">
        <ele>192.40112304688</ele>
        <time>2011-06-12T09:59:07Z</time>
      </trkpt>
      <trkpt lat="43.34322" lon="2.91772">
        <ele>194.80432128906</ele>
        <time>2011-06-12T09:59:27Z</time>
      </trkpt>
      <trkpt lat="43.34344" lon="2.91821">
        <ele>195.28491210938</ele>
        <time>2011-06-12T09:59:40Z</time>
      </trkpt>
      <trkpt lat="43.34362" lon="2.91892">
        <ele>197.68823242188</ele>
        <time>2011-06-12T09:59:58Z</time>
      </trkpt>
      <trkpt lat="43.34371" lon="2.91937">
        <ele>198.64953613281</ele>
        <time>2011-06-12T10:00:10Z</time>
      </trkpt>
      <trkpt lat="43.34382" lon="2.91938">
        <ele>199.13012695312</ele>
        <time>2011-06-12T10:00:14Z</time>
      </trkpt>
      <trkpt lat="43.34438" lon="2.91915">
        <ele>201.05285644531</ele>
        <time>2011-06-12T10:00:34Z</time>
      </trkpt>
      <trkpt lat="43.34441" lon="2.91897">
        <ele>200.572265625</ele>
        <time>2011-06-12T10:00:38Z</time>
      </trkpt>
      <trkpt lat="43.34437" lon="2.91831">
        <ele>198.1689453125</ele>
        <time>2011-06-12T10:00:48Z</time>
      </trkpt>
      <trkpt lat="43.34436" lon="2.91818">
        <ele>198.1689453125</ele>
        <time>2011-06-12T10:00:50Z</time>
      </trkpt>
      <trkpt lat="43.34435" lon="2.91766">
        <ele>198.64953613281</ele>
        <time>2011-06-12T10:00:58Z</time>
      </trkpt>
      <trkpt lat="43.34443" lon="2.91679">
        <ele>200.09167480469</ele>
        <time>2011-06-12T10:01:14Z</time>
      </trkpt>
      <trkpt lat="43.3447" lon="2.91555">
        <ele>199.61083984375</ele>
        <time>2011-06-12T10:01:33Z</time>
      </trkpt>
      <trkpt lat="43.34485" lon="2.91499">
        <ele>200.09167480469</ele>
        <time>2011-06-12T10:01:42Z</time>
      </trkpt>
      <trkpt lat="43.34506" lon="2.91487">
        <ele>199.61083984375</ele>
        <time>2011-06-12T10:01:49Z</time>
      </trkpt>
      <trkpt lat="43.34522" lon="2.91493">
        <ele>199.13012695312</ele>
        <time>2011-06-12T10:01:53Z</time>
      </trkpt>
      <trkpt lat="43.34545" lon="2.91475">
        <ele>198.1689453125</ele>
        <time>2011-06-12T10:02:00Z</time>
      </trkpt>
      <trkpt lat="43.34581" lon="2.91346">
        <ele>198.64953613281</ele>
        <time>2011-06-12T10:02:22Z</time>
      </trkpt>
      <trkpt lat="43.34609" lon="2.91222">
        <ele>198.1689453125</ele>
        <time>2011-06-12T10:02:40Z</time>
      </trkpt>
      <trkpt lat="43.3462" lon="2.91165">
        <ele>196.72692871094</ele>
        <time>2011-06-12T10:02:49Z</time>
      </trkpt>
      <trkpt lat="43.34648" lon="2.91037">
        <ele>196.72692871094</ele>
        <time>2011-06-12T10:03:10Z</time>
      </trkpt>
      <trkpt lat="43.3466" lon="2.91003">
        <ele>197.68823242188</ele>
        <time>2011-06-12T10:03:17Z</time>
      </trkpt>
      <trkpt lat="43.34652" lon="2.90994">
        <ele>198.1689453125</ele>
        <time>2011-06-12T10:03:21Z</time>
      </trkpt>
      <trkpt lat="43.34643" lon="2.90991">
        <ele>198.1689453125</ele>
        <time>2011-06-12T10:03:23Z</time>
      </trkpt>
      <trkpt lat="43.34636" lon="2.90981">
        <ele>198.64953613281</ele>
        <time>2011-06-12T10:03:28Z</time>
      </trkpt>
      <trkpt lat="43.34678" lon="2.90841">
        <ele>199.61083984375</ele>
        <time>2011-06-12T10:03:54Z</time>
      </trkpt>
      <trkpt lat="43.34694" lon="2.90747">
        <ele>201.05285644531</ele>
        <time>2011-06-12T10:04:10Z</time>
      </trkpt>
      <trkpt lat="43.34707" lon="2.90699">
        <ele>201.53356933594</ele>
        <time>2011-06-12T10:04:18Z</time>
      </trkpt>
      <trkpt lat="43.34712" lon="2.90643">
        <ele>202.01428222656</ele>
        <time>2011-06-12T10:04:27Z</time>
      </trkpt>
      <trkpt lat="43.34732" lon="2.90537">
        <ele>202.97546386719</ele>
        <time>2011-06-12T10:04:46Z</time>
      </trkpt>
      <trkpt lat="43.3474" lon="2.90486">
        <ele>202.97546386719</ele>
        <time>2011-06-12T10:04:57Z</time>
      </trkpt>
      <trkpt lat="43.34748" lon="2.90437">
        <ele>202.97546386719</ele>
        <time>2011-06-12T10:05:10Z</time>
      </trkpt>
      <trkpt lat="43.34766" lon="2.90334">
        <ele>206.34008789062</ele>
        <time>2011-06-12T10:05:32Z</time>
      </trkpt>
      <trkpt lat="43.34788" lon="2.90203">
        <ele>210.18542480469</ele>
        <time>2011-06-12T10:05:59Z</time>
      </trkpt>
      <trkpt lat="43.34816" lon="2.9011">
        <ele>211.62744140625</ele>
        <time>2011-06-12T10:06:18Z</time>
      </trkpt>
      <trkpt lat="43.34854" lon="2.90001">
        <ele>211.62744140625</ele>
        <time>2011-06-12T10:06:39Z</time>
      </trkpt>
      <trkpt lat="43.34881" lon="2.89932">
        <ele>211.14672851562</ele>
        <time>2011-06-12T10:06:51Z</time>
      </trkpt>
      <trkpt lat="43.34895" lon="2.89927">
        <ele>211.62744140625</ele>
        <time>2011-06-12T10:06:56Z</time>
      </trkpt>
      <trkpt lat="43.34979" lon="2.89984">
        <ele>210.18542480469</ele>
        <time>2011-06-12T10:07:15Z</time>
      </trkpt>
      <trkpt lat="43.34993" lon="2.8997">
        <ele>209.22412109375</ele>
        <time>2011-06-12T10:07:23Z</time>
      </trkpt>
      <trkpt lat="43.3496" lon="2.89851">
        <ele>211.14672851562</ele>
        <time>2011-06-12T10:07:46Z</time>
      </trkpt>
      <trkpt lat="43.34919" lon="2.89769">
        <ele>212.10803222656</ele>
        <time>2011-06-12T10:08:04Z</time>
      </trkpt>
      <trkpt lat="43.34955" lon="2.89722">
        <ele>212.10803222656</ele>
        <time>2011-06-12T10:08:16Z</time>
      </trkpt>
      <trkpt lat="43.35034" lon="2.89617">
        <ele>212.10803222656</ele>
        <time>2011-06-12T10:08:40Z</time>
      </trkpt>
      <trkpt lat="43.35131" lon="2.89491">
        <ele>212.58862304688</ele>
        <time>2011-06-12T10:09:10Z</time>
      </trkpt>
      <trkpt lat="43.35137" lon="2.89482">
        <ele>213.0693359375</ele>
        <time>2011-06-12T10:09:12Z</time>
      </trkpt>
      <trkpt lat="43.35147" lon="2.89453">
        <ele>213.55004882812</ele>
        <time>2011-06-12T10:09:17Z</time>
      </trkpt>
      <trkpt lat="43.35165" lon="2.89437">
        <ele>214.03063964844</ele>
        <time>2011-06-12T10:09:22Z</time>
      </trkpt>
      <trkpt lat="43.35241" lon="2.89373">
        <ele>217.8759765625</ele>
        <time>2011-06-12T10:09:44Z</time>
      </trkpt>
      <trkpt lat="43.35303" lon="2.8934">
        <ele>223.16320800781</ele>
        <time>2011-06-12T10:10:02Z</time>
      </trkpt>
      <trkpt lat="43.35391" lon="2.89329">
        <ele>229.41174316406</ele>
        <time>2011-06-12T10:10:29Z</time>
      </trkpt>
      <trkpt lat="43.35453" lon="2.89315">
        <ele>232.77648925781</ele>
        <time>2011-06-12T10:10:51Z</time>
      </trkpt>
      <trkpt lat="43.35474" lon="2.89285">
        <ele>234.69909667969</ele>
        <time>2011-06-12T10:11:03Z</time>
      </trkpt>
      <trkpt lat="43.35521" lon="2.89222">
        <ele>237.10229492188</ele>
        <time>2011-06-12T10:11:23Z</time>
      </trkpt>
      <trkpt lat="43.35522" lon="2.89199">
        <ele>237.10229492188</ele>
        <time>2011-06-12T10:11:27Z</time>
      </trkpt>
      <trkpt lat="43.35542" lon="2.89174">
        <ele>238.06359863281</ele>
        <time>2011-06-12T10:11:33Z</time>
      </trkpt>
      <trkpt lat="43.35597" lon="2.89124">
        <ele>239.98620605469</ele>
        <time>2011-06-12T10:11:51Z</time>
      </trkpt>
      <trkpt lat="43.3565" lon="2.89086">
        <ele>240.46704101562</ele>
        <time>2011-06-12T10:12:08Z</time>
      </trkpt>
      <trkpt lat="43.35721" lon="2.89069">
        <ele>242.87023925781</ele>
        <time>2011-06-12T10:12:24Z</time>
      </trkpt>
      <trkpt lat="43.35797" lon="2.89076">
        <ele>241.90893554688</ele>
        <time>2011-06-12T10:12:38Z</time>
      </trkpt>
      <trkpt lat="43.35815" lon="2.89075">
        <ele>241.42822265625</ele>
        <time>2011-06-12T10:12:41Z</time>
      </trkpt>
      <trkpt lat="43.35833" lon="2.89073">
        <ele>241.90893554688</ele>
        <time>2011-06-12T10:12:45Z</time>
      </trkpt>
      <trkpt lat="43.35845" lon="2.89072">
        <ele>241.90893554688</ele>
        <time>2011-06-12T10:12:48Z</time>
      </trkpt>
      <trkpt lat="43.35871" lon="2.89066">
        <ele>241.42822265625</ele>
        <time>2011-06-12T10:12:53Z</time>
      </trkpt>
      <trkpt lat="43.35926" lon="2.89044">
        <ele>243.35083007812</ele>
        <time>2011-06-12T10:13:05Z</time>
      </trkpt>
      <trkpt lat="43.35967" lon="2.89014">
        <ele>244.31225585938</ele>
        <time>2011-06-12T10:13:15Z</time>
      </trkpt>
      <trkpt lat="43.36041" lon="2.88997">
        <ele>245.2734375</ele>
        <time>2011-06-12T10:13:31Z</time>
      </trkpt>
      <trkpt lat="43.36059" lon="2.88994">
        <ele>245.75415039062</ele>
        <time>2011-06-12T10:13:36Z</time>
      </trkpt>
      <trkpt lat="43.36072" lon="2.8901">
        <ele>245.75415039062</ele>
        <time>2011-06-12T10:13:41Z</time>
      </trkpt>
      <trkpt lat="43.36084" lon="2.89017">
        <ele>245.2734375</ele>
        <time>2011-06-12T10:13:44Z</time>
      </trkpt>
      <trkpt lat="43.36129" lon="2.89049">
        <ele>244.79284667969</ele>
        <time>2011-06-12T10:13:58Z</time>
      </trkpt>
      <trkpt lat="43.36133" lon="2.8905">
        <ele>244.31225585938</ele>
        <time>2011-06-12T10:13:59Z</time>
      </trkpt>
      <trkpt lat="43.36141" lon="2.89054">
        <ele>244.31225585938</ele>
        <time>2011-06-12T10:14:01Z</time>
      </trkpt>
      <trkpt lat="43.36179" lon="2.89085">
        <ele>244.31225585938</ele>
        <time>2011-06-12T10:14:12Z</time>
      </trkpt>
      <trkpt lat="43.36183" lon="2.89099">
        <ele>244.31225585938</ele>
        <time>2011-06-12T10:14:15Z</time>
      </trkpt>
      <trkpt lat="43.36203" lon="2.89103">
        <ele>243.35083007812</ele>
        <time>2011-06-12T10:14:20Z</time>
      </trkpt>
      <trkpt lat="43.36254" lon="2.89114">
        <ele>247.19604492188</ele>
        <time>2011-06-12T10:14:33Z</time>
      </trkpt>
      <trkpt lat="43.36257" lon="2.89115">
        <ele>247.6767578125</ele>
        <time>2011-06-12T10:14:34Z</time>
      </trkpt>
      <trkpt lat="43.36272" lon="2.89118">
        <ele>249.59948730469</ele>
        <time>2011-06-12T10:14:38Z</time>
      </trkpt>
      <trkpt lat="43.36314" lon="2.89131">
        <ele>249.11877441406</ele>
        <time>2011-06-12T10:14:49Z</time>
      </trkpt>
      <trkpt lat="43.36326" lon="2.89142">
        <ele>247.19604492188</ele>
        <time>2011-06-12T10:14:53Z</time>
      </trkpt>
      <trkpt lat="43.36333" lon="2.89151">
        <ele>248.15759277344</ele>
        <time>2011-06-12T10:14:56Z</time>
      </trkpt>
      <trkpt lat="43.36322" lon="2.89183">
        <ele>244.31225585938</ele>
        <time>2011-06-12T10:15:00Z</time>
      </trkpt>
      <trkpt lat="43.36305" lon="2.89201">
        <ele>241.90893554688</ele>
        <time>2011-06-12T10:15:05Z</time>
      </trkpt>
      <trkpt lat="43.36293" lon="2.89211">
        <ele>241.90893554688</ele>
        <time>2011-06-12T10:15:08Z</time>
      </trkpt>
      <trkpt lat="43.36265" lon="2.89248">
        <ele>243.35083007812</ele>
        <time>2011-06-12T10:15:16Z</time>
      </trkpt>
      <trkpt lat="43.36253" lon="2.89266">
        <ele>240.94763183594</ele>
        <time>2011-06-12T10:15:20Z</time>
      </trkpt>
      <trkpt lat="43.36235" lon="2.89256">
        <ele>244.31225585938</ele>
        <time>2011-06-12T10:15:25Z</time>
      </trkpt>
      <trkpt lat="43.36204" lon="2.89223">
        <ele>243.83154296875</ele>
        <time>2011-06-12T10:15:36Z</time>
      </trkpt>
      <trkpt lat="43.36199" lon="2.89223">
        <ele>243.83154296875</ele>
        <time>2011-06-12T10:15:38Z</time>
      </trkpt>
      <trkpt lat="43.36196" lon="2.89225">
        <ele>244.31225585938</ele>
        <time>2011-06-12T10:15:41Z</time>
      </trkpt>
      <trkpt lat="43.3619" lon="2.89227">
        <ele>243.83154296875</ele>
        <time>2011-06-12T10:15:45Z</time>
      </trkpt>
      <trkpt lat="43.3618" lon="2.89235">
        <ele>244.31225585938</ele>
        <time>2011-06-12T10:15:50Z</time>
      </trkpt>
      <trkpt lat="43.36171" lon="2.89231">
        <ele>243.83154296875</ele>
        <time>2011-06-12T10:15:54Z</time>
      </trkpt>
      <trkpt lat="43.36161" lon="2.89238">
        <ele>241.42822265625</ele>
        <time>2011-06-12T10:16:01Z</time>
      </trkpt>
      <trkpt lat="43.36143" lon="2.89277">
        <ele>236.62170410156</ele>
        <time>2011-06-12T10:16:12Z</time>
      </trkpt>
      <trkpt lat="43.36145" lon="2.89282">
        <ele>236.14099121094</ele>
        <time>2011-06-12T10:16:22Z</time>
      </trkpt>
      <trkpt lat="43.36143" lon="2.89295">
        <ele>235.66027832031</ele>
        <time>2011-06-12T10:16:27Z</time>
      </trkpt>
      <trkpt lat="43.36128" lon="2.89321">
        <ele>230.373046875</ele>
        <time>2011-06-12T10:16:33Z</time>
      </trkpt>
      <trkpt lat="43.36123" lon="2.89325">
        <ele>228.93115234375</ele>
        <time>2011-06-12T10:16:35Z</time>
      </trkpt>
      <trkpt lat="43.36113" lon="2.89355">
        <ele>222.68249511719</ele>
        <time>2011-06-12T10:16:43Z</time>
      </trkpt>
      <trkpt lat="43.36113" lon="2.89365">
        <ele>222.20178222656</ele>
        <time>2011-06-12T10:16:46Z</time>
      </trkpt>
      <trkpt lat="43.36112" lon="2.89371">
        <ele>220.27917480469</ele>
        <time>2011-06-12T10:16:48Z</time>
      </trkpt>
      <trkpt lat="43.36114" lon="2.89405">
        <ele>215.47265625</ele>
        <time>2011-06-12T10:16:58Z</time>
      </trkpt>
      <trkpt lat="43.36117" lon="2.89444">
        <ele>203.93688964844</ele>
        <time>2011-06-12T10:17:08Z</time>
      </trkpt>
      <trkpt lat="43.36115" lon="2.8946">
        <ele>201.05285644531</ele>
        <time>2011-06-12T10:17:14Z</time>
      </trkpt>
      <trkpt lat="43.36119" lon="2.89465">
        <ele>199.61083984375</ele>
        <time>2011-06-12T10:17:16Z</time>
      </trkpt>
      <trkpt lat="43.36142" lon="2.89483">
        <ele>195.28491210938</ele>
        <time>2011-06-12T10:17:25Z</time>
      </trkpt>
      <trkpt lat="43.36146" lon="2.89488">
        <ele>193.84301757812</ele>
        <time>2011-06-12T10:17:33Z</time>
      </trkpt>
      <trkpt lat="43.3615" lon="2.89498">
        <ele>192.88171386719</ele>
        <time>2011-06-12T10:17:44Z</time>
      </trkpt>
      <trkpt lat="43.36151" lon="2.895">
        <ele>193.3623046875</ele>
        <time>2011-06-12T10:17:46Z</time>
      </trkpt>
      <trkpt lat="43.36153" lon="2.89508">
        <ele>193.3623046875</ele>
        <time>2011-06-12T10:17:49Z</time>
      </trkpt>
      <trkpt lat="43.36164" lon="2.89528">
        <ele>190.958984375</ele>
        <time>2011-06-12T10:17:54Z</time>
      </trkpt>
      <trkpt lat="43.36178" lon="2.89545">
        <ele>190.958984375</ele>
        <time>2011-06-12T10:17:59Z</time>
      </trkpt>
      <trkpt lat="43.36183" lon="2.8958">
        <ele>184.22985839844</ele>
        <time>2011-06-12T10:18:05Z</time>
      </trkpt>
      <trkpt lat="43.36174" lon="2.89586">
        <ele>182.30712890625</ele>
        <time>2011-06-12T10:18:08Z</time>
      </trkpt>
      <trkpt lat="43.36144" lon="2.89589">
        <ele>177.02001953125</ele>
        <time>2011-06-12T10:18:15Z</time>
      </trkpt>
      <trkpt lat="43.36122" lon="2.89597">
        <ele>173.17468261719</ele>
        <time>2011-06-12T10:18:21Z</time>
      </trkpt>
      <trkpt lat="43.3611" lon="2.8962">
        <ele>167.40673828125</ele>
        <time>2011-06-12T10:18:26Z</time>
      </trkpt>
      <trkpt lat="43.36114" lon="2.8964">
        <ele>164.04211425781</ele>
        <time>2011-06-12T10:18:30Z</time>
      </trkpt>
      <trkpt lat="43.36117" lon="2.8965">
        <ele>161.63891601562</ele>
        <time>2011-06-12T10:18:32Z</time>
      </trkpt>
      <trkpt lat="43.36126" lon="2.89665">
        <ele>157.79357910156</ele>
        <time>2011-06-12T10:18:35Z</time>
      </trkpt>
      <trkpt lat="43.36116" lon="2.89747">
        <ele>156.83215332031</ele>
        <time>2011-06-12T10:18:39Z</time>
      </trkpt>
      <trkpt lat="43.36134" lon="2.8976">
        <ele>156.83215332031</ele>
        <time>2011-06-12T10:18:43Z</time>
      </trkpt>
      <trkpt lat="43.36144" lon="2.89768">
        <ele>156.83215332031</ele>
        <time>2011-06-12T10:18:45Z</time>
      </trkpt>
      <trkpt lat="43.36166" lon="2.89779">
        <ele>155.87097167969</ele>
        <time>2011-06-12T10:18:50Z</time>
      </trkpt>
      <trkpt lat="43.36198" lon="2.89748">
        <ele>155.87097167969</ele>
        <time>2011-06-12T10:18:54Z</time>
      </trkpt>
      <trkpt lat="43.36204" lon="2.89746">
        <ele>155.87097167969</ele>
        <time>2011-06-12T10:19:04Z</time>
      </trkpt>
      <trkpt lat="43.36206" lon="2.89746">
        <ele>156.3515625</ele>
        <time>2011-06-12T10:20:01Z</time>
      </trkpt>
      <trkpt lat="43.36217" lon="2.89754">
        <ele>155.39025878906</ele>
        <time>2011-06-12T10:20:06Z</time>
      </trkpt>
      <trkpt lat="43.36248" lon="2.89786">
        <ele>154.90954589844</ele>
        <time>2011-06-12T10:20:15Z</time>
      </trkpt>
      <trkpt lat="43.36326" lon="2.89899">
        <ele>150.58361816406</ele>
        <time>2011-06-12T10:20:33Z</time>
      </trkpt>
      <trkpt lat="43.36334" lon="2.89911">
        <ele>149.62231445312</ele>
        <time>2011-06-12T10:20:35Z</time>
      </trkpt>
      <trkpt lat="43.3633" lon="2.89945">
        <ele>148.18041992188</ele>
        <time>2011-06-12T10:20:41Z</time>
      </trkpt>
      <trkpt lat="43.36346" lon="2.89942">
        <ele>136.1639404</ele>
        <time>2010-11-02T14:25:48Z</time>
      </trkpt>
      <trkpt lat="43.36393" lon="2.89973">
        <ele>138.5672607</ele>
        <time>2010-11-02T14:26:05Z</time>
      </trkpt>
      <trkpt lat="43.36435" lon="2.89986">
        <ele>141.4510498</ele>
        <time>2010-11-02T14:26:20Z</time>
      </trkpt>
      <trkpt lat="43.3647" lon="2.90019">
        <ele>144.8157959</ele>
        <time>2010-11-02T14:26:36Z</time>
      </trkpt>
      <trkpt lat="43.36504" lon="2.90076">
        <ele>150.5836182</ele>
        <time>2010-11-02T14:26:58Z</time>
      </trkpt>
      <trkpt lat="43.36523" lon="2.90135">
        <ele>155.8709717</ele>
        <time>2010-11-02T14:27:19Z</time>
      </trkpt>
      <trkpt lat="43.36543" lon="2.9018">
        <ele>160.1968994</ele>
        <time>2010-11-02T14:27:38Z</time>
      </trkpt>
      <trkpt lat="43.36571" lon="2.90219">
        <ele>164.5227051</ele>
        <time>2010-11-02T14:27:58Z</time>
      </trkpt>
      <trkpt lat="43.36608" lon="2.90281">
        <ele>168.8487549</ele>
        <time>2010-11-02T14:28:25Z</time>
      </trkpt>
      <trkpt lat="43.36654" lon="2.90338">
        <ele>172.6939697</ele>
        <time>2010-11-02T14:28:52Z</time>
      </trkpt>
      <trkpt lat="43.36692" lon="2.90384">
        <ele>178.4619141</ele>
        <time>2010-11-02T14:29:16Z</time>
      </trkpt>
      <trkpt lat="43.36737" lon="2.90415">
        <ele>182.3071289</ele>
        <time>2010-11-02T14:29:39Z</time>
      </trkpt>
      <trkpt lat="43.36767" lon="2.90435">
        <ele>186.1524658</ele>
        <time>2010-11-02T14:29:55Z</time>
      </trkpt>
      <trkpt lat="43.36803" lon="2.90453">
        <ele>190.9589844</ele>
        <time>2010-11-02T14:30:14Z</time>
      </trkpt>
      <trkpt lat="43.36849" lon="2.9048">
        <ele>195.2849121</ele>
        <time>2010-11-02T14:30:37Z</time>
      </trkpt>
      <trkpt lat="43.36872" lon="2.90494">
        <ele>199.130127</ele>
        <time>2010-11-02T14:30:57Z</time>
      </trkpt>
      <trkpt lat="43.3693" lon="2.90523">
        <ele>201.5335693</ele>
        <time>2010-11-02T14:31:15Z</time>
      </trkpt>
      <trkpt lat="43.36971" lon="2.90554">
        <ele>201.0528564</ele>
        <time>2010-11-02T14:31:28Z</time>
      </trkpt>
      <trkpt lat="43.37022" lon="2.90615">
        <ele>200.5722656</ele>
        <time>2010-11-02T14:31:43Z</time>
      </trkpt>
      <trkpt lat="43.37047" lon="2.9065">
        <ele>200.0916748</ele>
        <time>2010-11-02T14:31:50Z</time>
      </trkpt>
      <trkpt lat="43.37062" lon="2.90667">
        <ele>199.6108398</ele>
        <time>2010-11-02T14:31:54Z</time>
      </trkpt>
      <trkpt lat="43.37073" lon="2.9068">
        <ele>200.0916748</ele>
        <time>2010-11-02T14:31:57Z</time>
      </trkpt>
      <trkpt lat="43.37132" lon="2.90768">
        <ele>199.6108398</ele>
        <time>2010-11-02T14:32:16Z</time>
      </trkpt>
      <trkpt lat="43.37159" lon="2.90833">
        <ele>198.6495361</ele>
        <time>2010-11-02T14:32:30Z</time>
      </trkpt>
      <trkpt lat="43.37167" lon="2.90845">
        <ele>198.1689453</ele>
        <time>2010-11-02T14:32:34Z</time>
      </trkpt>
      <trkpt lat="43.37165" lon="2.90852">
        <ele>198.1689453</ele>
        <time>2010-11-02T14:32:38Z</time>
      </trkpt>
      <trkpt lat="43.37161" lon="2.90849">
        <ele>198.6495361</ele>
        <time>2010-11-02T14:32:40Z</time>
      </trkpt>
      <trkpt lat="43.37123" lon="2.90838">
        <ele>202.9754639</ele>
        <time>2010-11-02T14:32:56Z</time>
      </trkpt>
      <trkpt lat="43.37088" lon="2.90873">
        <ele>203.9368896</ele>
        <time>2010-11-02T14:33:09Z</time>
      </trkpt>
      <trkpt lat="43.37026" lon="2.90895">
        <ele>202.9754639</ele>
        <time>2010-11-02T14:33:23Z</time>
      </trkpt>
      <trkpt lat="43.36962" lon="2.90928">
        <ele>202.494873</ele>
        <time>2010-11-02T14:33:39Z</time>
      </trkpt>
      <trkpt lat="43.36949" lon="2.90947">
        <ele>201.5335693</ele>
        <time>2010-11-02T14:33:43Z</time>
      </trkpt>
      <trkpt lat="43.36944" lon="2.90955">
        <ele>201.0528564</ele>
        <time>2010-11-02T14:33:45Z</time>
      </trkpt>
      <trkpt lat="43.36927" lon="2.90961">
        <ele>200.5722656</ele>
        <time>2010-11-02T14:33:49Z</time>
      </trkpt>
      <trkpt lat="43.36913" lon="2.90962">
        <ele>202.0142822</ele>
        <time>2010-11-02T14:33:52Z</time>
      </trkpt>
      <trkpt lat="43.36894" lon="2.90975">
        <ele>203.4561768</ele>
        <time>2010-11-02T14:33:57Z</time>
      </trkpt>
      <trkpt lat="43.36872" lon="2.91002">
        <ele>203.4561768</ele>
        <time>2010-11-02T14:34:03Z</time>
      </trkpt>
      <trkpt lat="43.36853" lon="2.90994">
        <ele>203.9368896</ele>
        <time>2010-11-02T14:34:09Z</time>
      </trkpt>
      <trkpt lat="43.3679" lon="2.90918">
        <ele>203.4561768</ele>
        <time>2010-11-02T14:34:25Z</time>
      </trkpt>
      <trkpt lat="43.36787" lon="2.90913">
        <ele>203.9368896</ele>
        <time>2010-11-02T14:34:26Z</time>
      </trkpt>
      <trkpt lat="43.36778" lon="2.90882">
        <ele>205.3787842</ele>
        <time>2010-11-02T14:34:31Z</time>
      </trkpt>
      <trkpt lat="43.36776" lon="2.90833">
        <ele>205.8594971</ele>
        <time>2010-11-02T14:34:38Z</time>
      </trkpt>
      <trkpt lat="43.36771" lon="2.90804">
        <ele>204.8980713</ele>
        <time>2010-11-02T14:34:42Z</time>
      </trkpt>
      <trkpt lat="43.36771" lon="2.90767">
        <ele>203.4561768</ele>
        <time>2010-11-02T14:34:47Z</time>
      </trkpt>
      <trkpt lat="43.36769" lon="2.90752">
        <ele>202.9754639</ele>
        <time>2010-11-02T14:34:49Z</time>
      </trkpt>
      <trkpt lat="43.36776" lon="2.90731">
        <ele>203.4561768</ele>
        <time>2010-11-02T14:34:53Z</time>
      </trkpt>
      <trkpt lat="43.36798" lon="2.90696">
        <ele>205.3787842</ele>
        <time>2010-11-02T14:35:01Z</time>
      </trkpt>
      <trkpt lat="43.36787" lon="2.90661">
        <ele>206.3400879</ele>
        <time>2010-11-02T14:35:09Z</time>
      </trkpt>
      <trkpt lat="43.36742" lon="2.90628">
        <ele>206.8206787</ele>
        <time>2010-11-02T14:35:19Z</time>
      </trkpt>
      <trkpt lat="43.36718" lon="2.906">
        <ele>207.7821045</ele>
        <time>2010-11-02T14:35:26Z</time>
      </trkpt>
      <trkpt lat="43.36703" lon="2.90589">
        <ele>208.2628174</ele>
        <time>2010-11-02T14:35:30Z</time>
      </trkpt>
      <trkpt lat="43.36677" lon="2.90585">
        <ele>208.2628174</ele>
        <time>2010-11-02T14:35:36Z</time>
      </trkpt>
      <trkpt lat="43.36662" lon="2.90573">
        <ele>207.7821045</ele>
        <time>2010-11-02T14:35:40Z</time>
      </trkpt>
      <trkpt lat="43.36614" lon="2.90526">
        <ele>204.8980713</ele>
        <time>2010-11-02T14:35:51Z</time>
      </trkpt>
      <trkpt lat="43.36585" lon="2.90528">
        <ele>204.8980713</ele>
        <time>2010-11-02T14:35:57Z</time>
      </trkpt>
      <trkpt lat="43.36566" lon="2.9052">
        <ele>205.8594971</ele>
        <time>2010-11-02T14:36:02Z</time>
      </trkpt>
      <trkpt lat="43.36498" lon="2.90454">
        <ele>208.7434082</ele>
        <time>2010-11-02T14:36:19Z</time>
      </trkpt>
      <trkpt lat="43.36475" lon="2.90413">
        <ele>207.3013916</ele>
        <time>2010-11-02T14:36:26Z</time>
      </trkpt>
      <trkpt lat="43.36471" lon="2.904">
        <ele>207.3013916</ele>
        <time>2010-11-02T14:36:28Z</time>
      </trkpt>
      <trkpt lat="43.36458" lon="2.9038">
        <ele>208.7434082</ele>
        <time>2010-11-02T14:36:32Z</time>
      </trkpt>
      <trkpt lat="43.36391" lon="2.90316">
        <ele>210.1854248</ele>
        <time>2010-11-02T14:36:48Z</time>
      </trkpt>
      <trkpt lat="43.3638" lon="2.90311">
        <ele>211.1467285</ele>
        <time>2010-11-02T14:36:51Z</time>
      </trkpt>
      <trkpt lat="43.36371" lon="2.90306">
        <ele>212.1080322</ele>
        <time>2010-11-02T14:36:53Z</time>
      </trkpt>
      <trkpt lat="43.36348" lon="2.90301">
        <ele>211.1467285</ele>
        <time>2010-11-02T14:36:58Z</time>
      </trkpt>
      <trkpt lat="43.36329" lon="2.90305">
        <ele>211.1467285</ele>
        <time>2010-11-02T14:37:02Z</time>
      </trkpt>
      <trkpt lat="43.36316" lon="2.90314">
        <ele>210.1854248</ele>
        <time>2010-11-02T14:37:05Z</time>
      </trkpt>
      <trkpt lat="43.36299" lon="2.90331">
        <ele>208.7434082</ele>
        <time>2010-11-02T14:37:09Z</time>
      </trkpt>
      <trkpt lat="43.36283" lon="2.90406">
        <ele>205.3787842</ele>
        <time>2010-11-02T14:37:18Z</time>
      </trkpt>
      <trkpt lat="43.36303" lon="2.90435">
        <ele>202.494873</ele>
        <time>2010-11-02T14:37:23Z</time>
      </trkpt>
      <trkpt lat="43.36341" lon="2.90469">
        <ele>200.5722656</ele>
        <time>2010-11-02T14:37:30Z</time>
      </trkpt>
      <trkpt lat="43.36377" lon="2.90523">
        <ele>196.2463379</ele>
        <time>2010-11-02T14:37:38Z</time>
      </trkpt>
      <trkpt lat="43.36384" lon="2.90559">
        <ele>195.2849121</ele>
        <time>2010-11-02T14:37:42Z</time>
      </trkpt>
      <trkpt lat="43.36381" lon="2.90588">
        <ele>194.3237305</ele>
        <time>2010-11-02T14:37:45Z</time>
      </trkpt>
      <trkpt lat="43.36392" lon="2.90629">
        <ele>193.8430176</ele>
        <time>2010-11-02T14:37:50Z</time>
      </trkpt>
      <trkpt lat="43.36404" lon="2.90646">
        <ele>193.3623047</ele>
        <time>2010-11-02T14:37:53Z</time>
      </trkpt>
      <trkpt lat="43.36427" lon="2.90669">
        <ele>192.8817139</ele>
        <time>2010-11-02T14:37:58Z</time>
      </trkpt>
      <trkpt lat="43.36462" lon="2.90684">
        <ele>191.9202881</ele>
        <time>2010-11-02T14:38:04Z</time>
      </trkpt>
      <trkpt lat="43.36467" lon="2.90714">
        <ele>189.036377</ele>
        <time>2010-11-02T14:38:09Z</time>
      </trkpt>
      <trkpt lat="43.36465" lon="2.90729">
        <ele>189.036377</ele>
        <time>2010-11-02T14:38:11Z</time>
      </trkpt>
      <trkpt lat="43.36477" lon="2.90771">
        <ele>187.5943604</ele>
        <time>2010-11-02T14:38:17Z</time>
      </trkpt>
      <trkpt lat="43.36489" lon="2.90789">
        <ele>187.1137695</ele>
        <time>2010-11-02T14:38:20Z</time>
      </trkpt>
      <trkpt lat="43.36542" lon="2.90834">
        <ele>185.6717529</ele>
        <time>2010-11-02T14:38:30Z</time>
      </trkpt>
      <trkpt lat="43.36557" lon="2.90866">
        <ele>183.2684326</ele>
        <time>2010-11-02T14:38:35Z</time>
      </trkpt>
      <trkpt lat="43.36561" lon="2.90898">
        <ele>181.3458252</ele>
        <time>2010-11-02T14:38:39Z</time>
      </trkpt>
      <trkpt lat="43.36547" lon="2.90892">
        <ele>178.942627</ele>
        <time>2010-11-02T14:38:44Z</time>
      </trkpt>
      <trkpt lat="43.36531" lon="2.90861">
        <ele>177.0200195</ele>
        <time>2010-11-02T14:38:49Z</time>
      </trkpt>
      <trkpt lat="43.36481" lon="2.90831">
        <ele>174.1358643</ele>
        <time>2010-11-02T14:38:57Z</time>
      </trkpt>
      <trkpt lat="43.3646" lon="2.90818">
        <ele>170.2906494</ele>
        <time>2010-11-02T14:39:01Z</time>
      </trkpt>
      <trkpt lat="43.36426" lon="2.90801">
        <ele>161.1582031</ele>
        <time>2010-11-02T14:39:07Z</time>
      </trkpt>
      <trkpt lat="43.36403" lon="2.90774">
        <ele>157.3128662</ele>
        <time>2010-11-02T14:39:12Z</time>
      </trkpt>
      <trkpt lat="43.36351" lon="2.90723">
        <ele>156.8321533</ele>
        <time>2010-11-02T14:39:23Z</time>
      </trkpt>
      <trkpt lat="43.36342" lon="2.90714">
        <ele>156.8321533</ele>
        <time>2010-11-02T14:39:25Z</time>
      </trkpt>
      <trkpt lat="43.36326" lon="2.90689">
        <ele>155.8709717</ele>
        <time>2010-11-02T14:39:29Z</time>
      </trkpt>
      <trkpt lat="43.36316" lon="2.90702">
        <ele>152.0257568</ele>
        <time>2010-11-02T14:39:35Z</time>
      </trkpt>
      <trkpt lat="43.3632" lon="2.90714">
        <ele>152.0257568</ele>
        <time>2010-11-02T14:39:37Z</time>
      </trkpt>
      <trkpt lat="43.36333" lon="2.90738">
        <ele>149.6223145</ele>
        <time>2010-11-02T14:39:41Z</time>
      </trkpt>
      <trkpt lat="43.36343" lon="2.90763">
        <ele>150.5836182</ele>
        <time>2010-11-02T14:39:44Z</time>
      </trkpt>
      <trkpt lat="43.36364" lon="2.90786">
        <ele>149.1416016</ele>
        <time>2010-11-02T14:39:48Z</time>
      </trkpt>
      <trkpt lat="43.36374" lon="2.90821">
        <ele>145.7770996</ele>
        <time>2010-11-02T14:39:55Z</time>
      </trkpt>
      <trkpt lat="43.3637" lon="2.90823">
        <ele>145.2963867</ele>
        <time>2010-11-02T14:39:56Z</time>
      </trkpt>
      <trkpt lat="43.36338" lon="2.90848">
        <ele>141.4510498</ele>
        <time>2010-11-02T14:40:06Z</time>
      </trkpt>
      <trkpt lat="43.36339" lon="2.90863">
        <ele>139.5284424</ele>
        <time>2010-11-02T14:40:10Z</time>
      </trkpt>
      <trkpt lat="43.36323" lon="2.90871">
        <ele>136.1639404</ele>
        <time>2010-11-02T14:40:16Z</time>
      </trkpt>
      <trkpt lat="43.36308" lon="2.90866">
        <ele>132.7993164</ele>
        <time>2010-11-02T14:40:20Z</time>
      </trkpt>
      <trkpt lat="43.36297" lon="2.90872">
        <ele>131.3572998</ele>
        <time>2010-11-02T14:40:22Z</time>
      </trkpt>
      <trkpt lat="43.36275" lon="2.90877">
        <ele>132.7993164</ele>
        <time>2010-11-02T14:40:27Z</time>
      </trkpt>
      <trkpt lat="43.36266" lon="2.90868">
        <ele>131.8378906</ele>
        <time>2010-11-02T14:40:29Z</time>
      </trkpt>
      <trkpt lat="43.36238" lon="2.90868">
        <ele>128.4733887</ele>
        <time>2010-11-02T14:40:34Z</time>
      </trkpt>
      <trkpt lat="43.36227" lon="2.90874">
        <ele>128.4733887</ele>
        <time>2010-11-02T14:40:38Z</time>
      </trkpt>
      <trkpt lat="43.36216" lon="2.90907">
        <ele>127.0313721</ele>
        <time>2010-11-02T14:40:42Z</time>
      </trkpt>
      <trkpt lat="43.3622" lon="2.90966">
        <ele>127.5119629</ele>
        <time>2010-11-02T14:40:50Z</time>
      </trkpt>
      <trkpt lat="43.36232" lon="2.90994">
        <ele>123.666748</ele>
        <time>2010-11-02T14:40:54Z</time>
      </trkpt>
      <trkpt lat="43.36242" lon="2.91012">
        <ele>121.7441406</ele>
        <time>2010-11-02T14:40:57Z</time>
      </trkpt>
      <trkpt lat="43.36251" lon="2.91042">
        <ele>121.7441406</ele>
        <time>2010-11-02T14:41:02Z</time>
      </trkpt>
      <trkpt lat="43.36255" lon="2.91058">
        <ele>122.2247314</ele>
        <time>2010-11-02T14:41:05Z</time>
      </trkpt>
      <trkpt lat="43.36267" lon="2.91085">
        <ele>119.8214111</ele>
        <time>2010-11-02T14:41:10Z</time>
      </trkpt>
      <trkpt lat="43.36273" lon="2.91104">
        <ele>119.8214111</ele>
        <time>2010-11-02T14:41:13Z</time>
      </trkpt>
      <trkpt lat="43.36269" lon="2.91133">
        <ele>117.4182129</ele>
        <time>2010-11-02T14:41:18Z</time>
      </trkpt>
      <trkpt lat="43.36265" lon="2.91143">
        <ele>116.9375</ele>
        <time>2010-11-02T14:41:20Z</time>
      </trkpt>
      <trkpt lat="43.3625" lon="2.91159">
        <ele>115.0148926</ele>
        <time>2010-11-02T14:41:24Z</time>
      </trkpt>
      <trkpt lat="43.36246" lon="2.91211">
        <ele>112.6115723</ele>
        <time>2010-11-02T14:41:32Z</time>
      </trkpt>
      <trkpt lat="43.36231" lon="2.91245">
        <ele>110.6888428</ele>
        <time>2010-11-02T14:41:37Z</time>
      </trkpt>
      <trkpt lat="43.36219" lon="2.91262">
        <ele>109.2469482</ele>
        <time>2010-11-02T14:41:40Z</time>
      </trkpt>
      <trkpt lat="43.36205" lon="2.91283">
        <ele>109.7276611</ele>
        <time>2010-11-02T14:41:44Z</time>
      </trkpt>
      <trkpt lat="43.36208" lon="2.91307">
        <ele>107.3243408</ele>
        <time>2010-11-02T14:41:49Z</time>
      </trkpt>
      <trkpt lat="43.36209" lon="2.91314">
        <ele>106.8436279</ele>
        <time>2010-11-02T14:41:51Z</time>
      </trkpt>
      <trkpt lat="43.36191" lon="2.91338">
        <ele>105.4017334</ele>
        <time>2010-11-02T14:41:57Z</time>
      </trkpt>
      <trkpt lat="43.36181" lon="2.91347">
        <ele>105.4017334</ele>
        <time>2010-11-02T14:41:59Z</time>
      </trkpt>
      <trkpt lat="43.36122" lon="2.91382">
        <ele>101.0756836</ele>
        <time>2010-11-02T14:42:08Z</time>
      </trkpt>
      <trkpt lat="43.36071" lon="2.91447">
        <ele>97.2304688</ele>
        <time>2010-11-02T14:42:16Z</time>
      </trkpt>
      <trkpt lat="43.36056" lon="2.91485">
        <ele>95.7884521</ele>
        <time>2010-11-02T14:42:20Z</time>
      </trkpt>
      <trkpt lat="43.36041" lon="2.91523">
        <ele>93.8658447</ele>
        <time>2010-11-02T14:42:24Z</time>
      </trkpt>
      <trkpt lat="43.36026" lon="2.91552">
        <ele>92.904541</ele>
        <time>2010-11-02T14:42:30Z</time>
      </trkpt>
      <trkpt lat="43.36008" lon="2.91554">
        <ele>91.9432373</ele>
        <time>2010-11-02T14:42:34Z</time>
      </trkpt>
      <trkpt lat="43.36001" lon="2.91574">
        <ele>92.4239502</ele>
        <time>2010-11-02T14:42:38Z</time>
      </trkpt>
      <trkpt lat="43.35999" lon="2.91589">
        <ele>93.3851318</ele>
        <time>2010-11-02T14:42:41Z</time>
      </trkpt>
      <trkpt lat="43.35985" lon="2.91615">
        <ele>95.7884521</ele>
        <time>2010-11-02T14:42:47Z</time>
      </trkpt>
      <trkpt lat="43.35972" lon="2.91639">
        <ele>95.7884521</ele>
        <time>2010-11-02T14:42:53Z</time>
      </trkpt>
      <trkpt lat="43.35971" lon="2.91642">
        <ele>96.7498779</ele>
        <time>2010-11-02T14:42:57Z</time>
      </trkpt>
      <trkpt lat="43.35975" lon="2.91636">
        <ele>96.7498779</ele>
        <time>2010-11-02T14:43:00Z</time>
      </trkpt>
      <trkpt lat="43.35963" lon="2.91662">
        <ele>103.18359375</ele>
      </trkpt>
      <trkpt lat="43.35946" lon="2.91701">
        <ele>103.8203125</ele>
      </trkpt>
      <trkpt lat="43.35944" lon="2.91729">
        <ele>104.7578125</ele>
      </trkpt>
      <trkpt lat="43.35948" lon="2.91767">
        <ele>99.6337890625</ele>
        <time>2011-06-12T10:24:40Z</time>
      </trkpt>
      <trkpt lat="43.35986" lon="2.91888">
        <ele>99.153076171875</ele>
        <time>2011-06-12T10:24:54Z</time>
      </trkpt>
      <trkpt lat="43.35986" lon="2.92007">
        <ele>98.672485351562</ele>
        <time>2011-06-12T10:25:07Z</time>
      </trkpt>
      <trkpt lat="43.35963" lon="2.92107">
        <ele>97.711181640625</ele>
        <time>2011-06-12T10:25:18Z</time>
      </trkpt>
      <trkpt lat="43.35946" lon="2.92148">
        <ele>97.23046875</ele>
        <time>2011-06-12T10:25:23Z</time>
      </trkpt>
      <trkpt lat="43.35927" lon="2.92146">
        <ele>102</ele>
        <time>2010-12-04T08:48:15Z</time>
      </trkpt>
      <trkpt lat="43.35916" lon="2.92172">
        <ele>104</ele>
        <time>2010-12-04T08:48:22Z</time>
      </trkpt>
      <trkpt lat="43.3589" lon="2.92217">
        <ele>103</ele>
        <time>2010-12-04T08:48:32Z</time>
      </trkpt>
      <trkpt lat="43.35871" lon="2.92208">
        <ele>101</ele>
        <time>2010-12-04T08:48:36Z</time>
      </trkpt>
      <trkpt lat="43.35838" lon="2.92185">
        <ele>100</ele>
        <time>2010-12-04T08:48:42Z</time>
      </trkpt>
      <trkpt lat="43.35816" lon="2.92214">
        <ele>99</ele>
        <time>2010-12-04T08:48:47Z</time>
      </trkpt>
      <trkpt lat="43.35787" lon="2.92283">
        <ele>98</ele>
        <time>2010-12-04T08:48:58Z</time>
      </trkpt>
      <trkpt lat="43.35786" lon="2.92317">
        <ele>97</ele>
        <time>2010-12-04T08:49:05Z</time>
      </trkpt>
      <trkpt lat="43.35784" lon="2.92322">
        <ele>96</ele>
        <time>2010-12-04T08:49:14Z</time>
      </trkpt>
      <trkpt lat="43.35784" lon="2.92324">
        <ele>97</ele>
        <time>2010-12-04T08:49:18Z</time>
      </trkpt>
      <trkpt lat="43.35786" lon="2.92325">
        <ele>97</ele>
        <time>2010-12-04T08:49:22Z</time>
      </trkpt>
      <trkpt lat="43.35785" lon="2.92328">
        <ele>97</ele>
        <time>2010-12-04T08:49:26Z</time>
      </trkpt>
      <trkpt lat="43.35781" lon="2.92336">
        <ele>97</ele>
        <time>2010-12-04T08:49:34Z</time>
      </trkpt>
      <trkpt lat="43.35778" lon="2.92338">
        <ele>97</ele>
        <time>2010-12-04T08:49:56Z</time>
      </trkpt>
      <trkpt lat="43.35756" lon="2.92327">
        <ele>97</ele>
        <time>2010-12-04T08:50:05Z</time>
      </trkpt>
      <trkpt lat="43.35727" lon="2.9235">
        <ele>97</ele>
        <time>2010-12-04T08:50:14Z</time>
      </trkpt>
      <trkpt lat="43.35711" lon="2.92404">
        <ele>98</ele>
        <time>2010-12-04T08:50:25Z</time>
      </trkpt>
      <trkpt lat="43.3571" lon="2.92434">
        <ele>97</ele>
        <time>2010-12-04T08:50:32Z</time>
      </trkpt>
      <trkpt lat="43.3571" lon="2.92442">
        <ele>97</ele>
        <time>2010-12-04T08:50:48Z</time>
      </trkpt>
      <trkpt lat="43.35709" lon="2.92483">
        <ele>97</ele>
        <time>2010-12-04T08:50:54Z</time>
      </trkpt>
      <trkpt lat="43.35706" lon="2.92536">
        <ele>97</ele>
        <time>2010-12-04T08:51:01Z</time>
      </trkpt>
      <trkpt lat="43.35696" lon="2.9257">
        <ele>97</ele>
        <time>2010-12-04T08:51:09Z</time>
      </trkpt>
      <trkpt lat="43.35692" lon="2.92594">
        <ele>97</ele>
        <time>2010-12-04T08:51:16Z</time>
      </trkpt>
      <trkpt lat="43.35711" lon="2.92562">
        <ele>90.23046875</ele>
      </trkpt>
      <trkpt lat="43.35727" lon="2.92534">
        <ele>90.4375</ele>
      </trkpt>
      <trkpt lat="43.35744" lon="2.92511">
        <ele>91.0859375</ele>
      </trkpt>
      <trkpt lat="43.35764" lon="2.9249">
        <ele>93.234375</ele>
      </trkpt>
      <trkpt lat="43.35786" lon="2.92468">
        <ele>94.40234375</ele>
      </trkpt>
      <trkpt lat="43.3581" lon="2.92445">
        <ele>95.2734375</ele>
      </trkpt>
      <trkpt lat="43.35824" lon="2.92425">
        <ele>95.7578125</ele>
      </trkpt>
      <trkpt lat="43.35841" lon="2.92402">
        <ele>95.87890625</ele>
      </trkpt>
      <trkpt lat="43.3585" lon="2.92408">
        <ele>88.5787354</ele>
        <time>2010-11-02T15:06:37Z</time>
      </trkpt>
      <trkpt lat="43.35916" lon="2.92431">
        <ele>89.539917</ele>
        <time>2010-11-02T15:06:56Z</time>
      </trkpt>
      <trkpt lat="43.3597" lon="2.92453">
        <ele>95.3077393</ele>
        <time>2010-11-02T15:07:15Z</time>
      </trkpt>
      <trkpt lat="43.36018" lon="2.92447">
        <ele>100.114502</ele>
        <time>2010-11-02T15:07:34Z</time>
      </trkpt>
      <trkpt lat="43.36069" lon="2.92444">
        <ele>102.5177002</ele>
        <time>2010-11-02T15:07:53Z</time>
      </trkpt>
      <trkpt lat="43.36109" lon="2.92447">
        <ele>102.5177002</ele>
        <time>2010-11-02T15:08:06Z</time>
      </trkpt>
      <trkpt lat="43.36166" lon="2.92434">
        <ele>104.9210205</ele>
        <time>2010-11-02T15:08:26Z</time>
      </trkpt>
      <trkpt lat="43.36201" lon="2.92455">
        <ele>106.8436279</ele>
        <time>2010-11-02T15:08:40Z</time>
      </trkpt>
      <trkpt lat="43.36237" lon="2.92476">
        <ele>109.7276611</ele>
        <time>2010-11-02T15:08:55Z</time>
      </trkpt>
      <trkpt lat="43.36275" lon="2.9249">
        <ele>112.6115723</ele>
        <time>2010-11-02T15:09:13Z</time>
      </trkpt>
      <trkpt lat="43.36318" lon="2.92531">
        <ele>115.4956055</ele>
        <time>2010-11-02T15:09:33Z</time>
      </trkpt>
      <trkpt lat="43.36367" lon="2.9255">
        <ele>119.8214111</ele>
        <time>2010-11-02T15:09:54Z</time>
      </trkpt>
      <trkpt lat="43.36381" lon="2.92554">
        <ele>121.2635498</ele>
        <time>2010-11-02T15:10:01Z</time>
      </trkpt>
      <trkpt lat="43.36371" lon="2.92566">
        <ele>122.2247314</ele>
        <time>2010-11-02T15:10:09Z</time>
      </trkpt>
      <trkpt lat="43.36331" lon="2.92569">
        <ele>124.1473389</ele>
        <time>2010-11-02T15:10:26Z</time>
      </trkpt>
      <trkpt lat="43.36289" lon="2.9255">
        <ele>127.5119629</ele>
        <time>2010-11-02T15:10:45Z</time>
      </trkpt>
      <trkpt lat="43.3625" lon="2.92547">
        <ele>127.9925537</ele>
        <time>2010-11-02T15:11:00Z</time>
      </trkpt>
      <trkpt lat="43.36216" lon="2.92554">
        <ele>131.3572998</ele>
        <time>2010-11-02T15:11:13Z</time>
      </trkpt>
      <trkpt lat="43.3618" lon="2.92573">
        <ele>132.3186035</ele>
        <time>2010-11-02T15:11:26Z</time>
      </trkpt>
      <trkpt lat="43.36128" lon="2.92576">
        <ele>134.7219238</ele>
        <time>2010-11-02T15:11:45Z</time>
      </trkpt>
      <trkpt lat="43.36087" lon="2.92585">
        <ele>136.1639404</ele>
        <time>2010-11-02T15:12:00Z</time>
      </trkpt>
      <trkpt lat="43.36047" lon="2.92608">
        <ele>138.5672607</ele>
        <time>2010-11-02T15:12:13Z</time>
      </trkpt>
      <trkpt lat="43.35998" lon="2.92641">
        <ele>141.4510498</ele>
        <time>2010-11-02T15:12:30Z</time>
      </trkpt>
      <trkpt lat="43.35966" lon="2.92674">
        <ele>143.8543701</ele>
        <time>2010-11-02T15:12:44Z</time>
      </trkpt>
      <trkpt lat="43.35933" lon="2.92709">
        <ele>146.2578125</ele>
        <time>2010-11-02T15:12:58Z</time>
      </trkpt>
      <trkpt lat="43.35865" lon="2.92752">
        <ele>147.699707</ele>
        <time>2010-11-02T15:13:16Z</time>
      </trkpt>
      <trkpt lat="43.35785" lon="2.9277">
        <ele>145.7770996</ele>
        <time>2010-11-02T15:13:33Z</time>
      </trkpt>
      <trkpt lat="43.3576" lon="2.92775">
        <ele>145.2963867</ele>
        <time>2010-11-02T15:13:38Z</time>
      </trkpt>
      <trkpt lat="43.35742" lon="2.92794">
        <ele>144.3352051</ele>
        <time>2010-11-02T15:13:46Z</time>
      </trkpt>
      <trkpt lat="43.35742" lon="2.92794">
        <ele>144.3352051</ele>
        <time>2010-11-02T15:14:48Z</time>
      </trkpt>
      <trkpt lat="43.35742" lon="2.92799">
        <ele>144.8157959</ele>
        <time>2010-11-02T15:14:50Z</time>
      </trkpt>
      <trkpt lat="43.35749" lon="2.92809">
        <ele>143.3736572</ele>
        <time>2010-11-02T15:14:55Z</time>
      </trkpt>
      <trkpt lat="43.35756" lon="2.92813">
        <ele>142.4124756</ele>
        <time>2010-11-02T15:14:57Z</time>
      </trkpt>
      <trkpt lat="43.35764" lon="2.92858">
        <ele>140.0091553</ele>
        <time>2010-11-02T15:15:01Z</time>
      </trkpt>
      <trkpt lat="43.35784" lon="2.92884">
        <ele>138.0865479</ele>
        <time>2010-11-02T15:15:05Z</time>
      </trkpt>
      <trkpt lat="43.35855" lon="2.92937">
        <ele>132.3186035</ele>
        <time>2010-11-02T15:15:15Z</time>
      </trkpt>
      <trkpt lat="43.35887" lon="2.92947">
        <ele>128.4733887</ele>
        <time>2010-11-02T15:15:20Z</time>
      </trkpt>
      <trkpt lat="43.35885" lon="2.92973">
        <ele>126.0699463</ele>
        <time>2010-11-02T15:15:26Z</time>
      </trkpt>
      <trkpt lat="43.35863" lon="2.92996">
        <ele>127.0313721</ele>
        <time>2010-11-02T15:15:32Z</time>
      </trkpt>
      <trkpt lat="43.35853" lon="2.93005">
        <ele>126.5506592</ele>
        <time>2010-11-02T15:15:34Z</time>
      </trkpt>
      <trkpt lat="43.35836" lon="2.93019">
        <ele>124.6280518</ele>
        <time>2010-11-02T15:15:37Z</time>
      </trkpt>
      <trkpt lat="43.35788" lon="2.93072">
        <ele>125.1087646</ele>
        <time>2010-11-02T15:15:45Z</time>
      </trkpt>
      <trkpt lat="43.3577" lon="2.93097">
        <ele>121.7441406</ele>
        <time>2010-11-02T15:15:50Z</time>
      </trkpt>
      <trkpt lat="43.35772" lon="2.93124">
        <ele>115.0148926</ele>
        <time>2010-11-02T15:15:56Z</time>
      </trkpt>
      <trkpt lat="43.35781" lon="2.9314">
        <ele>111.1695557</ele>
        <time>2010-11-02T15:16:01Z</time>
      </trkpt>
      <trkpt lat="43.35807" lon="2.93186">
        <ele>107.8050537</ele>
        <time>2010-11-02T15:16:13Z</time>
      </trkpt>
      <trkpt lat="43.35797" lon="2.9326">
        <ele>103.4790039</ele>
        <time>2010-11-02T15:16:22Z</time>
      </trkpt>
      <trkpt lat="43.35795" lon="2.9327">
        <ele>103.4790039</ele>
        <time>2010-11-02T15:16:23Z</time>
      </trkpt>
      <trkpt lat="43.35767" lon="2.93352">
        <ele>106.8436279</ele>
        <time>2010-11-02T15:16:33Z</time>
      </trkpt>
      <trkpt lat="43.35748" lon="2.93389">
        <ele>109.2469482</ele>
        <time>2010-11-02T15:16:42Z</time>
      </trkpt>
      <trkpt lat="43.35748" lon="2.93425">
        <ele>107.8050537</ele>
        <time>2010-11-02T15:16:48Z</time>
      </trkpt>
      <trkpt lat="43.35734" lon="2.93467">
        <ele>103.4790039</ele>
        <time>2010-11-02T15:16:54Z</time>
      </trkpt>
      <trkpt lat="43.35729" lon="2.93504">
        <ele>98.6724854</ele>
        <time>2010-11-02T15:16:58Z</time>
      </trkpt>
      <trkpt lat="43.35735" lon="2.93567">
        <ele>89.539917</ele>
        <time>2010-11-02T15:17:04Z</time>
      </trkpt>
      <trkpt lat="43.3576" lon="2.93609">
        <ele>85.6945801</ele>
        <time>2010-11-02T15:17:09Z</time>
      </trkpt>
      <trkpt lat="43.35767" lon="2.93649">
        <ele>83.2913818</ele>
        <time>2010-11-02T15:17:13Z</time>
      </trkpt>
      <trkpt lat="43.35768" lon="2.93677">
        <ele>81.3687744</ele>
        <time>2010-11-02T15:17:16Z</time>
      </trkpt>
      <trkpt lat="43.35739" lon="2.93717">
        <ele>78.9654541</ele>
        <time>2010-11-02T15:17:24Z</time>
      </trkpt>
      <trkpt lat="43.35717" lon="2.93742">
        <ele>78.0040283</ele>
        <time>2010-11-02T15:17:28Z</time>
      </trkpt>
      <trkpt lat="43.35701" lon="2.93789">
        <ele>77.0428467</ele>
        <time>2010-11-02T15:17:34Z</time>
      </trkpt>
      <trkpt lat="43.35709" lon="2.93841">
        <ele>76.0814209</ele>
        <time>2010-11-02T15:17:40Z</time>
      </trkpt>
      <trkpt lat="43.35693" lon="2.93859">
        <ele>75.1202393</ele>
        <time>2010-11-02T15:17:46Z</time>
      </trkpt>
      <trkpt lat="43.3568" lon="2.9386">
        <ele>74.6395264</ele>
        <time>2010-11-02T15:17:49Z</time>
      </trkpt>
      <trkpt lat="43.35666" lon="2.93909">
        <ele>75.6008301</ele>
        <time>2010-11-02T15:17:58Z</time>
      </trkpt>
      <trkpt lat="43.35661" lon="2.93969">
        <ele>76.0814209</ele>
        <time>2010-11-02T15:18:06Z</time>
      </trkpt>
      <trkpt lat="43.35659" lon="2.94">
        <ele>77.0428467</ele>
        <time>2010-11-02T15:18:11Z</time>
      </trkpt>
      <trkpt lat="43.35645" lon="2.94006">
        <ele>76.5621338</ele>
        <time>2010-11-02T15:18:16Z</time>
      </trkpt>
      <trkpt lat="43.35614" lon="2.94001">
        <ele>77.0428467</ele>
        <time>2010-11-02T15:18:23Z</time>
      </trkpt>
      <trkpt lat="43.35611" lon="2.94023">
        <ele>77.5234375</ele>
        <time>2010-11-02T15:18:27Z</time>
      </trkpt>
      <trkpt lat="43.35613" lon="2.94044">
        <ele>78.4847412</ele>
        <time>2010-11-02T15:18:30Z</time>
      </trkpt>
      <trkpt lat="43.35605" lon="2.94076">
        <ele>79.4460449</ele>
        <time>2010-11-02T15:18:35Z</time>
      </trkpt>
      <trkpt lat="43.35596" lon="2.94133">
        <ele>78.4847412</ele>
        <time>2010-11-02T15:18:48Z</time>
      </trkpt>
      <trkpt lat="43.35596" lon="2.94133">
        <ele>78.4847412</ele>
        <time>2010-11-02T15:18:50Z</time>
      </trkpt>
      <trkpt lat="43.3561" lon="2.94145">
        <ele>78.4847412</ele>
        <time>2010-11-02T15:18:55Z</time>
      </trkpt>
      <trkpt lat="43.35636" lon="2.94153">
        <ele>78.0040283</ele>
        <time>2010-11-02T15:19:00Z</time>
      </trkpt>
      <trkpt lat="43.35645" lon="2.94169">
        <ele>76.5621338</ele>
        <time>2010-11-02T15:19:05Z</time>
      </trkpt>
      <trkpt lat="43.35635" lon="2.94213">
        <ele>75.1202393</ele>
        <time>2010-11-02T15:19:17Z</time>
      </trkpt>
      <trkpt lat="43.35635" lon="2.94213">
        <ele>75.1202393</ele>
        <time>2010-11-02T15:19:51Z</time>
      </trkpt>
    </trkseg>
  </trk>
</gpx>